Date StartTime U_cm/s V_cm/s W_cm/s Ustd_cm/s Vstd_cm/s Wstd_cm/s Uvar_(cm/s)^2 Vvar_(cm/s)^2 Wvar_(cm/s)^2 KE_(m/s)^2 TurbulentKE_(m/s)^2 HorizWindSpeed_cm/s FrictionSpeec_cm/s DragCoef SpeedOfSound_m/s SonicTemperature_C Pressure_mb 
01/24/2014  00:00:00       22.825      -31.164        4.261       18.559       26.072       21.520      344.427      679.764      463.116        0.150        0.074       38.629       19.085        0.244      335.391        5.992      869.165
01/24/2014  00:01:00       32.327       45.105        3.730       19.134       18.272       14.501      366.106      333.880      210.293        0.200        0.046       55.493        8.966        0.026      335.367        5.950      869.181
01/24/2014  00:02:00        4.856       38.689       -2.058       22.085       19.395       11.334      487.766      376.148      128.463        0.126        0.050       38.992       10.193        0.068      335.391        5.994      869.184
01/24/2014  00:03:00      -18.476       34.982       -6.955       18.603       18.286        7.468      346.056      334.392       55.766        0.117        0.037       39.562        9.192        0.054      335.404        6.014      869.172
01/24/2014  00:04:00      -28.489      -18.220       -9.609       11.459       12.913        8.017      131.315      166.751       64.274        0.080        0.018       33.817        4.265        0.016      335.419        6.040      869.164
01/24/2014  00:05:00      -40.417       -8.853       -4.108        6.396        7.603        6.118       40.911       57.808       37.430        0.093        0.007       41.375        5.602        0.018      335.353        5.930      869.167
01/24/2014  00:06:00      -46.045      -12.326        1.557        9.714        8.303        6.946       94.358       68.936       48.244        0.124        0.011       47.667        3.142        0.004      335.402        6.011      869.167
01/24/2014  00:07:00      -37.155        2.468       -3.453        8.124       10.250        6.643       65.993      105.070       44.124        0.081        0.011       37.237        4.517        0.015      335.394        5.998      869.168
01/24/2014  00:08:00        3.828       12.118        4.994       13.730        6.239        9.588      188.517       38.925       91.935        0.025        0.016       12.709        7.133        0.315      335.418        6.037      869.166
01/24/2014  00:09:00       18.187       16.059       16.531       12.304       12.922       14.945      151.397      166.969      223.359        0.070        0.027       24.263        9.000        0.138      335.427        6.055      869.162
01/24/2014  00:10:00       21.222       18.112        7.534       10.687       13.018       12.659      114.209      169.461      160.258        0.064        0.022       27.900        9.053        0.105      335.479        6.140      869.175
01/24/2014  00:11:00       13.445        3.713       18.741       16.914       26.743       12.750      286.095      715.197      162.569        0.085        0.058       13.948       15.664        1.261      335.477        6.135      869.186
01/24/2014  00:12:00       15.385      -10.311       11.327       15.788       19.401       12.331      249.270      376.404      152.054        0.062        0.039       18.521       10.485        0.321      335.530        6.225      869.189
01/24/2014  00:13:00       15.951        3.463       26.873       19.700       26.720       17.446      388.075      713.968      304.352        0.120        0.070       16.322       18.163        1.238      335.536        6.236      869.187
01/24/2014  00:14:00        2.439       16.167       26.995       14.738       22.686       11.954      217.194      514.658      142.891        0.094        0.044       16.350        8.547        0.273      335.505        6.182      869.167
01/24/2014  00:15:00       12.625      -19.290       10.866       24.222       24.295       18.920      586.710      590.224      357.973        0.109        0.077       23.055       11.811        0.262      335.559        6.272      869.153
01/24/2014  00:16:00       25.994      -30.193        3.588       22.097       28.851       22.256      488.273      832.383      495.320        0.171        0.091       39.841       13.421        0.113      335.525        6.217      869.138
01/24/2014  00:17:00       12.563       12.972       39.115       22.285       30.006       26.049      496.632      900.369      678.530        0.197        0.104       18.059       23.238        1.656      335.459        6.105      869.137
01/24/2014  00:18:00        9.629       43.213       53.134       15.778       28.479       12.206      248.930      811.045      148.991        0.300        0.060       44.272       15.163        0.117      335.469        6.123      869.144
01/24/2014  00:19:00        9.382       50.625       57.601       13.614       24.659       12.198      185.354      608.049      148.791        0.346        0.047       51.487       16.092        0.098      335.465        6.116      869.151
01/24/2014  00:20:00       53.389       65.644       55.601       29.761       20.539       24.915      885.740      421.861      620.763        0.609        0.096       84.614       16.104        0.036      335.472        6.129      869.163
01/24/2014  00:21:00       40.372       66.703       62.109       30.211       28.012       25.174      912.682      784.695      633.707        0.613        0.117       77.969       20.380        0.068      335.443        6.079      869.173
01/24/2014  00:22:00       65.529       60.278       46.861       34.312       29.578       23.243     1177.338      874.833      540.256        0.636        0.130       89.037       12.443        0.020      335.441        6.076      869.176
01/24/2014  00:23:00       49.448       47.640       55.412       36.784       25.574       23.048     1353.068      654.019      531.225        0.516        0.127       68.664       20.453        0.089      335.395        6.002      869.161
01/24/2014  00:24:00       57.102       38.714       37.781       38.799       28.607       30.004     1505.379      818.358      900.226        0.470        0.161       68.989       22.417        0.106      335.416        6.034      869.160
01/24/2014  00:25:00       42.355       59.191       64.831       30.990       26.486       19.049      960.393      701.523      362.862        0.576        0.101       72.783       12.129        0.028      335.420        6.040      869.163
01/24/2014  00:26:00       68.473       64.682       51.832       31.720       24.553       32.029     1006.135      602.855     1025.857        0.710        0.132       94.192       21.186        0.051      335.440        6.076      869.174
01/24/2014  00:27:00       80.424       47.819       19.327       32.767       35.218       36.450     1073.707     1240.327     1328.597        0.638        0.182       93.566       25.885        0.077      335.312        5.860      869.177
01/24/2014  00:28:00      110.175       49.911       11.136       27.411       21.775       20.734      751.370      474.161      429.894        0.820        0.083      120.954       12.956        0.011      335.245        5.749      869.180
01/24/2014  00:29:00       89.843       44.002       16.414       30.480       30.265       23.560      929.042      915.997      555.053        0.634        0.120      100.039       12.176        0.015      335.303        5.846      869.178
01/24/2014  00:30:00       79.096       35.410       26.376       25.057       30.222       25.221      627.860      913.349      636.120        0.519        0.109       86.661       12.913        0.022      335.324        5.880      869.189
01/24/2014  00:31:00       68.222       38.986       56.297       20.429       22.759       20.312      417.353      517.969      412.587        0.535        0.067       78.576        8.397        0.011      335.275        5.799      869.202
01/24/2014  00:32:00       67.235       20.912       49.864       22.623       25.156       21.501      511.789      632.817      462.314        0.453        0.080       70.413       16.366        0.054      335.259        5.772      869.213
01/24/2014  00:33:00       57.391       33.081       47.774       39.960       29.138       24.902     1596.806      849.034      620.131        0.487        0.153       66.242       19.470        0.086      335.327        5.887      869.221
01/24/2014  00:34:00       66.644       23.780       35.815       43.294       28.562       25.166     1874.366      815.791      633.343        0.481        0.166       70.759       14.832        0.044      335.321        5.876      869.229
01/24/2014  00:35:00       84.971       41.792       28.448       23.006       18.544       25.683      529.267      343.870      659.594        0.565        0.077       94.692       17.340        0.034      335.362        5.944      869.248
01/24/2014  00:36:00       60.125       39.988       31.200       20.421       22.713       20.712      417.012      515.860      428.968        0.377        0.068       72.208       11.347        0.025      335.299        5.840      869.260
01/24/2014  00:37:00       71.789       38.518       16.713       20.693       16.860       18.784      428.186      284.275      352.824        0.399        0.053       81.469        8.969        0.012      335.264        5.781      869.285
01/24/2014  00:38:00       83.086       39.552       13.893       24.452       15.936       16.690      597.881      253.947      278.545        0.490        0.057       92.019       14.952        0.026      335.305        5.851      869.308
01/24/2014  00:39:00       77.036       28.676        4.898       21.566       18.961       12.240      465.096      359.528      149.810        0.388        0.049       82.200        9.949        0.015      335.272        5.792      869.316
01/24/2014  00:40:00       58.947       32.233       11.840       22.420       19.261       12.844      502.677      370.992      164.980        0.285        0.052       67.184        8.987        0.018      335.229        5.723      869.318
01/24/2014  00:41:00       34.895       30.432       10.751       14.749       11.074       11.373      217.536      122.644      129.341        0.136        0.023       46.301        8.968        0.038      335.174        5.632      869.334
01/24/2014  00:42:00       16.105       19.792       -0.585       18.631        9.873        6.075      347.118       97.475       36.911        0.057        0.024       25.516        6.001        0.055      335.237        5.737      869.357
01/24/2014  00:43:00        9.541        5.506       -3.083        8.063        8.730        4.492       65.013       76.206       20.180        0.015        0.008       11.016        3.304        0.090      335.199        5.673      869.383
01/24/2014  00:44:00        6.796       10.221        2.631        8.404       18.701        8.652       70.628      349.724       74.861        0.033        0.025       12.274        9.988        0.662      335.197        5.670      869.414
01/24/2014  00:45:00      -33.388        3.330       -3.373       20.155       11.012       10.330      406.212      121.260      106.719        0.089        0.032       33.553        7.047        0.044      334.947        5.257      869.434
01/24/2014  00:46:00      -53.921       -9.130       -8.687       20.147       21.524       12.528      405.919      463.297      156.948        0.205        0.051       54.688       10.035        0.034      334.541        4.581      869.451
01/24/2014  00:47:00      -90.699      -30.026      -12.968       25.204       18.778       16.864      635.266      352.617      284.410        0.528        0.064       95.540       14.940        0.024      334.341        4.250      869.455
01/24/2014  00:48:00      -62.487       -6.992       -0.525       31.983       26.661       19.799     1022.893      710.829      391.998        0.304        0.106       62.877       15.995        0.065      334.255        4.106      869.463
01/24/2014  00:49:00      -42.104      -12.446       -2.974       25.487       22.162       18.024      649.605      491.142      324.847        0.170        0.073       43.905       13.337        0.092      334.230        4.066      869.470
01/24/2014  00:50:00      -91.790       -1.547       -3.106       58.752       36.455       28.546     3451.790     1328.939      814.884        0.702        0.280       91.803       30.352        0.109      334.328        4.230      869.479
01/24/2014  00:51:00     -151.076       20.933      -16.120       41.175       33.201       28.809     1695.354     1102.284      829.984        1.357        0.181      152.520       23.909        0.025      334.383        4.320      869.478
01/24/2014  00:52:00     -165.820       16.265      -16.055       37.610       34.541       24.408     1414.520     1193.109      595.744        1.561        0.160      166.616       20.033        0.014      334.350        4.262      869.481
01/24/2014  00:53:00     -205.520       15.022      -21.596       32.652       25.447       15.630     1066.183      647.567      244.285        2.244        0.098      206.069       12.627        0.004      334.272        4.132      869.478
01/24/2014  00:54:00     -169.244      -18.370      -22.391       42.086       42.644       24.620     1771.193     1818.506      606.151        1.684        0.210      170.238       20.163        0.014      334.246        4.091      869.471
01/24/2014  00:55:00     -135.387      -30.102       -7.894       45.928       42.987       25.047     2109.398     1847.900      627.374        1.194        0.229      138.693       28.689        0.043      334.241        4.086      869.460
01/24/2014  00:56:00     -175.526       11.280      -19.343       47.321       44.626       24.024     2239.249     1991.450      577.133        1.806        0.240      175.888       22.197        0.016      334.164        3.954      869.468
01/24/2014  00:57:00     -149.418        9.437       -8.696       45.290       40.847       33.149     2051.205     1668.497     1098.861        1.365        0.241      149.716       27.763        0.034      334.155        3.940      869.476
01/24/2014  00:58:00     -115.937       -6.749       -9.777       39.652       45.393       25.747     1572.297     2060.569      662.906        0.894        0.215      116.133       20.639        0.032      334.168        3.961      869.481
01/24/2014  00:59:00     -160.734       13.104      -21.528       64.325       58.330       26.221     4137.729     3402.389      687.541        1.735        0.411      161.267       13.741        0.007      334.233        4.069      869.485
01/24/2014  01:00:00     -161.578       19.178      -21.001       57.494       45.149       30.637     3305.597     2038.412      938.599        1.660        0.314      162.712       21.449        0.017      334.211        4.031      869.495
01/24/2014  01:01:00     -169.103       28.930      -17.981       60.445       41.975       27.320     3653.603     1761.927      746.369        1.796        0.308      171.560       21.356        0.015      334.129        3.896      869.524
01/24/2014  01:02:00     -161.753       52.127      -16.706       58.332       44.428       31.914     3402.570     1973.841     1018.532        1.778        0.320      169.945       29.851        0.031      334.190        3.999      869.532
01/24/2014  01:03:00     -176.102       65.222      -12.912       54.411       31.323       27.300     2960.550      981.149      745.309        2.006        0.234      187.792       18.065        0.009      334.338        4.243      869.531
01/24/2014  01:04:00     -158.538       37.265      -14.292       40.398       28.568       22.121     1631.968      816.139      489.325        1.483        0.147      162.859       14.312        0.008      334.196        4.008      869.539
01/24/2014  01:05:00     -102.969       18.388      -21.470       38.147       29.340       22.881     1455.209      860.838      523.539        0.712        0.142      104.597       15.709        0.023      334.147        3.928      869.551
01/24/2014  01:06:00      -89.348       19.313      -19.248       44.656       36.628       21.547     1994.148     1341.592      464.284        0.626        0.190       91.412       14.870        0.026      334.301        4.185      869.546
01/24/2014  01:07:00      -77.818        6.648      -19.196       29.255       28.712       22.345      855.859      824.407      499.314        0.432        0.109       78.101       14.923        0.037      334.188        3.997      869.542
01/24/2014  01:08:00      -93.053       18.332      -13.738       41.511       29.035       20.099     1723.184      843.006      403.981        0.608        0.149       94.842       20.695        0.048      334.266        4.124      869.524
01/24/2014  01:09:00      -88.432       14.010      -10.908       51.932       31.480       28.309     2696.925      990.991      801.387        0.631        0.224       89.535       25.863        0.083      334.216        4.042      869.524
01/24/2014  01:10:00     -115.367       27.153      -11.936       46.030       33.493       26.428     2118.716     1121.756      698.446        0.906        0.197      118.519       23.658        0.040      334.338        4.244      869.516
01/24/2014  01:11:00      -77.780       26.048      -12.375       38.771       31.187       23.891     1503.192      972.644      570.793        0.496        0.152       82.026       20.878        0.065      334.245        4.091      869.517
01/24/2014  01:12:00      -88.222       29.267      -12.139       39.028       30.291       20.029     1523.194      917.569      401.177        0.581        0.142       92.950       13.790        0.022      334.219        4.048      869.511
01/24/2014  01:13:00      -87.457       33.310      -19.578       37.639       26.202       19.523     1416.671      686.519      381.136        0.581        0.124       93.585       15.935        0.029      334.219        4.046      869.518
01/24/2014  01:14:00      -98.996        2.394      -19.349       33.419       26.059       19.005     1116.841      679.096      361.205        0.617        0.108       99.025       16.963        0.029      334.176        3.976      869.524
01/24/2014  01:15:00      -82.337       -6.825      -17.338       20.593       25.470       15.140      424.065      648.744      229.212        0.421        0.065       82.619        8.046        0.009      333.932        3.571      869.532
01/24/2014  01:16:00      -88.942       -5.994      -22.352       15.738       13.068       12.983      247.670      170.783      168.563        0.452        0.029       89.144        7.662        0.007      333.811        3.372      869.538
01/24/2014  01:17:00      -85.625        7.424      -14.596       14.330       15.708       11.698      205.362      246.746      136.837        0.409        0.029       85.946        5.848        0.005      333.871        3.472      869.543
01/24/2014  01:18:00      -60.647        6.895      -10.692       19.612       13.647       11.321      384.612      186.246      128.170        0.227        0.035       61.038        7.535        0.015      333.826        3.396      869.560
01/24/2014  01:19:00      -38.620       24.710       -9.716       26.907       18.618       13.299      723.988      346.640      176.851        0.172        0.062       45.848       14.730        0.103      334.080        3.816      869.576
01/24/2014  01:20:00      -48.982       57.403      -15.097       31.541       52.346       17.455      994.853     2740.144      304.686        0.498        0.202       75.460       20.432        0.073      334.453        4.437      869.589
01/24/2014  01:21:00      -34.941      109.963       -9.619       25.904       24.669       18.046      671.038      608.541      325.653        0.750        0.080      115.381       12.136        0.011      334.928        5.224      869.619
01/24/2014  01:22:00      -36.163      111.128      -13.901       23.663       25.595       15.598      559.957      655.087      243.310        0.765        0.073      116.864        8.717        0.006      335.013        5.366      869.626
01/24/2014  01:23:00      -20.429      151.673      -19.450       23.683       34.647       13.207      560.890     1200.404      174.434        1.287        0.097      153.043       13.242        0.007      335.052        5.433      869.636
01/24/2014  01:24:00      -36.866      166.970      -22.083       21.905       24.016       18.057      479.813      576.752      326.068        1.555        0.069      170.991       11.808        0.005      334.983        5.315      869.648
01/24/2014  01:25:00      -28.721      164.049      -24.323       24.972       23.627       14.155      623.595      558.233      200.365        1.486        0.069      166.544       10.103        0.004      335.030        5.394      869.642
01/24/2014  01:26:00      -33.142      133.123      -18.538       25.016       38.959       22.492      625.785     1517.811      505.911        1.091        0.132      137.187       20.599        0.023      335.154        5.598      869.635
01/24/2014  01:27:00      -32.674      101.811      -12.859       22.495       32.692       19.361      506.025     1068.758      374.830        0.677        0.097      106.925       14.931        0.019      335.048        5.425      869.642
01/24/2014  01:28:00      -21.334      115.390      -14.002       26.513       37.884       15.645      702.948     1435.204      244.779        0.817        0.119      117.345       15.828        0.018      335.088        5.490      869.630
01/24/2014  01:29:00       -6.228      149.933      -20.367       27.317       16.100       11.152      746.207      259.194      124.361        1.203        0.056      150.062        8.121        0.003      335.034        5.400      869.636
01/24/2014  01:30:00      -17.120      136.637      -19.927       13.311       14.959       12.101      177.179      223.764      146.423        0.995        0.027      137.706        8.054        0.003      334.991        5.329      869.653
01/24/2014  01:31:00      -17.874      135.657      -18.387       17.342       18.922       11.131      300.735      358.043      123.904        0.992        0.039      136.830        4.896        0.001      335.015        5.369      869.659
01/24/2014  01:32:00        2.699      137.903      -17.645       17.072       18.540        8.275      291.470      343.737       68.467        1.002        0.035      137.930        6.845        0.002      335.012        5.365      869.667
01/24/2014  01:33:00      -22.894      137.535      -18.034       14.129       17.212        8.296      199.621      296.263       68.826        1.016        0.028      139.427        3.716        0.001      335.075        5.469      869.661
01/24/2014  01:34:00      -20.115      148.286      -26.216       12.658       16.965        9.948      160.233      287.797       98.955        1.181        0.027      149.645        5.991        0.002      335.191        5.660      869.653
01/24/2014  01:35:00      -25.445      141.742      -29.421       19.506       20.513       14.690      380.467      420.798      215.797        1.131        0.051      144.008        7.799        0.003      335.287        5.820      869.652
01/24/2014  01:36:00      -24.697      110.532       -9.507       31.653       39.248       20.503     1001.890     1540.440      420.379        0.794        0.148      113.257       15.667        0.019      335.234        5.734      869.652
01/24/2014  01:37:00      -19.407       96.384       -9.213       24.505       22.895       17.340      600.512      524.176      300.662        0.559        0.071       98.319       10.922        0.012      335.131        5.562      869.657
01/24/2014  01:38:00       13.187      138.362      -18.765       19.162       16.908       11.852      367.193      285.865      140.467        1.023        0.040      138.989        8.868        0.004      335.052        5.429      869.664
01/24/2014  01:39:00       24.820      140.356      -26.510       17.601       18.119       13.833      309.785      328.291      191.349        1.092        0.041      142.534       11.185        0.006      334.955        5.269      869.665
01/24/2014  01:40:00       37.001      115.641      -20.744       23.089       40.281       22.238      533.086     1622.588      494.516        0.891        0.133      121.417       22.341        0.034      334.870        5.127      869.667
01/24/2014  01:41:00       36.457       92.033       -6.947       32.235       36.673       23.382     1039.076     1344.901      546.736        0.639        0.147       98.991       22.447        0.051      334.751        4.929      869.673
01/24/2014  01:42:00       16.367       93.331       -6.188       35.053       38.404       28.004     1228.709     1474.855      784.204        0.625        0.174       94.756       27.634        0.085      334.743        4.916      869.681
01/24/2014  01:43:00       38.497      127.223      -15.742       33.296       34.114       29.279     1108.652     1163.776      857.277        1.052        0.156      132.920       24.200        0.033      334.795        5.004      869.689
01/24/2014  01:44:00       30.326       88.870      -10.370       25.746       44.162       25.402      662.863     1950.255      645.259        0.609        0.163       93.902       23.340        0.062      334.690        4.829      869.703
01/24/2014  01:45:00       37.041       86.621      -10.848       30.600       47.149       23.571      936.336     2222.981      555.570        0.635        0.186       94.208       24.322        0.067      334.653        4.766      869.719
01/24/2014  01:46:00       24.650       68.327       -9.898       32.055       38.300       22.454     1027.546     1466.867      504.195        0.419        0.150       72.638       20.138        0.077      334.555        4.603      869.723
01/24/2014  01:47:00       29.583       66.479       -0.996       28.674       42.843       25.682      822.223     1835.505      659.568        0.431        0.166       72.764       22.808        0.098      334.559        4.611      869.726
01/24/2014  01:48:00       39.024       76.882       -5.146       36.546       49.384       37.925     1335.592     2438.777     1438.293        0.634        0.261       86.219       36.192        0.176      334.538        4.576      869.729
01/24/2014  01:49:00       48.936       64.187       -5.451       34.373       46.074       31.158     1181.525     2122.821      970.842        0.541        0.214       80.714       26.959        0.112      334.486        4.490      869.733
01/24/2014  01:50:00       47.481       47.493        0.339       32.138       35.408       25.798     1032.828     1253.725      665.512        0.373        0.148       67.157       20.026        0.089      334.436        4.408      869.737
01/24/2014  01:51:00       63.680       38.005        2.604       19.560       23.874       15.102      382.611      569.945      228.076        0.334        0.059       74.159       10.159        0.019      334.413        4.369      869.750
01/24/2014  01:52:00       69.399       32.022       10.216       27.023       22.530       19.121      730.239      507.581      365.596        0.377        0.080       76.431        9.373        0.015      334.380        4.316      869.756
01/24/2014  01:53:00      106.655       63.613       10.185       27.748       26.002       17.036      769.956      676.127      290.230        0.863        0.087      124.185       16.070        0.017      334.351        4.268      869.761
01/24/2014  01:54:00      128.136       75.206       -1.910       28.865       22.375       19.084      833.204      500.643      364.188        1.189        0.085      148.576       12.860        0.007      334.331        4.235      869.764
01/24/2014  01:55:00      135.771       72.908       -0.760       26.581       27.915       19.540      706.561      779.227      381.799        1.281        0.093      154.108       15.692        0.010      334.253        4.104      869.766
01/24/2014  01:56:00      100.992       77.836       19.108       46.315       31.729       25.364     2145.092     1006.759      643.341        1.021        0.190      127.506       21.418        0.028      334.282        4.152      869.770
01/24/2014  01:57:00      104.108       66.754       16.700       42.989       40.303       28.933     1848.035     1624.359      837.140        0.994        0.215      123.671       22.549        0.033      334.414        4.371      869.770
01/24/2014  01:58:00      110.334       74.219       11.792       40.018       32.539       29.279     1601.465     1058.767      857.237        1.067        0.176      132.974       23.158        0.030      334.664        4.786      869.765
01/24/2014  01:59:00      126.504       80.775       23.898       40.495       27.109       22.470     1639.872      734.919      504.922        1.299        0.144      150.093       18.220        0.015      334.638        4.742      869.769
01/24/2014  02:00:00      109.150       66.811       26.805       26.957       23.118       22.718      726.669      534.459      516.112        0.944        0.089      127.974       15.186        0.014      334.574        4.638      869.778
01/24/2014  02:01:00       95.179       36.028       18.170       28.663       22.038       23.302      821.568      485.682      543.002        0.627        0.093      101.770       18.865        0.034      334.367        4.293      869.796
01/24/2014  02:02:00       87.806       51.716       26.133       30.732       22.167       26.759      944.459      491.368      716.036        0.661        0.108      101.904       21.765        0.046      334.373        4.304      869.810
01/24/2014  02:03:00       93.573       49.709       19.886       37.629       24.011       21.354     1415.928      576.512      455.999        0.703        0.122      105.957       17.361        0.027      334.442        4.419      869.824
01/24/2014  02:04:00       94.096       63.714       25.985       22.660       17.060       17.531      513.481      291.033      307.338        0.735        0.056      113.638       10.633        0.009      334.450        4.431      869.829
01/24/2014  02:05:00      107.518       65.924       20.427       25.354       19.454       20.060      642.816      378.450      402.386        0.887        0.071      126.119       14.992        0.014      334.624        4.720      869.824
01/24/2014  02:06:00       83.682       48.856       17.822       20.997       22.224       18.211      440.858      493.924      331.625        0.549        0.063       96.900       10.799        0.012      334.490        4.496      869.825
01/24/2014  02:07:00      110.802       37.978       12.567       29.811       19.296       26.447      888.678      372.342      699.441        0.792        0.098      117.130       17.662        0.023      334.459        4.446      869.828
01/24/2014  02:08:00       92.834       45.492       32.742       34.933       26.301       30.759     1220.283      691.744      946.130        0.731        0.143      103.381       25.637        0.061      334.449        4.429      869.826
01/24/2014  02:09:00      114.041       51.467       21.836       29.394       26.871       28.924      864.036      722.057      836.590        0.928        0.121      125.117       16.097        0.017      334.377        4.310      869.830
01/24/2014  02:10:00       93.356       55.026       32.864       29.683       19.823       24.742      881.055      392.936      612.166        0.735        0.094      108.366       18.346        0.029      334.303        4.187      869.836
01/24/2014  02:11:00       93.913       45.304       26.915       30.136       22.822       25.748      908.155      520.849      662.945        0.684        0.105      104.269       20.200        0.038      334.316        4.208      869.826
01/24/2014  02:12:00       67.853       17.646       42.115       33.014       27.621       28.980     1089.917      762.916      839.839        0.469        0.135       70.110       16.982        0.059      334.297        4.176      869.813
01/24/2014  02:13:00       69.483       53.649       40.905       31.689       23.117       26.302     1004.180      534.376      691.818        0.580        0.112       87.785       18.648        0.045      334.222        4.053      869.794
01/24/2014  02:14:00       84.322       33.149       18.730       32.007       32.553       30.032     1024.478     1059.692      901.912        0.577        0.149       90.604       20.285        0.050      334.280        4.150      869.777
01/24/2014  02:15:00       90.377       47.595       59.977       37.986       34.828       33.723     1442.947     1213.001     1137.243        0.891        0.190      102.143       24.967        0.060      334.257        4.110      869.784
01/24/2014  02:16:00       44.506       70.158       73.015       38.204       29.814       22.716     1459.556      888.857      516.028        0.755        0.143       83.084       18.127        0.048      334.182        3.987      869.799
01/24/2014  02:17:00       58.427       61.148       72.270       49.722       41.269       35.085     2472.260     1703.159     1230.972        0.889        0.270       84.574       36.627        0.188      334.007        3.695      869.817
01/24/2014  02:18:00      101.900       26.318       41.679       45.655       44.664       34.833     2084.376     1994.896     1213.340        0.905        0.265      105.244       29.933        0.081      333.961        3.621      869.826
01/24/2014  02:19:00       83.900       59.883       44.456       51.661       40.119       37.592     2668.902     1609.508     1413.184        0.915        0.285      103.078       35.148        0.116      333.933        3.573      869.831
01/24/2014  02:20:00      112.307       66.398       48.898       62.716       38.462       41.301     3933.291     1479.335     1705.761        1.326        0.356      130.466       41.028        0.099      333.858        3.449      869.836
01/24/2014  02:21:00      110.101       82.724       68.352       52.930       42.180       44.340     2801.559     1779.150     1966.055        1.509        0.327      137.716       32.983        0.057      333.820        3.385      869.843
01/24/2014  02:22:00       79.732       95.847       83.586       57.851       37.140       35.241     3346.726     1379.414     1241.959        1.425        0.298      124.675       26.450        0.045      333.820        3.384      869.864
01/24/2014  02:23:00      111.687       88.776       67.306       47.430       43.332       35.494     2249.645     1877.659     1259.829        1.514        0.269      142.672       26.872        0.035      333.786        3.328      869.869
01/24/2014  02:24:00      139.848       51.348       31.954       57.157       42.535       40.786     3266.942     1809.212     1663.475        1.498        0.337      148.977       25.422        0.029      333.742        3.255      869.880
01/24/2014  02:25:00      153.415       99.605       61.711       67.943       47.490       44.020     4616.215     2255.303     1937.753        2.304        0.440      182.913       38.982        0.045      333.792        3.336      869.900
01/24/2014  02:26:00      156.245       60.025       25.093       72.310       55.483       35.316     5228.710     3078.337     1247.237        1.910        0.478      167.378       24.750        0.022      333.701        3.185      869.928
01/24/2014  02:27:00      137.160       48.842       17.007       68.128       38.491       32.743     4641.376     1481.594     1072.094        1.434        0.360      145.596       28.653        0.039      333.691        3.170      869.946
01/24/2014  02:28:00      115.842       48.895       21.670       60.003       41.807       34.244     3600.332     1747.839     1172.654        1.140        0.326      125.738        9.388        0.006      333.621        3.055      869.953
01/24/2014  02:29:00      123.130       18.966       11.164       62.914       54.233       42.440     3958.171     2941.240     1801.125        1.217        0.435      124.583       22.730        0.033      333.709        3.200      869.973
01/24/2014  02:30:00       68.125       42.548       19.962       41.201       31.284       30.272     1697.522      978.669      916.422        0.522        0.180       80.320        9.557        0.014      333.638        3.084      869.987
01/24/2014  02:31:00       69.893       39.096       37.360       31.290       27.622       24.257      979.095      762.982      588.417        0.507        0.117       80.085       18.577        0.054      333.561        2.956      869.983
01/24/2014  02:32:00       63.528       41.898       41.216       40.167       28.816       29.201     1613.403      830.351      852.709        0.539        0.165       76.100       25.090        0.109      333.629        3.068      869.986
01/24/2014  02:33:00       91.958       30.757       12.964       32.497       20.155       22.980     1056.025      406.211      528.102        0.578        0.100       96.965       16.302        0.028      333.549        2.935      870.008
01/24/2014  02:34:00      105.234       45.575        7.492       30.637       22.912       20.898      938.598      524.955      436.711        0.755        0.095      114.679       16.680        0.021      333.485        2.829      870.024
01/24/2014  02:35:00       96.859       51.515       25.985       31.828       21.722       25.538     1013.048      471.850      652.209        0.742        0.107      109.706       16.893        0.024      333.473        2.810      870.033
01/24/2014  02:36:00      104.507       43.455       16.985       28.973       23.535       19.078      839.418      553.888      363.971        0.743        0.088      113.181       14.016        0.015      333.494        2.844      870.039
01/24/2014  02:37:00       81.292       46.371       19.464       32.675       26.552       24.337     1067.670      705.032      592.268        0.575        0.118       93.588       21.554        0.053      333.487        2.833      870.046
01/24/2014  02:38:00       80.423       48.784       20.804       18.237       21.614       18.965      332.602      467.146      359.688        0.522        0.058       94.062        9.915        0.011      333.474        2.810      870.048
01/24/2014  02:39:00       63.618       33.412       35.091       27.139       20.702       23.582      736.513      428.576      556.124        0.406        0.086       71.858       16.560        0.053      333.475        2.812      870.043
01/24/2014  02:40:00       65.079       35.270       13.578       32.192       24.337       22.370     1036.321      592.274      500.430        0.390        0.106       74.022       20.256        0.075      333.546        2.931      870.042
01/24/2014  02:41:00       58.632       20.338       18.553       27.799       20.903       23.349      772.781      436.931      545.169        0.297        0.088       62.059       19.900        0.103      333.523        2.892      870.050
01/24/2014  02:42:00       84.478       42.001       24.176       25.654       17.394       20.815      658.149      302.543      433.251        0.544        0.070       94.343       13.850        0.022      333.543        2.926      870.045
01/24/2014  02:43:00       98.785       53.723       12.671       23.285       20.772       20.020      542.213      431.493      400.797        0.709        0.069      112.448       10.832        0.009      333.590        3.005      870.035
01/24/2014  02:44:00      101.314       59.596       26.370       33.547       22.462       24.089     1125.418      504.527      580.275        0.836        0.111      117.542       20.591        0.031      333.558        2.950      870.035
01/24/2014  02:45:00      129.365       79.039       31.694       28.967       22.673       24.795      839.099      514.083      614.807        1.298        0.098      151.600       18.265        0.015      333.578        2.984      870.047
01/24/2014  02:46:00      129.697       96.491       16.350       57.743       46.160       38.001     3334.201     2130.746     1444.084        1.665        0.345      161.654       28.408        0.031      333.655        3.109      870.055
01/24/2014  02:47:00      158.709       98.112       19.914       50.091       35.477       28.902     2509.094     1258.608      835.353        1.991        0.230      186.587       19.507        0.011      333.698        3.181      870.063
01/24/2014  02:48:00      109.475       61.071       23.671       36.339       29.610       32.947     1320.518      876.775     1085.490        0.978        0.164      125.357       16.781        0.018      333.597        3.016      870.058
01/24/2014  02:49:00      114.818       73.349        4.009       45.064       33.178       29.901     2030.799     1100.758      894.084        1.130        0.201      136.247       18.744        0.019      333.651        3.104      870.067
01/24/2014  02:50:00       91.643       50.045       13.730       31.988       21.621       21.908     1023.203      467.453      479.981        0.653        0.099      104.417       13.833        0.018      333.537        2.916      870.077
01/24/2014  02:51:00      107.763       63.602       36.122       33.892       31.135       26.880     1148.687      969.394      722.520        0.990        0.142      125.132       14.398        0.013      333.612        3.040      870.085
01/24/2014  02:52:00       59.592       43.158       15.990       26.813       17.841       18.658      718.913      318.292      348.111        0.353        0.069       73.579       13.226        0.032      333.498        2.849      870.085
01/24/2014  02:53:00       83.814       43.803       21.642       32.368       18.442       19.214     1047.713      340.101      369.166        0.558        0.088       94.570       16.381        0.030      333.526        2.897      870.075
01/24/2014  02:54:00       75.616       45.856       22.920       40.417       27.549       24.977     1633.544      758.975      623.826        0.568        0.151       88.434       20.305        0.053      333.534        2.911      870.068
01/24/2014  02:55:00      127.423       72.833       39.537       24.999       16.156       17.437      624.948      261.013      304.063        1.215        0.060      146.769        7.464        0.003      333.726        3.228      870.067
01/24/2014  02:56:00       92.396       31.342       11.266       42.193       26.770       20.751     1780.235      716.640      430.600        0.629        0.146       97.568       18.015        0.034      333.644        3.093      870.058
01/24/2014  02:57:00      104.526       55.900       11.172       39.029       38.211       24.017     1523.280     1460.082      576.832        0.887        0.178      118.535       18.265        0.024      333.735        3.245      870.048
01/24/2014  02:58:00       88.992       42.236       27.413       30.335       24.129       18.875      920.199      582.189      356.259        0.616        0.093       98.506        9.061        0.008      333.799        3.351      870.047
01/24/2014  02:59:00       82.959       33.706       21.722       31.539       26.292       26.116      994.698      691.284      682.051        0.543        0.118       89.545       17.904        0.040      333.693        3.174      870.048
01/24/2014  03:00:00       68.054       32.730       13.432       31.866       22.645       25.033     1015.425      512.798      626.640        0.402        0.108       75.515       19.086        0.064      333.684        3.158      870.052
01/24/2014  03:01:00       68.861        9.595        7.092       22.657       23.420       16.089      513.356      548.503      258.849        0.310        0.066       69.526        8.701        0.016      333.739        3.252      870.048
01/24/2014  03:02:00       48.381       22.015       -0.631       39.618       31.292       23.031     1569.558      979.160      530.414        0.295        0.154       53.155       16.221        0.093      333.763        3.292      870.038
01/24/2014  03:03:00       33.900       25.476        9.832       24.159       20.726       17.773      583.638      429.560      315.886        0.161        0.066       42.406        9.930        0.055      333.694        3.177      870.032
01/24/2014  03:04:00       37.011       33.145       13.508       15.497       16.073       13.497      240.159      258.327      182.165        0.167        0.034       49.683       11.041        0.049      333.744        3.260      870.043
01/24/2014  03:05:00       45.626       42.661        8.384       19.170       10.096       15.375      367.470      101.920      236.381        0.234        0.035       62.464        7.799        0.016      333.781        3.323      870.053
01/24/2014  03:06:00       19.770       28.699        3.702       19.439       13.339       12.055      377.888      177.930      145.333        0.096        0.035       34.849        5.847        0.028      333.764        3.292      870.063
01/24/2014  03:07:00       28.629       38.329       -4.215       27.458       13.262       13.547      753.925      175.875      183.527        0.171        0.056       47.841       10.047        0.044      333.747        3.264      870.059
01/24/2014  03:08:00       19.642       47.521       -6.310       24.504       26.350       14.063      600.465      694.344      197.776        0.209        0.075       51.421        9.872        0.037      333.712        3.207      870.055
01/24/2014  03:09:00       17.659       65.870      -11.506       23.432       26.954       17.755      549.072      726.516      315.232        0.319        0.080       68.196       16.848        0.061      333.769        3.302      870.044
01/24/2014  03:10:00      -46.073       29.805       -7.125       26.848       28.927       18.607      720.821      836.759      346.230        0.248        0.095       54.873       13.047        0.057      333.545        2.929      870.026
01/24/2014  03:11:00      -73.964       -8.109      -16.984       12.313       16.396       10.224      151.618      268.836      104.526        0.317        0.026       74.407        7.319        0.010      333.313        2.545      870.013
01/24/2014  03:12:00      -54.878      -26.842       -6.089       21.525        9.991       11.110      463.325       99.819      123.424        0.223        0.034       61.091        6.910        0.013      332.990        2.011      870.005
01/24/2014  03:13:00      -32.053        1.697       -3.633       11.069       10.136        8.938      122.520      102.745       79.883        0.067        0.015       32.098        5.243        0.027      333.451        2.775      869.998
01/24/2014  03:14:00      -71.815       -3.241      -12.353       18.536       11.878        9.866      343.591      141.084       97.338        0.295        0.029       71.888        6.065        0.007      333.044        2.102      869.978
01/24/2014  03:15:00      -42.713      -13.598       -3.792       17.933       11.783        8.819      321.576      138.834       77.777        0.128        0.027       44.826        5.871        0.017      332.877        1.827      869.976
01/24/2014  03:16:00      -82.724      -23.470      -10.449       15.931       17.758       13.250      253.792      315.345      175.556        0.412        0.037       85.989        5.186        0.004      333.110        2.210      869.959
01/24/2014  03:17:00      -82.830      -28.172       -7.966       25.131       26.500       14.130      631.589      702.267      199.655        0.463        0.077       87.490       12.082        0.019      332.868        1.810      869.955
01/24/2014  03:18:00     -117.564       -8.780      -16.677       34.481       21.070       16.794     1188.929      443.940      282.054        0.805        0.096      117.892       18.674        0.025      332.895        1.855      869.951
01/24/2014  03:19:00      -84.704      -21.480      -10.475       39.004       21.266       14.384     1521.343      452.232      206.910        0.496        0.109       87.385       13.758        0.025      332.902        1.867      869.945
01/24/2014  03:20:00      -60.876       14.560       -8.221       30.657       25.739       22.365      939.856      662.503      500.210        0.304        0.105       62.593       19.111        0.093      333.116        2.220      869.950
01/24/2014  03:21:00      -75.379      -27.629      -13.505       30.379       31.452       14.607      922.873      989.242      213.357        0.438        0.106       80.283        8.080        0.010      333.087        2.174      869.961
01/24/2014  03:22:00      -93.936       -6.796      -19.006       35.466       25.190       14.555     1257.820      634.533      211.839        0.567        0.105       94.181       13.911        0.022      333.013        2.051      869.975
01/24/2014  03:23:00      -94.212       13.278      -16.991       55.530       28.990       21.868     3083.618      840.423      478.207        0.687        0.220       95.143       19.802        0.043      333.438        2.754      869.988
01/24/2014  03:24:00      -69.712       25.726      -16.804       34.265       32.539       20.779     1174.085     1058.760      431.769        0.423        0.133       74.307       15.639        0.044      333.444        2.763      869.995
01/24/2014  03:25:00     -103.500       73.184      -21.484       30.520       40.110       23.097      931.485     1608.780      533.456        0.980        0.154      126.760       21.244        0.028      333.754        3.276      869.976
01/24/2014  03:26:00      -79.863       52.397      -12.161       38.625       42.282       24.021     1491.871     1787.787      576.999        0.656        0.193       95.517       25.669        0.072      333.499        2.853      869.969
01/24/2014  03:27:00      -64.954       12.300      -10.312       22.812       20.593       14.780      520.369      424.052      218.456        0.282        0.058       66.108       12.319        0.035      333.351        2.607      869.985
01/24/2014  03:28:00      -81.865       -3.404      -16.362       22.558       34.377       20.150      508.874     1181.783      406.014        0.454        0.105       81.936       15.595        0.036      333.215        2.383      869.977
01/24/2014  03:29:00      -11.506       53.229        0.865       36.975       66.721       31.528     1367.162     4451.721      994.027        0.489        0.341       54.459       29.643        0.296      333.486        2.834      869.973
01/24/2014  03:30:00      -20.391      153.136      -21.082       38.241       72.806       24.531     1462.337     5300.652      601.753        1.584        0.368      154.487       31.048        0.040      334.255        4.106      869.981
01/24/2014  03:31:00        6.153      166.983      -36.614       64.021       55.262       29.780     4098.646     3053.888      886.866        1.865        0.402      167.096       28.810        0.030      334.323        4.219      869.985
01/24/2014  03:32:00       35.969       99.936      -12.688       35.809       79.109       27.125     1282.304     6258.180      735.750        0.986        0.414      106.213       29.683        0.078      334.267        4.125      869.997
01/24/2014  03:33:00       10.457       60.396        8.088       26.085       35.973       28.001      680.435     1294.033      784.066        0.329        0.138       61.295       24.996        0.166      334.090        3.833      870.006
01/24/2014  03:34:00       21.946      111.243      -16.614       21.140       26.149       23.134      446.917      683.755      535.164        0.740        0.083      113.387       18.162        0.026      334.146        3.927      870.007
01/24/2014  03:35:00        1.882      107.250      -17.511       19.689       15.502       10.500      387.641      240.323      110.258        0.628        0.037      107.267        3.082        0.001      334.236        4.076      869.997
01/24/2014  03:36:00       -6.021      101.372      -11.546       21.836       24.427       15.841      476.830      596.667      250.929        0.588        0.066      101.550        6.049        0.004      334.276        4.142      869.987
01/24/2014  03:37:00      -22.673        3.616      -10.082       16.539       20.273       19.802      273.550      410.975      392.117        0.085        0.054       22.959       12.956        0.318      334.321        4.219      869.983
01/24/2014  03:38:00       68.881       36.738        8.055       29.993       26.911       21.117      899.590      724.221      445.935        0.411        0.103       78.066        9.575        0.015      334.393        4.336      869.971
01/24/2014  03:39:00       75.634       56.367       17.403       47.206       31.464       30.624     2228.403      989.954      937.832        0.668        0.208       94.328       17.910        0.036      334.121        3.884      869.967
01/24/2014  03:40:00      104.868       49.077       13.796       88.077       45.313       36.320     7757.611     2053.227     1319.169        1.236        0.557      115.784       23.762        0.042      334.125        3.890      869.961
01/24/2014  03:41:00       98.166       80.726       55.817       73.304       48.861       51.574     5373.502     2387.371     2659.839        1.484        0.521      127.096       49.116        0.149      334.158        3.945      869.957
01/24/2014  03:42:00      141.472       93.695       30.304       26.995       29.695       30.039      728.754      881.788      902.357        1.611        0.126      169.685       10.335        0.004      334.131        3.902      869.973
01/24/2014  03:43:00      114.722       55.850       18.595       41.229       28.597       22.363     1699.814      817.777      500.102        0.982        0.151      127.594       18.486        0.021      334.329        4.230      869.974
01/24/2014  03:44:00       86.423       56.737       21.193       30.735       22.705       25.412      944.654      515.510      645.773        0.662        0.105      103.383       16.537        0.026      334.077        3.813      869.978
01/24/2014  03:45:00       55.692       50.521       -0.595       39.108       32.632       25.143     1529.438     1064.867      632.159        0.444        0.161       75.193       20.043        0.071      333.886        3.494      869.986
01/24/2014  03:46:00       67.522       72.899       -6.573       38.756       44.257       25.967     1501.990     1958.658      674.263        0.702        0.207       99.365       25.605        0.066      334.059        3.781      869.983
01/24/2014  03:47:00       27.173       85.492        1.571       36.901       49.399       41.223     1361.714     2440.244     1699.353        0.677        0.275       89.707       36.023        0.161      333.935        3.576      869.973
01/24/2014  03:48:00       39.995       68.053        0.363       51.751       45.821       40.201     2678.121     2099.522     1616.109        0.631        0.320       78.935       31.889        0.163      333.983        3.657      869.966
01/24/2014  03:49:00       60.098       74.878       -4.833       40.205       41.676       30.909     1616.438     1736.854      955.358        0.677        0.215       96.013       21.393        0.050      333.956        3.612      869.973
01/24/2014  03:50:00      108.729       69.168       12.871       24.989       28.186       25.251      624.445      794.429      637.637        0.941        0.103      128.865       18.403        0.020      333.965        3.626      869.980
01/24/2014  03:51:00       64.738       64.388       -4.334       36.670       28.942       20.758     1344.692      837.621      430.880        0.548        0.131       91.307       17.360        0.036      333.845        3.427      869.980
01/24/2014  03:52:00      112.552       76.622       16.336       40.748       33.907       27.998     1660.389     1149.696      783.878        1.120        0.180      136.158       21.896        0.026      333.858        3.447      869.981
01/24/2014  03:53:00      111.941       77.541       18.358       36.507       29.779       31.340     1332.733      886.765      982.165        1.104        0.160      136.174       18.104        0.018      333.856        3.446      869.990
01/24/2014  03:54:00       67.346       67.027        5.209       35.793       30.947       32.846     1281.169      957.742     1078.852        0.619        0.166       95.016       21.771        0.053      333.857        3.447      869.986
01/24/2014  03:55:00       74.301       53.620        6.383       32.339       23.390       18.714     1045.784      547.079      350.198        0.519        0.097       91.628       15.018        0.027      333.919        3.550      870.000
01/24/2014  03:56:00       69.569       56.127        2.826       31.688       24.361       22.297     1004.102      593.452      497.142        0.505        0.105       89.387       17.112        0.037      333.898        3.515      870.000
01/24/2014  03:57:00       76.399       36.312       15.967       25.878       19.145       18.689      669.671      366.527      349.275        0.440        0.069       84.589       14.333        0.029      333.798        3.349      870.012
01/24/2014  03:58:00       93.658       59.488       18.350       32.809       22.527       16.733     1076.427      507.465      280.001        0.726        0.093      110.953        7.342        0.004      333.765        3.295      870.017
01/24/2014  03:59:00       90.100       58.760        2.639       30.036       26.808       21.120      902.188      718.664      446.064        0.682        0.103      107.567       14.811        0.019      333.751        3.270      870.020
01/24/2014  04:00:00      112.680       76.988       14.882       31.586       23.313       19.915      997.706      543.503      396.605        1.039        0.097      136.470       15.128        0.012      333.737        3.248      870.037
01/24/2014  04:01:00       96.547       55.686       19.192       25.204       18.256       23.361      635.226      333.272      545.718        0.715        0.076      111.455       15.211        0.019      333.752        3.272      870.050
01/24/2014  04:02:00      100.872       72.533       17.402       32.140       27.008       26.087     1032.960      729.446      680.520        0.909        0.122      124.243       20.022        0.026      333.709        3.202      870.070
01/24/2014  04:03:00      109.466       65.599       27.967       33.996       27.067       29.920     1155.737      732.633      895.188        0.993        0.139      127.617       21.303        0.028      333.730        3.236      870.093
01/24/2014  04:04:00      109.873       67.339       26.449       37.895       25.915       25.018     1436.023      671.579      625.905        1.002        0.137      128.867       19.524        0.023      333.847        3.430      870.099
01/24/2014  04:05:00       79.698       55.995       17.115       31.663       21.050       22.253     1002.574      443.109      495.215        0.586        0.097       97.402       15.825        0.026      333.767        3.299      870.098
01/24/2014  04:06:00       85.267       57.325       11.523       41.736       25.298       22.721     1741.863      640.005      516.241        0.679        0.145      102.745       15.647        0.023      333.730        3.237      870.082
01/24/2014  04:07:00      140.232       78.751       28.205       41.037       31.361       25.903     1684.057      983.484      670.947        1.500        0.167      160.831       15.506        0.009      333.752        3.274      870.111
01/24/2014  04:08:00      139.815       69.598       27.138       55.985       51.863       39.413     3134.316     2689.775     1553.386        1.625        0.369      156.179       29.732        0.036      333.694        3.176      870.137
01/24/2014  04:09:00      120.412       74.537       27.884       54.710       38.137       32.781     2993.215     1454.411     1074.565        1.318        0.276      141.615       22.524        0.025      333.606        3.031      870.139
01/24/2014  04:10:00      152.936       85.668       24.045       59.101       47.897       33.830     3492.887     2294.132     1144.450        1.912        0.347      175.295       24.305        0.019      333.549        2.936      870.147
01/24/2014  04:11:00      126.806       80.682       26.898       38.665       37.561       30.013     1494.963     1410.826      900.753        1.356        0.190      150.297       20.487        0.019      333.461        2.790      870.158
01/24/2014  04:12:00       97.697       61.062       11.754       31.372       28.316       28.071      984.194      801.770      787.971        0.799        0.129      115.210       19.575        0.029      333.404        2.697      870.176
01/24/2014  04:13:00       80.292       53.829       20.990       33.629       34.151       25.889     1130.891     1166.286      670.222        0.638        0.148       96.666       17.388        0.032      333.370        2.640      870.184
01/24/2014  04:14:00       83.518       51.626       13.033       27.723       27.799       21.662      768.584      772.769      469.251        0.591        0.101       98.186       11.086        0.013      333.440        2.755      870.193
01/24/2014  04:15:00      109.713       73.541        5.749       21.719       21.692       16.546      471.718      470.558      273.755        0.935        0.061      132.081       10.299        0.006      333.488        2.833      870.196
01/24/2014  04:16:00       90.245       60.558       18.562       20.149       19.521       22.679      405.973      381.071      514.328        0.673        0.065      108.680       15.953        0.022      333.452        2.775      870.199
01/24/2014  04:17:00       73.150       63.881       16.937       23.422       19.943       15.241      548.607      397.707      232.289        0.545        0.059       97.117        9.446        0.009      333.465        2.798      870.183
01/24/2014  04:18:00       97.701       62.533       16.723       18.947       15.535       17.669      359.006      241.344      312.183        0.732        0.046      116.000       11.093        0.009      333.514        2.879      870.188
01/24/2014  04:19:00       94.583       64.654       19.038       23.397       18.738       16.100      547.407      351.102      259.223        0.732        0.058      114.569       10.948        0.009      333.527        2.900      870.191
01/24/2014  04:20:00       92.738       63.027       20.850       27.681       13.935       23.249      766.240      194.187      540.500        0.725        0.075      112.128       16.734        0.022      333.693        3.176      870.184
01/24/2014  04:21:00       62.165       48.338        4.664       21.912       23.164       18.515      480.114      536.556      342.794        0.379        0.068       78.747       14.784        0.035      333.591        3.005      870.186
01/24/2014  04:22:00       56.731       47.082        2.636       27.204       20.747       18.593      740.062      430.419      345.697        0.348        0.076       73.723       12.486        0.029      333.568        2.967      870.202
01/24/2014  04:23:00       43.403       49.559        0.384       20.700       19.630       12.743      428.492      385.324      162.394        0.266        0.049       65.877       10.238        0.024      333.566        2.964      870.200
01/24/2014  04:24:00       31.847       77.644      -11.086       15.457       17.396        9.352      238.934      302.615       87.452        0.390        0.031       83.921        8.104        0.009      333.636        3.080      870.197
01/24/2014  04:25:00        5.483       95.786      -13.702       18.460       12.945        8.470      340.778      167.572       71.734        0.499        0.029       95.943        5.270        0.003      333.649        3.102      870.200
01/24/2014  04:26:00        7.870       89.067      -17.761       14.602       15.597        9.738      213.225      243.253       94.821        0.443        0.028       89.414        6.282        0.005      333.680        3.154      870.221
01/24/2014  04:27:00       -3.664       80.998      -11.329       18.810       29.236       11.053      353.831      854.772      122.178        0.402        0.067       81.080       13.455        0.028      333.731        3.238      870.241
01/24/2014  04:28:00      -20.106      -17.474        3.090       37.976       17.678       13.226     1442.156      312.504      174.926        0.132        0.096       26.638       18.864        0.502      333.357        2.619      870.248
01/24/2014  04:29:00      -83.059      -20.902      -15.060       11.498       12.304        7.406      132.214      151.388       54.845        0.395        0.017       85.649        2.000        0.001      332.684        1.508      870.254
01/24/2014  04:30:00      -71.286       -5.649      -15.003       20.851       11.939       11.879      434.758      142.545      141.111        0.303        0.036       71.509        8.700        0.015      332.643        1.440      870.266
01/24/2014  04:31:00      -70.164        6.597      -14.570       18.102       13.948       10.949      327.699      194.559      119.876        0.291        0.032       70.474        7.976        0.013      332.711        1.552      870.296
01/24/2014  04:32:00      -71.615       -9.960      -11.819       25.813       17.695       16.464      666.331      313.117      271.065        0.331        0.063       72.304       17.282        0.057      332.759        1.632      870.298
01/24/2014  04:33:00      -51.549        0.306       -8.738       26.860       20.870       16.306      721.463      435.564      265.870        0.208        0.071       51.550       13.459        0.068      332.895        1.857      870.316
01/24/2014  04:34:00      -76.778       15.620      -12.873       16.460       13.557       10.939      270.916      183.802      119.658        0.344        0.029       78.351        5.991        0.006      333.058        2.124      870.324
01/24/2014  04:35:00      -79.175       19.737      -11.560       14.636       16.409       13.950      214.201      269.266      194.595        0.373        0.034       81.598        4.060        0.002      333.129        2.241      870.319
01/24/2014  04:36:00      -57.798        1.444       -4.993       28.354       22.274       15.978      803.977      496.126      255.293        0.246        0.078       57.817       14.620        0.064      333.011        2.046      870.332
01/24/2014  04:37:00      -71.367       14.510      -12.290       33.865       25.105       17.609     1146.853      630.273      310.087        0.377        0.104       72.827       11.417        0.025      333.009        2.044      870.340
01/24/2014  04:38:00     -102.539       19.951       -9.036       25.376       24.825       16.924      643.941      616.290      286.425        0.627        0.077      104.462       12.384        0.014      333.141        2.260      870.346
01/24/2014  04:39:00      -95.948       31.061      -19.700       21.869       28.444       18.674      478.274      809.047      348.702        0.610        0.082      100.851       12.231        0.015      333.284        2.498      870.357
01/24/2014  04:40:00      -64.092       -2.260      -10.251       27.874       29.939       15.090      776.984      896.337      227.695        0.306        0.095       64.132       11.142        0.030      333.154        2.284      870.369
01/24/2014  04:41:00      -62.266       18.774       -6.907       17.379       32.260       18.701      302.015     1040.709      349.734        0.298        0.085       65.034       14.845        0.052      333.437        2.751      870.373
01/24/2014  04:42:00      -36.490       58.559      -14.328       21.938       39.276       18.327      481.284     1542.627      335.892        0.366        0.118       68.998       13.423        0.038      333.693        3.176      870.374
01/24/2014  04:43:00      -29.796      108.790       -8.906       33.142       36.834       20.026     1098.407     1356.772      401.047        0.783        0.143      112.797       17.215        0.023      333.748        3.265      870.374
01/24/2014  04:44:00      -37.342      105.385      -12.979       29.508       30.372       16.202      870.698      922.466      262.511        0.736        0.103      111.805       10.430        0.009      333.813        3.374      870.374
01/24/2014  04:45:00      -52.603       52.691      -14.911       22.004       38.010       16.190      484.166     1444.767      262.123        0.398        0.110       74.454       17.827        0.057      333.594        3.011      870.351
01/24/2014  04:46:00       -0.136       55.587       -8.039       38.601       46.940       14.901     1490.021     2203.383      222.049        0.353        0.196       55.587       16.783        0.091      333.577        2.983      870.352
01/24/2014  04:47:00      -23.734      119.404      -11.808       28.106       43.096       18.015      789.947     1857.294      324.549        0.897        0.149      121.740       13.351        0.012      333.697        3.182      870.362
01/24/2014  04:48:00       -4.164      112.724      -16.619       19.324       23.321       11.817      373.434      543.863      139.635        0.703        0.053      112.801       10.984        0.009      333.676        3.147      870.366
01/24/2014  04:49:00       -4.365       87.007       -5.342       24.440       35.777       12.702      597.335     1280.000      161.329        0.483        0.102       87.117       13.370        0.024      333.735        3.243      870.373
01/24/2014  04:50:00       -8.499       86.303       -8.890       23.061       57.593       15.278      531.788     3316.922      233.416        0.584        0.204       86.720       22.443        0.067      333.700        3.186      870.379
01/24/2014  04:51:00        7.273      167.829      -27.824       31.201       27.117       13.696      973.527      735.339      187.569        1.544        0.095      167.986       14.066        0.007      333.571        2.973      870.382
01/24/2014  04:52:00      -18.545      177.414      -24.791       18.183       19.562       10.704      330.604      382.662      114.566        1.663        0.041      178.380        7.911        0.002      333.715        3.211      870.395
01/24/2014  04:53:00       -2.626      185.323      -29.366       20.815       20.030       12.225      433.278      401.203      149.449        1.810        0.049      185.342        8.515        0.002      333.539        2.919      870.402
01/24/2014  04:54:00       -9.298      188.472      -26.862       24.317       23.352       12.465      591.301      545.336      155.383        1.881        0.065      188.701       10.495        0.003      333.663        3.126      870.397
01/24/2014  04:55:00       29.430      151.264      -24.999       25.830       37.477       17.436      667.189     1404.520      304.005        1.337        0.119      154.101       18.979        0.015      333.607        3.032      870.422
01/24/2014  04:56:00       16.441      164.326      -22.826       33.304       37.960       18.907     1109.162     1440.975      357.457        1.535        0.145      165.146       15.045        0.008      333.603        3.025      870.429
01/24/2014  04:57:00      -26.474      177.549      -22.151       27.800       24.874       14.708      772.858      618.736      216.318        1.716        0.080      179.512        9.087        0.003      333.617        3.048      870.430
01/24/2014  04:58:00       12.061      153.060      -23.933       40.136       32.592       21.924     1610.897     1062.217      480.680        1.365        0.158      153.535       19.804        0.017      333.663        3.126      870.445
01/24/2014  04:59:00       23.387      184.999      -32.675       34.583       36.183       18.888     1195.955     1309.215      356.748        1.935        0.143      186.471       17.675        0.009      333.648        3.100      870.449
01/24/2014  05:00:00        3.934      165.586      -22.440       28.417       24.362       12.841      807.528      593.529      164.903        1.475        0.078      165.633       11.353        0.005      333.639        3.086      870.444
01/24/2014  05:01:00       -0.385      159.839      -19.945       19.739       21.331       13.497      389.638      455.032      182.179        1.349        0.051      159.840       10.924        0.005      333.595        3.013      870.447
01/24/2014  05:02:00      -11.650      153.095      -19.300       31.633       23.641       15.022     1000.642      558.899      225.657        1.287        0.089      153.538       12.167        0.006      333.725        3.229      870.445
01/24/2014  05:03:00       -8.804      145.693      -19.184       23.373       32.807       19.632      546.307     1076.298      385.397        1.184        0.100      145.959       14.266        0.010      333.638        3.084      870.463
01/24/2014  05:04:00        5.434      145.804      -18.420       21.001       27.009       16.133      441.046      729.461      260.286        1.153        0.072      145.905       14.274        0.010      333.632        3.075      870.486
01/24/2014  05:05:00       -0.954      150.012      -21.313       30.519       23.119       14.015      931.428      534.498      196.413        1.231        0.083      150.015       14.391        0.009      333.708        3.200      870.510
01/24/2014  05:06:00      -18.459      141.461      -26.027       26.597       23.833       14.334      707.413      568.023      205.467        1.125        0.074      142.660       11.741        0.007      333.761        3.288      870.517
01/24/2014  05:07:00      -15.300      169.841      -28.676       25.467       27.716       14.329      648.551      768.187      205.329        1.576        0.081      170.529       11.029        0.004      333.689        3.170      870.506
01/24/2014  05:08:00        5.042      154.215      -22.465       20.433       24.882       14.430      417.508      619.106      208.222        1.278        0.062      154.297       13.507        0.008      333.671        3.140      870.497
01/24/2014  05:09:00        7.694      152.600      -19.908       24.213       26.381       14.896      586.293      695.940      221.898        1.262        0.075      152.794       11.607        0.006      333.729        3.234      870.496
01/24/2014  05:10:00        4.077      174.792      -25.110       44.762       31.386       14.691     2003.622      985.097      215.821        1.720        0.160      174.840       12.612        0.005      333.704        3.193      870.493
01/24/2014  05:11:00       21.172      171.021      -17.251       31.357       33.839       20.762      983.268     1145.078      431.078        1.628        0.128      172.326       21.211        0.015      333.649        3.101      870.506
01/24/2014  05:12:00       43.131      184.082      -29.505       28.440       29.603       21.219      808.836      876.358      450.229        1.938        0.107      189.067       15.893        0.007      333.645        3.094      870.520
01/24/2014  05:13:00       30.728      184.674      -25.763       32.123       30.887       24.147     1031.882      954.032      583.092        1.914        0.128      187.213       20.019        0.011      333.529        2.903      870.536
01/24/2014  05:14:00       35.219      184.256      -22.112       31.755       38.266       29.947     1008.374     1464.265      896.814        1.952        0.168      187.592       23.526        0.016      333.547        2.932      870.535
01/24/2014  05:15:00       39.279      105.849       -6.586       49.347       60.448       38.399     2435.172     3653.940     1474.517        1.018        0.378      112.902       38.954        0.119      333.550        2.937      870.536
01/24/2014  05:16:00       38.932       97.344       -3.819       37.399       51.797       36.278     1398.656     2682.927     1316.106        0.820        0.270      104.840       35.428        0.114      333.497        2.850      870.539
01/24/2014  05:17:00       44.778       68.628       -6.685       30.590       47.702       24.356      935.734     2275.481      593.217        0.528        0.190       81.944       20.705        0.064      333.462        2.793      870.532
01/24/2014  05:18:00       78.433       69.673        2.064       30.901       29.509       24.671      954.900      870.795      608.670        0.672        0.122      104.910       19.942        0.036      333.506        2.865      870.531
01/24/2014  05:19:00       77.804       64.868        2.975       50.958       38.184       28.427     2596.686     1458.042      808.073        0.757        0.243      101.298       21.245        0.044      333.502        2.857      870.539
01/24/2014  05:20:00       37.431       65.096       -3.006       37.913       28.838       27.513     1437.389      831.616      756.957        0.434        0.151       75.090       17.622        0.055      333.461        2.790      870.543
01/24/2014  05:21:00       55.668       86.053       -2.320       44.147       51.020       37.308     1948.983     2603.064     1391.860        0.823        0.297      102.489       28.358        0.077      333.569        2.968      870.549
01/24/2014  05:22:00       67.642       80.090       -0.941       48.938       46.404       40.779     2394.947     2153.327     1662.909        0.860        0.311      104.832       34.561        0.109      333.554        2.944      870.553
01/24/2014  05:23:00      107.929       85.189        6.942       52.152       37.729       32.422     2719.799     1423.454     1051.204        1.207        0.260      137.499       22.939        0.028      333.587        3.000      870.569
01/24/2014  05:24:00      123.258       88.535       11.999       39.817       32.508       35.519     1585.426     1056.759     1261.565        1.354        0.195      151.760       23.172        0.023      333.572        2.974      870.578
01/24/2014  05:25:00      120.776       68.077       21.077       36.677       34.019       24.516     1345.211     1157.279      601.046        1.138        0.155      138.641       11.395        0.007      333.444        2.761      870.587
01/24/2014  05:26:00      138.840       88.005       31.056       35.233       28.386       35.239     1241.398      805.766     1241.789        1.564        0.164      164.382       14.481        0.008      333.542        2.925      870.588
01/24/2014  05:27:00      152.018      107.706       42.491       40.012       28.553       26.541     1600.968      815.257      704.421        1.982        0.156      186.306       17.861        0.009      333.596        3.013      870.575
01/24/2014  05:28:00      155.892       99.178       29.685       34.561       30.837       30.730     1194.493      950.929      944.304        1.905        0.154      184.766       17.567        0.009      333.579        2.985      870.572
01/24/2014  05:29:00      148.382      105.023       25.349       57.741       39.475       38.783     3333.985     1558.285     1504.125        2.004        0.320      181.789       18.743        0.011      333.565        2.961      870.570
01/24/2014  05:30:00      115.551       63.415       39.097       45.911       31.626       32.975     2107.782     1000.209     1087.320        1.155        0.210      131.808       27.412        0.043      333.427        2.734      870.575
01/24/2014  05:31:00      140.289       88.313       29.410       39.704       39.345       37.003     1576.375     1548.012     1369.255        1.642        0.225      165.772       24.150        0.021      333.445        2.763      870.583
01/24/2014  05:32:00      141.999       99.569       28.572       57.019       39.358       33.708     3251.139     1549.018     1136.207        1.841        0.297      173.429       29.254        0.028      333.506        2.864      870.591
01/24/2014  05:33:00      113.968       88.088       39.952       57.539       40.650       38.510     3310.722     1652.405     1482.993        1.439        0.322      144.042       30.292        0.044      333.497        2.850      870.597
01/24/2014  05:34:00      156.959       81.463       33.867       60.877       56.197       49.074     3705.988     3158.093     2408.210        2.084        0.464      176.840       33.173        0.035      333.565        2.961      870.602
01/24/2014  05:35:00      138.320       57.356       23.263       67.626       55.805       41.315     4573.297     3114.235     1706.968        1.618        0.470      149.740       26.476        0.031      333.513        2.874      870.613
01/24/2014  05:36:00      132.837       58.505       38.676       52.749       30.892       41.131     2782.474      954.308     1691.725        1.400        0.271      145.150       36.109        0.062      333.436        2.749      870.622
01/24/2014  05:37:00      153.225       60.468       14.787       59.131       45.509       33.406     3496.521     2071.070     1115.937        1.702        0.334      164.724       30.584        0.034      333.520        2.887      870.630
01/24/2014  05:38:00      148.757       84.116       22.928       47.326       34.956       32.654     2239.747     1221.957     1066.291        1.713        0.226      170.892       23.214        0.018      333.495        2.847      870.636
01/24/2014  05:39:00      153.376       95.727       37.006       46.959       28.617       29.928     2205.110      818.958      895.693        1.899        0.196      180.798       18.569        0.011      333.484        2.828      870.646
01/24/2014  05:40:00      148.364      109.829       36.900       47.286       39.651       33.320     2236.001     1572.182     1110.191        2.018        0.246      184.592       24.259        0.017      333.454        2.776      870.662
01/24/2014  05:41:00      134.849      100.179       30.833       56.115       45.317       36.096     3148.936     2053.602     1302.894        1.784        0.325      167.988       34.044        0.041      333.427        2.733      870.667
01/24/2014  05:42:00      139.070       93.369       24.391       40.321       30.762       25.558     1625.787      946.317      653.229        1.594        0.161      167.506       20.439        0.015      333.482        2.823      870.667
01/24/2014  05:43:00      152.429      105.904       27.168       30.115       24.302       25.694      906.885      590.565      660.195        1.867        0.108      185.608       18.159        0.010      333.445        2.763      870.660
01/24/2014  05:44:00      139.869       90.352       24.054       33.678       31.337       30.456     1134.195      981.993      927.587        1.567        0.152      166.514        8.728        0.003      333.480        2.821      870.653
01/24/2014  05:45:00      121.052       85.384       26.191       38.478       29.837       24.527     1480.518      890.245      601.574        1.280        0.149      148.135       20.055        0.018      333.420        2.723      870.640
01/24/2014  05:46:00      138.779       79.005       23.862       36.077       34.098       32.008     1301.517     1162.688     1024.541        1.478        0.174      159.692       25.465        0.025      333.427        2.735      870.629
01/24/2014  05:47:00      131.361       96.461       32.279       45.453       35.120       29.094     2065.984     1233.380      846.485        1.587        0.207      162.974        9.919        0.004      333.355        2.614      870.621
01/24/2014  05:48:00      195.926      123.264       36.107       44.457       39.063       31.411     1976.464     1525.946      986.633        2.969        0.224      231.476       17.239        0.006      333.506        2.860      870.613
01/24/2014  05:49:00      168.002      119.394       36.395       49.592       38.817       37.787     2459.407     1506.739     1427.841        2.460        0.270      206.106       26.604        0.017      333.397        2.683      870.608
01/24/2014  05:50:00      174.890      117.288       52.266       46.109       30.166       30.552     2125.998      909.964      933.397        2.552        0.198      210.578       17.284        0.007      333.509        2.866      870.615
01/24/2014  05:51:00      163.562      117.869       34.816       54.122       51.673       41.571     2929.181     2670.099     1728.149        2.459        0.366      201.608       29.695        0.022      333.558        2.948      870.620
01/24/2014  05:52:00      172.753      105.640       43.694       58.120       40.364       35.668     3377.992     1629.240     1272.197        2.459        0.314      202.493       14.310        0.005      333.654        3.108      870.617
01/24/2014  05:53:00      184.905      109.155       32.987       58.968       39.173       38.515     3477.241     1534.499     1483.378        2.684        0.325      214.720       30.050        0.020      333.528        2.900      870.616
01/24/2014  05:54:00      198.161      130.712       33.018       50.350       41.304       42.203     2535.169     1706.049     1781.054        3.173        0.301      237.389       25.227        0.011      333.560        2.949      870.616
01/24/2014  05:55:00      219.753      147.043       37.350       48.501       32.547       33.554     2352.335     1059.288     1125.865        3.792        0.227      264.410       23.151        0.008      333.662        3.117      870.594
01/24/2014  05:56:00      170.265      111.555       47.991       57.937       35.125       45.329     3356.730     1233.781     2054.677        2.519        0.332      203.555       31.163        0.023      333.565        2.958      870.604
01/24/2014  05:57:00      137.845       89.117       38.099       48.178       34.729       32.468     2321.100     1206.070     1054.178        1.649        0.229      164.143       22.721        0.019      333.420        2.722      870.627
01/24/2014  05:58:00      150.990       87.550       28.083       71.359       53.882       50.457     5092.112     2903.314     2545.921        2.089        0.527      174.536       39.540        0.051      333.486        2.830      870.658
01/24/2014  05:59:00      147.466      118.770       26.684       67.310       43.227       40.689     4530.610     1868.608     1655.633        2.231        0.403      189.348       33.243        0.031      333.534        2.910      870.655
01/24/2014  06:00:00      168.566      117.983       34.253       46.838       36.048       33.804     2193.788     1299.467     1142.736        2.407        0.232      205.754       27.685        0.018      333.516        2.878      870.667
01/24/2014  06:01:00      198.373      130.156       40.577       53.240       37.525       38.624     2834.510     1408.089     1491.809        3.184        0.287      237.260       16.936        0.005      333.578        2.981      870.668
01/24/2014  06:02:00      166.087      126.777       23.371       70.780       39.942       40.684     5009.875     1595.328     1655.178        2.623        0.413      208.943       30.822        0.022      333.584        2.992      870.674
01/24/2014  06:03:00      158.314      113.969       28.403       48.916       39.788       37.690     2392.792     1583.055     1420.503        2.213        0.270      195.070       22.708        0.014      333.582        2.989      870.680
01/24/2014  06:04:00      160.559      110.036       31.977       55.284       40.930       43.851     3056.325     1675.251     1922.928        2.278        0.333      194.646       28.452        0.021      333.651        3.103      870.693
01/24/2014  06:05:00      233.233      148.786       36.370       53.112       42.372       47.565     2820.925     1795.353     2262.406        4.237        0.344      276.650       30.689        0.012      333.800        3.346      870.696
01/24/2014  06:06:00      151.449      100.010       29.692       63.551       45.923       39.203     4038.690     2108.894     1536.897        2.075        0.384      181.490       32.345        0.032      333.618        3.047      870.715
01/24/2014  06:07:00      151.983      103.325       50.838       68.255       49.489       39.892     4658.729     2449.137     1591.336        2.253        0.435      183.779       23.660        0.017      333.626        3.060      870.724
01/24/2014  06:08:00      163.998       88.836       30.382       56.052       42.946       39.971     3141.791     1844.317     1597.645        2.115        0.329      186.514       28.097        0.023      333.589        2.999      870.733
01/24/2014  06:09:00      141.472       97.153       36.358       46.010       36.204       30.008     2116.930     1310.723      900.451        1.755        0.216      171.619       20.585        0.014      333.580        2.987      870.747
01/24/2014  06:10:00       91.661       82.327       32.849       52.909       41.208       39.968     2799.317     1698.124     1597.424        1.118        0.305      123.205       25.592        0.043      333.539        2.919      870.748
01/24/2014  06:11:00      156.182      110.519       13.579       62.532       57.949       37.501     3910.281     3358.141     1406.295        2.273        0.434      191.330       27.489        0.021      333.644        3.091      870.747
01/24/2014  06:12:00      149.206       97.089       25.302       52.833       47.588       36.241     2791.279     2264.656     1313.387        1.935        0.318      178.014       21.788        0.015      333.685        3.159      870.758
01/24/2014  06:13:00      137.038       84.613       23.826       41.215       34.650       30.334     1698.673     1200.609      920.145        1.516        0.191      161.055        8.958        0.003      333.661        3.120      870.778
01/24/2014  06:14:00      105.919       76.116       15.417       51.522       41.719       35.671     2654.532     1740.484     1272.408        1.146        0.283      130.432       23.999        0.034      333.711        3.205      870.804
01/24/2014  06:15:00       80.612       46.377        5.483       36.990       26.763       27.192     1368.255      716.246      739.391        0.575        0.141       93.000       20.100        0.047      333.676        3.147      870.840
01/24/2014  06:16:00       16.543      -54.788       -2.086       23.738       18.078       16.701      563.510      326.799      278.940        0.222        0.058       57.231        5.789        0.010      333.733        3.242      870.873
01/24/2014  06:17:00       13.237      -37.917       -3.129       18.400       17.634       17.433      338.544      310.960      303.893        0.129        0.048       40.161       14.827        0.136      333.775        3.310      870.892
01/24/2014  06:18:00      -28.977      -60.809       -6.892       36.583       33.830       17.539     1338.341     1144.476      307.615        0.369        0.140       67.360       15.638        0.054      333.763        3.291      870.924
01/24/2014  06:19:00      -49.820      -50.960       15.129       42.648       44.854       31.419     1818.857     2011.876      987.126        0.506        0.241       71.267       20.014        0.079      333.468        2.802      870.948
01/24/2014  06:20:00      -30.356      -36.919       18.486       57.046       42.045       29.292     3254.273     1767.797      858.035        0.425        0.294       47.796       33.172        0.482      333.373        2.644      870.968
01/24/2014  06:21:00      -31.632      -40.748        2.064       32.038       33.120       25.285     1026.428     1096.919      639.315        0.271        0.138       51.585       18.040        0.122      333.402        2.693      870.992
01/24/2014  06:22:00      -46.252      -14.322        3.176       45.051       27.294       25.844     2029.596      744.947      667.922        0.290        0.172       48.418       18.863        0.152      333.297        2.520      870.986
01/24/2014  06:23:00      -33.955      -34.740        2.645       39.422       32.070       19.174     1554.124     1028.455      367.627        0.266        0.148       48.578       19.893        0.168      333.298        2.521      870.980
01/24/2014  06:24:00      -31.061      -46.366        2.532       46.049       24.867       25.720     2120.490      618.371      661.526        0.326        0.170       55.808        4.743        0.007      333.376        2.651      870.987
01/24/2014  06:25:00      -35.886      -36.700        3.355       50.514       34.667       18.864     2551.705     1201.804      355.853        0.338        0.205       51.329       19.814        0.149      333.346        2.601      870.989
01/24/2014  06:26:00      -65.187      -36.846        2.988       33.044       30.829       20.707     1091.912      950.448      428.791        0.404        0.124       74.880       13.850        0.034      333.360        2.624      870.985
01/24/2014  06:27:00      -39.961      -24.816        0.727       21.006       21.708       13.483      441.261      471.236      181.803        0.165        0.055       47.039       10.494        0.050      333.369        2.638      870.974
01/24/2014  06:28:00      -41.352      -20.073        3.743       17.751       17.142       12.446      315.106      293.849      154.902        0.145        0.038       45.966       10.951        0.057      333.339        2.589      870.983
01/24/2014  06:29:00      -35.052      -35.052        3.585       36.544       19.872       17.038     1335.446      394.891      290.293        0.224        0.101       49.571       18.029        0.132      333.304        2.531      870.991
01/24/2014  06:30:00       -6.036      -14.395        5.103       21.846       11.850       12.109      477.258      140.423      146.627        0.052        0.038       15.609       14.211        0.829      333.288        2.505      870.986
01/24/2014  06:31:00      -46.075       -2.634      -10.216       12.683        6.275        5.774      160.867       39.376       33.338        0.123        0.012       46.150        4.000        0.008      333.481        2.824      870.978
01/24/2014  06:32:00      -48.974        0.923      -13.371       15.036       12.471       12.558      226.090      155.534      157.714        0.156        0.027       48.983        8.967        0.034      333.700        3.186      870.971
01/24/2014  06:33:00       13.521       -0.650        5.312       16.647       21.953       16.343      277.123      481.913      267.090        0.062        0.051       13.537       17.636        1.697      333.650        3.103      870.971
01/24/2014  06:34:00       67.531       43.373       17.425       15.877       16.571       13.244      252.075      274.588      175.404        0.372        0.035       80.260        7.683        0.009      333.636        3.080      870.984
01/24/2014  06:35:00       70.840       28.516        0.668       20.226       19.737       12.580      409.075      389.557      158.267        0.339        0.048       76.364        9.268        0.015      333.464        2.794      870.993
01/24/2014  06:36:00       54.521       20.416       15.477       26.858       23.324       20.117      721.334      543.991      404.700        0.265        0.084       58.218       15.749        0.073      333.506        2.864      871.008
01/24/2014  06:37:00       49.884       36.084       21.626       20.152       11.100       11.944      406.102      123.214      142.657        0.246        0.034       61.567        7.063        0.013      333.501        2.857      871.017
01/24/2014  06:38:00       55.137       39.257        3.839       15.018       11.311       11.181      225.546      127.929      125.026        0.254        0.024       67.684        4.074        0.004      333.545        2.930      871.008
01/24/2014  06:39:00       18.649       16.907       -1.508       12.916       19.380        9.809      166.835      375.588       96.213        0.064        0.032       25.172        7.766        0.095      333.321        2.558      871.003
01/24/2014  06:40:00       26.895       -0.465       -3.351       15.282        6.861        6.727      233.535       47.068       45.247        0.053        0.016       26.899        3.814        0.020      333.468        2.802      871.018
01/24/2014  06:41:00        8.337      -14.116        1.235       14.958       10.380        9.784      223.729      107.741       95.723        0.035        0.021       16.394        2.446        0.022      333.529        2.903      871.040
01/24/2014  06:42:00       -8.026      -31.994       -5.207       10.534        9.547        6.357      110.961       91.146       40.416        0.068        0.012       32.985        4.609        0.020      333.455        2.782      871.052
01/24/2014  06:43:00      -23.755      -46.451       -0.488       20.393       21.642       11.756      415.865      468.370      138.205        0.187        0.051       52.172       14.934        0.082      333.318        2.554      871.080
01/24/2014  06:44:00      -57.589      -50.275       -4.723       22.681       19.729       14.615      514.434      389.214      213.592        0.349        0.056       76.447        6.965        0.008      333.203        2.364      871.080
01/24/2014  06:45:00      -95.875      -42.139       -3.476       15.684       12.051       10.517      245.982      145.218      110.617        0.574        0.025      104.727        6.893        0.004      333.109        2.207      871.059
01/24/2014  06:46:00      -46.091      -25.197       -0.870       26.038       14.865       11.507      677.983      220.960      132.406        0.190        0.052       52.529       12.130        0.053      333.038        2.091      871.067
01/24/2014  06:47:00      -30.870      -16.358       -6.619        7.327        5.230        4.137       53.684       27.350       17.113        0.068        0.005       34.936        2.127        0.004      333.123        2.231      871.087
01/24/2014  06:48:00      -49.886       -3.061       -6.815        5.153        7.202        5.094       26.554       51.866       25.944        0.132        0.005       49.980        3.717        0.006      333.525        2.896      871.079
01/24/2014  06:49:00      -17.563       -1.532       -5.362       16.392        5.951        5.880      268.686       35.412       34.571        0.034        0.017       17.629        6.570        0.139      333.489        2.838      871.062
01/24/2014  06:50:00      -53.196       12.779       -5.103        8.506        8.431        7.844       72.346       71.074       61.525        0.161        0.010       54.709        5.123        0.009      333.230        2.407      871.055
01/24/2014  06:51:00      -58.968       48.454       -1.268       20.475       27.852       19.973      419.211      775.712      398.922        0.371        0.080       76.322       15.178        0.040      333.477        2.816      871.042
01/24/2014  06:52:00      -55.785       38.539       -8.509       17.836       18.109       17.101      318.109      327.952      292.444        0.280        0.047       67.803       13.693        0.041      333.542        2.925      871.050
01/24/2014  06:53:00      -75.802       -2.440       -7.380       16.599       24.109       14.946      275.514      581.237      223.369        0.344        0.054       75.841        5.194        0.005      333.095        2.186      871.037
01/24/2014  06:54:00      -80.136      -24.030       -9.862       20.282       24.914       14.657      411.349      620.712      214.836        0.417        0.062       83.661       14.040        0.028      332.649        1.447      871.024
01/24/2014  06:55:00      -53.160      -11.919      -11.098       15.456       12.703        9.916      238.876      161.358       98.322        0.179        0.025       54.479        7.458        0.019      332.874        1.821      871.022
01/24/2014  06:56:00      -44.451       -3.381      -13.233       13.477        9.567        7.989      181.628       91.536       63.827        0.125        0.017       44.579        6.604        0.022      333.085        2.170      871.013
01/24/2014  06:57:00      -32.726        7.707       -5.309       13.444       10.075       10.046      180.735      101.496      100.925        0.077        0.019       33.621        8.888        0.070      333.067        2.139      871.009
01/24/2014  06:58:00      -43.315        8.768       -8.948       14.769       17.321        9.512      218.123      300.032       90.478        0.132        0.030       44.193        7.123        0.026      332.946        1.941      871.011
01/24/2014  06:59:00      -23.774      -15.796       -7.697        9.004       14.805        5.023       81.067      219.191       25.228        0.060        0.016       28.543        2.755        0.009      332.924        1.904      871.011
01/24/2014  07:00:00      -53.693      -12.419       -7.102       11.072       10.231        9.011      122.593      104.673       81.196        0.170        0.015       55.110        5.824        0.011      332.688        1.513      871.003
01/24/2014  07:01:00      -49.002      -20.130      -12.418        9.046        9.072        6.521       81.830       82.304       42.519        0.158        0.010       52.975        5.230        0.010      332.391        1.024      871.004
01/24/2014  07:02:00      -41.219      -31.022      -15.860       15.841       14.519        7.117      250.938      210.788       50.653        0.171        0.026       51.588        4.932        0.009      332.548        1.281      871.022
01/24/2014  07:03:00      -46.723      -22.626       -8.612       12.432       17.299        7.097      154.553      299.247       50.373        0.164        0.025       51.913        4.169        0.006      332.923        1.903      871.025
01/24/2014  07:04:00      -43.383      -40.564       -2.288       20.247       12.644       20.690      409.944      159.878      428.068        0.227        0.050       59.393       16.067        0.073      332.454        1.127      871.038
01/24/2014  07:05:00      -59.877      -34.626      -16.127       11.696       14.081        8.874      136.793      198.261       78.739        0.273        0.021       69.168        6.057        0.008      332.536        1.260      871.056
01/24/2014  07:06:00      -48.560      -29.313       -8.748       20.194       21.803       13.487      407.779      475.391      181.888        0.218        0.053       56.722        2.837        0.003      332.429        1.086      871.073
01/24/2014  07:07:00      -78.135      -30.698      -11.655       28.142       20.594       11.384      791.979      424.117      129.593        0.426        0.067       83.949        9.265        0.012      332.356        0.964      871.082
01/24/2014  07:08:00      -88.078      -14.460      -12.577       18.724       22.340       12.394      350.605      499.091      153.605        0.456        0.050       89.257        8.921        0.010      332.287        0.851      871.058
01/24/2014  07:09:00      -56.449      -16.210      -12.931       26.888       15.114       10.315      722.948      228.437      106.395        0.234        0.053       58.731       10.344        0.031      332.225        0.750      871.042
01/24/2014  07:10:00      -21.966       -8.735       -7.862       21.752       13.345        8.452      473.158      178.088       71.441        0.067        0.036       23.639       12.170        0.265      332.760        1.632      871.043
01/24/2014  07:11:00      -17.600       -6.479       -5.144       14.628       10.116        5.765      213.978      102.329       33.232        0.036        0.017       18.754        7.482        0.159      332.849        1.778      871.044
01/24/2014  07:12:00      -30.415      -29.118      -12.420       15.115       12.005        9.906      228.468      144.110       98.134        0.120        0.024       42.106        3.542        0.007      332.489        1.184      871.044
01/24/2014  07:13:00      -16.104      -27.099       -2.467       15.879       16.198        7.602      252.135      262.383       57.796        0.079        0.029       31.523        6.354        0.041      332.782        1.670      871.040
01/24/2014  07:14:00      -15.351      -12.856       -0.237       18.098       13.345        8.479      327.552      178.094       71.889        0.049        0.029       20.023        8.185        0.167      332.979        1.994      871.040
01/24/2014  07:15:00      -29.383       -1.090       -1.506       12.282       10.267        8.889      150.853      105.414       79.018        0.060        0.017       29.403        5.218        0.031      332.649        1.450      871.041
01/24/2014  07:16:00       -1.198       40.055        1.647       10.514       17.364        7.218      110.541      301.492       52.098        0.104        0.023       40.073       10.020        0.063      333.339        2.589      871.042
01/24/2014  07:17:00       -6.527       11.405       -2.496       24.110       31.522       11.473      581.300      993.649      131.637        0.094        0.085       13.140       12.737        0.940      333.092        2.180      871.044
01/24/2014  07:18:00      -59.567      -30.152      -20.414       24.738       19.747       12.349      611.981      389.935      152.509        0.301        0.058       66.763        8.725        0.017      332.209        0.725      871.049
01/24/2014  07:19:00      -94.922      -11.901      -15.872       23.085       12.998       11.203      532.930      168.939      125.505        0.512        0.041       95.665        9.361        0.010      332.332        0.925      871.033
01/24/2014  07:20:00      -48.071        5.462      -11.170       16.857       15.450        7.646      284.152      238.709       58.461        0.152        0.029       48.380        6.334        0.017      332.803        1.704      871.023
01/24/2014  07:21:00      -10.925       20.804        6.310       17.522        8.983       10.621      307.007       80.701      112.815        0.055        0.025       23.498        5.573        0.056      333.151        2.279      871.032
01/24/2014  07:22:00      -32.456       41.682      -10.520       15.682       13.681        7.667      245.920      187.169       58.784        0.170        0.025       52.827        7.150        0.018      333.382        2.660      871.031
01/24/2014  07:23:00      -22.943        8.352        3.215       15.970       14.623       11.943      255.046      213.843      142.628        0.061        0.031       24.416        9.867        0.163      332.901        1.866      871.033
01/24/2014  07:24:00       -3.784      -23.270       -0.043       19.419       15.802        9.488      377.107      249.712       90.016        0.064        0.036       23.576        9.366        0.158      332.750        1.615      871.050
01/24/2014  07:25:00        0.478      -12.505        4.508        7.074       10.299        8.235       50.048      106.078       67.815        0.020        0.011       12.514        7.868        0.395      332.700        1.533      871.066
01/24/2014  07:26:00       18.693       22.797       -3.793        9.994       15.408        8.371       99.871      237.395       70.066        0.065        0.020       29.481        3.810        0.017      332.985        2.004      871.074
01/24/2014  07:27:00       28.233       46.674       -2.241       18.117       17.655       10.496      328.229      311.713      110.176        0.187        0.038       54.549        8.825        0.026      333.255        2.449      871.074
01/24/2014  07:28:00       17.466       37.010       -1.230       16.255       31.739       14.637      264.213     1007.353      214.242        0.158        0.074       40.924       15.057        0.135      333.218        2.389      871.078
01/24/2014  07:29:00       13.661       11.880       -3.291       25.174       17.568       12.418      633.749      308.639      154.202        0.072        0.055       18.104        8.530        0.222      333.296        2.518      871.080
01/24/2014  07:30:00        3.370       73.858      -10.033       19.643       25.264        9.021      385.839      638.259       81.382        0.334        0.055       73.935       12.366        0.028      333.512        2.874      871.069
01/24/2014  07:31:00       13.740       60.588       -7.039       19.811       38.679       13.714      392.482     1496.041      188.067        0.299        0.104       62.126       16.256        0.068      333.563        2.961      871.061
01/24/2014  07:32:00       10.127        5.669        5.557       19.952       18.346       14.693      398.086      336.581      215.877        0.056        0.048       11.605       12.174        1.100      333.408        2.702      871.068
01/24/2014  07:33:00       20.144        9.209        1.589       15.662       12.765       12.936      245.292      162.946      167.333        0.053        0.029       22.149        4.601        0.043      333.360        2.623      871.079
01/24/2014  07:34:00       63.734       35.332        5.714       21.326       20.211       14.517      454.789      408.486      210.743        0.321        0.054       72.872        9.802        0.018      333.386        2.665      871.089
01/24/2014  07:35:00       74.691       40.593       11.281       17.925       17.717       11.178      321.323      313.906      124.937        0.406        0.038       85.009        8.078        0.009      333.331        2.576      871.093
01/24/2014  07:36:00       81.460       24.697       12.573       29.850       20.245       18.914      891.023      409.875      357.726        0.453        0.083       85.121       11.776        0.019      333.211        2.376      871.084
01/24/2014  07:37:00       87.327       25.280       12.910       26.740       28.615       22.313      715.002      818.823      497.886        0.523        0.102       90.912       13.672        0.023      333.216        2.385      871.091
01/24/2014  07:38:00       87.635       35.798       24.095       30.519       22.136       19.127      931.435      490.007      365.830        0.566        0.089       94.665       17.788        0.035      333.262        2.460      871.085
01/24/2014  07:39:00       77.246       55.365       41.589       35.153       29.352       26.812     1235.762      861.564      718.890        0.679        0.141       95.039       19.439        0.042      333.266        2.467      871.078
01/24/2014  07:40:00      103.428       49.541       13.607       34.140       19.669       25.412     1165.551      386.858      645.761        0.777        0.110      114.681       20.392        0.032      333.295        2.515      871.066
01/24/2014  07:41:00      105.515       48.161       20.680       33.159       30.206       28.654     1099.540      912.393      821.028        0.836        0.142      115.987       21.865        0.036      333.263        2.463      871.062
01/24/2014  07:42:00      101.794       39.438       26.014       49.609       33.537       29.716     2461.091     1124.718      883.017        0.853        0.223      109.167       22.429        0.042      333.440        2.756      871.054
01/24/2014  07:43:00      103.388       47.194       26.383       32.692       20.769       19.567     1068.770      431.342      382.868        0.775        0.094      113.650       19.603        0.030      333.484        2.827      871.040
01/24/2014  07:44:00       94.254       40.546       17.254       53.814       28.824       24.777     2895.927      830.808      613.894        0.758        0.217      102.605       15.353        0.022      333.738        3.250      871.029
01/24/2014  07:45:00       86.512       48.151       25.450       40.879       35.402       28.978     1671.066     1253.283      839.698        0.711        0.188       99.009       20.650        0.044      333.862        3.456      871.028
01/24/2014  07:46:00      111.752       71.692       31.218       27.772       20.239       24.644      771.303      409.631      607.321        1.020        0.089      132.772       15.739        0.014      333.826        3.395      871.053
01/24/2014  07:47:00       78.139       63.289       40.498       30.807       25.261       28.925      949.059      638.110      836.673        0.709        0.121      100.554       20.847        0.043      333.594        3.011      871.057
01/24/2014  07:48:00      132.030       75.060       32.970       34.226       22.378       22.195     1171.398      500.774      492.606        1.316        0.108      151.875       17.628        0.013      333.729        3.234      871.051
01/24/2014  07:49:00      107.019       66.435       40.525       45.137       32.747       37.309     2037.335     1072.355     1391.967        1.100        0.225      125.964       21.987        0.030      333.710        3.204      871.049
01/24/2014  07:50:00      152.564       71.169       16.330       46.423       37.744       30.376     2155.055     1424.604      922.731        1.655        0.225      168.347       21.324        0.016      333.709        3.201      871.050
01/24/2014  07:51:00      137.454       72.800       14.934       43.075       37.615       29.884     1855.418     1414.852      893.050        1.429        0.208      155.542       16.535        0.011      333.647        3.098      871.049
01/24/2014  07:52:00       74.386       57.100       23.273       47.556       34.491       35.840     2261.552     1189.660     1284.536        0.703        0.237       93.774       25.010        0.071      333.732        3.240      871.059
01/24/2014  07:53:00       97.262       39.839       20.727       43.880       25.959       27.953     1925.468      673.885      781.394        0.743        0.169      105.105       23.101        0.048      333.621        3.055      871.084
01/24/2014  07:54:00       53.654       29.088       33.845       27.755       29.880       25.666      770.347      892.799      658.760        0.360        0.116       61.031       18.477        0.092      333.613        3.042      871.093
01/24/2014  07:55:00       59.957       30.108       28.088       30.601       25.485       21.775      936.392      649.466      474.144        0.367        0.103       67.092       12.149        0.033      333.686        3.163      871.098
01/24/2014  07:56:00       89.040       62.642       25.683       44.167       22.277       28.089     1950.695      496.284      789.009        0.787        0.162      108.867       25.459        0.055      333.656        3.116      871.106
01/24/2014  07:57:00       72.073       36.476       20.352       29.243       27.440       30.028      855.172      752.947      901.695        0.472        0.125       80.778       20.763        0.066      333.676        3.147      871.111
01/24/2014  07:58:00       87.632       46.043       23.426       52.441       43.683       31.565     2750.007     1908.225      996.327        0.800        0.283       98.992       23.575        0.057      333.800        3.352      871.126
01/24/2014  07:59:00       87.272       55.364        7.090       29.977       28.907       22.578      898.602      835.622      509.773        0.649        0.112      103.352       15.701        0.023      333.783        3.325      871.144
01/24/2014  08:00:00       76.763       41.787       12.803       20.585       21.198       18.938      423.741      449.348      358.640        0.452        0.062       87.400       13.014        0.022      333.788        3.334      871.159
01/24/2014  08:01:00       54.701       18.221       16.608       43.718       22.251       26.208     1911.273      495.116      686.847        0.335        0.155       57.656       21.092        0.134      333.859        3.451      871.162
01/24/2014  08:02:00       65.683       40.156       17.523       32.055       21.269       21.277     1027.550      452.355      452.704        0.408        0.097       76.986       14.488        0.035      333.851        3.437      871.160
01/24/2014  08:03:00       92.670       57.714       26.294       30.232       28.867       24.752      913.965      833.316      612.671        0.748        0.118      109.173       18.916        0.030      333.868        3.465      871.158
01/24/2014  08:04:00      100.288       65.244       17.203       23.288       24.377       23.714      542.342      594.233      562.361        0.815        0.085      119.643        8.329        0.005      333.870        3.467      871.167
01/24/2014  08:05:00      102.838       70.797       16.591       18.395       25.293       23.055      338.383      639.720      531.549        0.869        0.075      124.851        8.013        0.004      333.838        3.417      871.166
01/24/2014  08:06:00       99.438       59.371       27.531       27.036       23.441       25.861      730.939      549.492      668.816        0.806        0.097      115.813       18.833        0.026      333.876        3.479      871.151
01/24/2014  08:07:00       82.888       68.820       33.862       45.543       36.387       27.024     2074.149     1323.986      730.307        0.844        0.206      107.734       22.611        0.044      333.939        3.582      871.155
01/24/2014  08:08:00      104.608       39.746       35.777       46.263       36.845       39.297     2140.223     1357.582     1544.240        0.942        0.252      111.905       29.178        0.068      334.001        3.685      871.163
01/24/2014  08:09:00      108.906       44.831       34.288       47.961       33.182       34.333     2300.304     1101.036     1178.763        0.981        0.229      117.772       24.492        0.043      334.026        3.729      871.178
01/24/2014  08:10:00       62.152       83.057       71.516       45.445       29.346       25.749     2065.246      861.166      663.033        0.973        0.179      103.737       23.276        0.050      334.113        3.870      871.179
01/24/2014  08:11:00       63.487       67.903       68.665       47.160       35.387       35.761     2224.040     1252.246     1278.835        0.905        0.238       92.959       21.099        0.052      334.186        3.992      871.171
01/24/2014  08:12:00       78.059       50.591       66.313       47.928       47.905       28.708     2297.123     2294.901      824.150        0.923        0.271       93.020       27.915        0.090      334.231        4.067      871.150
01/24/2014  08:13:00       77.776       71.006       59.335       49.557       39.287       31.866     2455.936     1543.481     1015.438        0.981        0.251      105.314       27.567        0.069      334.204        4.023      871.128
01/24/2014  08:14:00       48.466       71.505       74.089       38.150       32.777       26.827     1455.447     1074.327      719.683        0.810        0.162       86.382       16.920        0.038      334.287        4.159      871.127
01/24/2014  08:15:00       36.251       78.581       69.741       57.778       35.129       38.523     3338.289     1234.023     1483.999        0.920        0.303       86.539       34.461        0.159      334.350        4.265      871.139
01/24/2014  08:16:00      112.942       72.659       49.610       50.126       41.922       35.292     2512.665     1757.491     1245.494        1.300        0.276      134.295       20.803        0.024      334.201        4.017      871.144
01/24/2014  08:17:00       33.928       60.418       60.302       35.957       38.023       29.369     1292.894     1445.760      862.548        0.602        0.180       69.292       21.718        0.098      334.375        4.307      871.136
01/24/2014  08:18:00       58.249       54.251       40.865       50.532       31.179       30.886     2553.526      972.108      953.932        0.624        0.224       79.599       29.740        0.140      334.264        4.122      871.127
01/24/2014  08:19:00       77.163       69.267       53.093       40.012       33.452       33.231     1600.962     1119.053     1104.311        0.870        0.191      103.693       25.525        0.061      334.298        4.179      871.117
01/24/2014  08:20:00       94.028       86.765       56.864       31.528       27.844       23.562      993.997      775.312      555.151        1.096        0.116      127.943       15.963        0.016      334.301        4.184      871.133
01/24/2014  08:21:00       45.141       73.284       70.198       41.364       36.878       33.338     1711.017     1359.958     1111.389        0.826        0.209       86.071       29.658        0.119      334.396        4.341      871.147
01/24/2014  08:22:00       58.957       37.746       39.477       59.488       30.455       33.674     3538.872      927.505     1133.955        0.603        0.280       70.005       34.224        0.239      334.520        4.547      871.153
01/24/2014  08:23:00      111.906       44.616       14.375       40.756       38.372       32.184     1661.077     1472.407     1035.802        0.944        0.208      120.472       22.015        0.033      334.429        4.397      871.158
01/24/2014  08:24:00      118.520       77.780       19.332       51.708       36.071       35.134     2673.721     1301.115     1234.377        1.284        0.260      141.763       31.703        0.050      334.366        4.291      871.160
01/24/2014  08:25:00      126.488       76.686       23.313       39.881       31.978       31.007     1590.506     1022.589      961.410        1.300        0.179      147.919       23.510        0.025      334.332        4.234      871.171
01/24/2014  08:26:00      127.408       64.654       21.611       37.518       33.174       32.559     1407.629     1100.492     1060.094        1.222        0.178      142.873       13.219        0.009      334.431        4.399      871.191
01/24/2014  08:27:00      144.316       39.270       17.528       60.176       45.910       49.159     3621.128     2107.704     2416.656        1.541        0.407      149.563       29.323        0.038      334.411        4.366      871.197
01/24/2014  08:28:00      127.114       70.035       15.782       58.743       35.409       36.765     3450.727     1253.773     1351.632        1.368        0.303      145.131       24.838        0.029      334.446        4.423      871.200
01/24/2014  08:29:00      148.295       69.239       30.226       59.880       44.276       44.832     3585.564     1960.321     2009.932        1.763        0.378      163.663       11.713        0.005      334.455        4.437      871.203
01/24/2014  08:30:00      155.149       92.614       42.779       63.679       48.909       55.475     4055.067     2392.093     3077.512        2.200        0.476      180.689       46.945        0.068      334.441        4.414      871.217
01/24/2014  08:31:00      129.858       74.875       33.155       53.789       48.032       42.898     2893.219     2307.041     1840.225        1.530        0.352      149.898       30.992        0.043      334.485        4.488      871.218
01/24/2014  08:32:00      102.907      101.631       58.516       47.922       41.452       36.961     2296.509     1718.236     1366.134        1.486        0.269      144.633       19.026        0.017      334.586        4.657      871.212
01/24/2014  08:33:00       73.022      111.786       78.741       71.363       47.258       58.911     5092.706     2233.287     3470.498        1.741        0.540      133.523       46.895        0.123      334.696        4.837      871.211
01/24/2014  08:34:00      148.632       90.988       31.389       43.188       50.453       40.957     1865.234     2545.457     1677.507        1.872        0.304      174.271       22.344        0.016      334.502        4.515      871.216
01/24/2014  08:35:00      103.346       55.988       10.936       43.730       41.758       35.399     1912.326     1743.699     1253.107        0.942        0.245      117.537       19.957        0.029      334.591        4.664      871.219
01/24/2014  08:36:00       86.857       55.168        9.098       41.272       39.051       34.215     1703.357     1524.967     1170.683        0.753        0.220      102.897       17.524        0.029      334.758        4.942      871.221
01/24/2014  08:37:00       64.498       63.864       53.814       47.463       43.208       38.575     2252.753     1866.951     1488.028        0.837        0.280       90.767       23.039        0.064      334.836        5.072      871.219
01/24/2014  08:38:00       86.338       79.221       91.817       90.888       63.440       47.760     8260.657     4024.668     2280.982        1.836        0.728      117.176       56.739        0.234      334.666        4.788      871.225
01/24/2014  08:39:00      195.813      104.252       19.712       46.355       47.544       41.551     2148.763     2260.397     1726.524        2.787        0.307      221.836       25.535        0.013      334.505        4.518      871.229
01/24/2014  08:40:00      180.461      104.211       14.184       55.654       48.674       42.379     3097.403     2369.175     1795.985        2.544        0.363      208.389       24.553        0.014      334.538        4.572      871.224
01/24/2014  08:41:00      112.646       86.807       29.872       75.052       36.555       33.309     5632.730     1336.298     1109.488        1.460        0.404      142.213       32.747        0.053      334.727        4.890      871.204
01/24/2014  08:42:00      127.955       77.446       22.534       57.823       49.612       44.994     3343.491     2461.358     2024.442        1.535        0.391      149.567       34.275        0.053      334.749        4.927      871.199
01/24/2014  08:43:00      167.175      103.102       21.982       68.171       50.520       42.641     4647.295     2552.319     1818.250        2.404        0.451      196.412       30.913        0.025      334.533        4.565      871.201
01/24/2014  08:44:00      153.242      102.813       14.841       49.450       44.781       31.125     2445.332     2005.363      968.736        1.985        0.271      184.536       19.527        0.011      334.687        4.821      871.203
01/24/2014  08:45:00      134.500      100.266       35.063       64.495       41.920       42.143     4159.632     1757.246     1776.026        1.853        0.385      167.760       31.291        0.035      334.664        4.783      871.207
01/24/2014  08:46:00      129.399       78.404        9.625       78.804       55.718       47.173     6210.019     3104.519     2225.299        1.726        0.577      151.299       28.533        0.036      334.628        4.723      871.206
01/24/2014  08:47:00      185.615      126.248       21.161       64.995       58.130       40.228     4224.311     3379.071     1618.267        3.003        0.461      224.481       27.727        0.015      334.551        4.596      871.207
01/24/2014  08:48:00      171.190      100.173       30.128       53.895       53.798       47.048     2904.632     2894.195     2213.523        2.413        0.401      198.345       38.621        0.038      334.714        4.865      871.216
01/24/2014  08:49:00      221.326      118.685       13.425       59.947       52.375       40.009     3593.683     2743.128     1600.720        3.559        0.397      251.140       25.317        0.010      334.516        4.534      871.234
01/24/2014  08:50:00      186.158      114.035       26.496       91.275       50.562       50.963     8331.079     2556.503     2597.277        3.092        0.674      218.309       43.415        0.040      334.520        4.544      871.244
01/24/2014  08:51:00      107.257       80.128       71.684       84.950       66.827       63.126     7216.435     4465.854     3984.862        1.936        0.783      133.882       54.274        0.164      334.682        4.812      871.236
01/24/2014  08:52:00      112.067      110.329       80.104       70.353       65.486       67.085     4949.607     4288.404     4500.437        2.244        0.687      157.263       44.630        0.081      334.675        4.800      871.229
01/24/2014  08:53:00       97.789       60.199       34.946       62.265       52.308       49.638     3876.958     2736.080     2463.936        1.174        0.454      114.833       25.513        0.049      334.784        4.985      871.211
01/24/2014  08:54:00       50.592      115.745      102.637       68.843       56.415       57.800     4739.350     3182.688     3340.845        1.887        0.563      126.319       52.121        0.170      334.840        5.077      871.193
01/24/2014  08:55:00      137.245       91.218       66.012       64.977       59.275       62.289     4222.036     3513.560     3879.872        2.156        0.581      164.794       50.581        0.094      334.864        5.116      871.200
01/24/2014  08:56:00      133.214      114.534       99.867       81.150       62.718       50.726     6585.319     3933.525     2573.082        2.696        0.655      175.681       38.389        0.048      334.693        4.832      871.205
01/24/2014  08:57:00       37.366       67.921       72.002       56.393       46.782       41.660     3180.165     2188.521     1735.553        0.915        0.355       77.521       32.353        0.174      334.943        5.249      871.195
01/24/2014  08:58:00       85.798       47.564       26.206       46.356       45.843       35.596     2148.884     2101.547     1267.103        0.791        0.276       98.101       24.789        0.064      335.026        5.385      871.195
01/24/2014  08:59:00       93.641       72.591       52.221       64.991       48.113       36.886     4223.789     2314.884     1360.561        1.233        0.395      118.483       38.210        0.104      334.955        5.268      871.183
01/24/2014  09:00:00       56.574       21.177       57.834       40.404       51.039       39.687     1632.505     2604.955     1575.040        0.640        0.291       60.407       36.260        0.360      335.158        5.606      871.178
01/24/2014  09:01:00        8.801       60.357       87.351       52.698       58.018       37.556     2777.126     3366.105     1410.484        0.945        0.378       60.996       34.763        0.325      335.302        5.846      871.173
01/24/2014  09:02:00      114.394       73.707       13.860       80.665       54.356       64.885     6506.766     2954.567     4210.125        1.619        0.684      136.083       49.889        0.134      334.770        4.960      871.175
01/24/2014  09:03:00       54.981       48.722       54.485       62.852       42.315       46.593     3950.350     1790.531     2170.932        0.814        0.396       73.462       31.337        0.182      335.064        5.451      871.175
01/24/2014  09:04:00       85.201       78.544       78.951       72.648       59.801       49.965     5277.715     3576.204     2496.540        1.550        0.568      115.881       34.454        0.088      334.829        5.059      871.177
01/24/2014  09:05:00      101.935      107.923      100.591       68.686       57.363       48.957     4717.814     3290.466     2396.821        2.128        0.520      148.453       42.501        0.082      334.749        4.925      871.203
01/24/2014  09:06:00      123.272       98.028       76.533       68.903       51.135       53.190     4747.583     2614.777     2829.179        2.043        0.510      157.498       47.249        0.090      334.841        5.078      871.219
01/24/2014  09:07:00      105.808       93.198       77.772       84.855       67.523       62.676     7200.443     4559.395     3928.312        2.081        0.784      141.001       52.250        0.137      334.840        5.077      871.240
01/24/2014  09:08:00       75.439       76.749       50.054       67.438       47.556       55.347     4547.864     2261.535     3063.263        1.198        0.494      107.617       52.565        0.239      334.908        5.192      871.250
01/24/2014  09:09:00       90.329       24.528       20.272       93.993       68.556       41.970     8834.600     4699.928     1761.457        1.223        0.765       93.600       35.951        0.148      335.083        5.481      871.249
01/24/2014  09:10:00      143.761       75.283       49.390       63.287       42.345       39.847     4005.210     1793.111     1587.763        1.808        0.369      162.280       34.471        0.045      334.927        5.221      871.273
01/24/2014  09:11:00       59.191       53.667       26.779       54.974       43.208       31.462     3022.104     1866.917      989.871        0.649        0.294       79.898       21.487        0.072      335.004        5.350      871.301
01/24/2014  09:12:00       17.556       41.435       52.153       40.536       36.407       39.041     1643.204     1325.463     1524.196        0.462        0.225       45.001       25.182        0.313      335.220        5.710      871.312
01/24/2014  09:13:00      148.517       93.959       11.950       71.584       48.560       34.480     5124.214     2358.042     1188.840        1.985        0.434      175.743       29.326        0.028      334.885        5.151      871.316
01/24/2014  09:14:00      181.609      123.565       22.466       55.738       39.917       40.252     3106.676     1593.361     1620.262        2.754        0.316      219.659       29.906        0.019      334.862        5.110      871.326
01/24/2014  09:15:00       63.491       55.565       31.036       70.155       35.865       45.314     4921.754     1286.332     2053.366        0.817        0.413       84.372       49.132        0.339      335.230        5.726      871.324
01/24/2014  09:16:00      104.330       67.251       21.614       55.733       29.157       35.371     3106.209      850.148     1251.117        1.054        0.260      124.127       20.146        0.026      334.942        5.248      871.319
01/24/2014  09:17:00       21.340       26.755       32.602       40.320       36.472       19.623     1625.741     1330.179      385.062        0.279        0.167       34.223       23.261        0.462      335.447        6.086      871.315
01/24/2014  09:18:00       43.011       40.138       44.801       32.115       32.575       27.225     1031.395     1061.122      741.219        0.415        0.142       58.830       13.783        0.055      335.643        6.415      871.321
01/24/2014  09:19:00       -4.888       41.781       68.375       27.154       38.334       23.096      737.357     1469.530      533.441        0.459        0.137       42.066       20.370        0.234      335.639        6.407      871.317
01/24/2014  09:20:00       73.013       42.552       14.853       58.905       38.037       38.863     3469.834     1446.814     1510.356        0.689        0.321       84.507       17.880        0.045      335.442        6.078      871.328
01/24/2014  09:21:00       14.460       20.170       38.137       33.857       41.838       37.400     1146.291     1750.387     1398.758        0.318        0.215       24.818       33.117        1.781      335.597        6.336      871.355
01/24/2014  09:22:00       53.501       44.500       50.849       50.249       52.587       42.687     2524.927     2765.436     1822.186        0.727        0.356       69.589       40.508        0.339      335.472        6.128      871.373
01/24/2014  09:23:00       77.417       87.468       89.343       98.099       55.874       40.826     9623.342     3121.924     1666.790        1.802        0.721      116.807       44.652        0.146      335.378        5.970      871.387
01/24/2014  09:24:00      141.732      106.669       61.554       47.712       34.469       38.450     2276.402     1188.096     1478.369        2.010        0.247      177.388       25.835        0.021      335.116        5.538      871.402
01/24/2014  09:25:00      134.356       68.327       45.079       68.231       60.039       57.957     4655.432     3604.631     3359.008        1.818        0.581      150.732       43.844        0.085      335.215        5.701      871.418
01/24/2014  09:26:00      122.216       62.126       66.290       80.071       67.385       65.579     6411.300     4540.769     4300.544        1.922        0.763      137.100       58.000        0.179      335.261        5.776      871.429
01/24/2014  09:27:00       97.123       84.506       75.610       59.266       53.585       45.178     3512.412     2871.353     2041.044        1.536        0.421      128.740       36.430        0.080      335.298        5.838      871.441
01/24/2014  09:28:00      132.753       86.983       35.262       42.969       28.603       28.976     1846.360      818.118      839.619        1.497        0.175      158.712       16.523        0.011      335.254        5.766      871.433
01/24/2014  09:29:00       50.820       18.246       29.705       50.139       51.331       29.712     2513.870     2634.850      882.819        0.491        0.302       53.996       20.942        0.150      335.468        6.122      871.427
01/24/2014  09:30:00       23.180       42.930       65.968       39.718       40.980       41.831     1577.506     1679.365     1749.848        0.587        0.250       48.788       34.111        0.489      335.735        6.567      871.421
01/24/2014  09:31:00       80.153       84.619       61.982       84.743       72.856       48.789     7181.299     5308.030     2380.318        1.615        0.743      116.555       42.118        0.131      335.512        6.194      871.420
01/24/2014  09:32:00       79.984       78.303        8.731       64.623       56.046       48.682     4176.123     3141.185     2369.921        1.114        0.484      111.932       38.058        0.116      335.570        6.292      871.405
01/24/2014  09:33:00       71.132       95.866       84.865       46.338       49.243       46.102     2147.231     2424.836     2125.420        1.407        0.335      119.373       37.327        0.098      335.662        6.446      871.401
01/24/2014  09:34:00       45.052       12.205       34.777       34.248       29.723       27.693     1172.913      883.443      766.894        0.311        0.141       46.676       21.237        0.207      335.548        6.254      871.418
01/24/2014  09:35:00       40.183       89.111      103.348       65.402       51.913       50.656     4277.418     2694.982     2565.998        1.489        0.477       97.752       41.024        0.176      335.776        6.634      871.413
01/24/2014  09:36:00      153.831       95.584       49.108       38.716       43.969       50.411     1498.934     1933.268     2541.220        2.059        0.299      181.108       30.923        0.029      335.399        6.006      871.413
01/24/2014  09:37:00      106.148       80.220       50.665       48.284       43.649       43.174     2331.378     1905.245     1864.003        1.318        0.305      133.051       33.204        0.062      335.639        6.405      871.427
01/24/2014  09:38:00      128.735      152.469      128.930       77.600       49.283       46.261     6021.820     2428.773     2140.098        3.351        0.530      199.548       35.224        0.031      335.647        6.416      871.438
01/24/2014  09:39:00      111.977      105.472       76.699       51.496       47.279       48.088     2651.873     2235.333     2312.487        1.837        0.360      153.829       33.863        0.048      335.640        6.409      871.459
01/24/2014  09:40:00       86.109      123.400      115.079       78.806       65.649       61.230     6210.444     4309.726     3749.084        2.507        0.713      150.474       57.687        0.147      335.822        6.711      871.461
01/24/2014  09:41:00       79.729       98.091      116.434       46.851       56.790       37.680     2195.029     3225.110     1419.767        1.819        0.342      126.407       31.953        0.064      335.804        6.681      871.451
01/24/2014  09:42:00       87.836      119.187      108.083      103.881       56.465       63.750    10791.219     3188.319     4064.100        2.582        0.902      148.056       62.921        0.181      335.890        6.823      871.450
01/24/2014  09:43:00      146.835       74.296       58.702       99.187       79.753       73.747     9837.978     6360.498     5438.649        2.608        1.082      164.561       56.528        0.118      335.784        6.647      871.445
01/24/2014  09:44:00      120.164      103.556      101.011       76.447       73.074       67.873     5844.159     5339.840     4606.764        2.558        0.790      158.629       53.419        0.113      335.806        6.684      871.454
01/24/2014  09:45:00      121.566      126.709      133.805       96.022       59.695       74.601     9220.298     3563.512     5565.378        3.354        0.917      175.595       61.794        0.124      335.767        6.616      871.460
01/24/2014  09:46:00      160.595      132.800       87.675       77.729       69.022       75.017     6041.774     4764.102     5627.620        3.377        0.822      208.390       60.804        0.085      335.660        6.439      871.491
01/24/2014  09:47:00       94.942      115.922       83.012       71.445       75.507       58.802     5104.427     5701.303     3457.628        2.180        0.713      149.839       54.111        0.130      335.867        6.785      871.503
01/24/2014  09:48:00      194.427      107.064       34.515      109.023       57.054       61.473    11885.908     3255.201     3778.935        3.468        0.946      221.956       54.264        0.060      335.876        6.799      871.509
01/24/2014  09:49:00      154.514      105.491       51.106       93.140       76.418       65.419     8674.980     5839.711     4279.645        2.820        0.940      187.091       22.893        0.015      335.846        6.749      871.512
01/24/2014  09:50:00      110.986       88.548       49.987      116.936       80.727       64.733    13673.969     6516.805     4190.346        2.351        1.219      141.981       41.101        0.084      336.077        7.136      871.521
01/24/2014  09:51:00      233.175      119.499       23.264       98.332      106.358       61.669     9669.143    11311.997     3803.126        4.698        1.239      262.012       26.151        0.010      335.828        6.719      871.525
01/24/2014  09:52:00      113.267       52.095       30.042       76.383       89.157       52.921     5834.419     7948.938     2800.601        1.651        0.829      124.673       36.262        0.085      336.129        7.222      871.533
01/24/2014  09:53:00      179.851      102.873       63.388       93.706       76.667       63.130     8780.800     5877.786     3985.371        3.279        0.932      207.194       43.341        0.044      335.930        6.887      871.545
01/24/2014  09:54:00       96.024       77.607       86.564       74.819       68.060       54.646     5597.822     4632.130     2986.203        1.797        0.661      123.465       38.592        0.098      336.032        7.060      871.533
01/24/2014  09:55:00      148.136       76.960       16.388       64.683       55.045       58.677     4183.935     3029.945     3443.006        1.939        0.533      166.934       18.790        0.013      336.007        7.018      871.525
01/24/2014  09:56:00      112.158       69.349       48.034       89.536       87.470       64.780     8016.619     7651.075     4196.425        1.978        0.993      131.866       46.080        0.122      336.174        7.296      871.501
01/24/2014  09:57:00      199.685      109.974       28.762      117.440       87.568       70.174    13792.228     7668.143     4924.394        3.958        1.319      227.965       52.009        0.052      335.942        6.910      871.489
01/24/2014  09:58:00      222.832      107.393       46.572       92.326       62.614       65.836     8524.035     3920.460     4334.426        4.006        0.839      247.361       43.925        0.032      335.921        6.873      871.473
01/24/2014  09:59:00      118.010       77.120       57.476       96.096       70.092       74.062     9234.472     4912.909     5485.110        2.140        0.982      140.974       55.393        0.154      336.086        7.150      871.462
01/24/2014  10:00:00       65.578       47.419       40.923       79.705       49.563       51.872     6352.904     2456.528     2690.704        0.986        0.575       80.926       42.922        0.281      336.408        7.689      871.450
01/24/2014  10:01:00      195.629      132.766       65.021      138.401       70.182       69.408    19154.829     4925.524     4817.517        4.451        1.445      236.426       64.965        0.076      336.213        7.362      871.415
01/24/2014  10:02:00       52.582      107.503       72.610       70.900       68.849       90.614     5026.770     4740.228     8210.975        1.878        0.899      119.673       63.568        0.282      336.287        7.486      871.408
01/24/2014  10:03:00      145.629      123.459       84.442      132.617       87.668       84.844    17587.246     7685.632     7198.543        3.802        1.624      190.919       79.674        0.174      336.084        7.146      871.404
01/24/2014  10:04:00      178.100       86.095       34.323      113.254       67.391       60.843    12826.403     4541.559     3701.833        3.069        1.053      197.818       42.134        0.045      336.072        7.126      871.431
01/24/2014  10:05:00      197.316       93.369       54.967      128.595       85.009       85.938    16536.714     7226.487     7385.312        4.090        1.557      218.292       50.307        0.053      336.067        7.117      871.415
01/24/2014  10:06:00      117.487      152.650      148.701      107.557       90.392       71.678    11568.598     8170.671     5137.736        4.204        1.244      192.627       68.880        0.128      336.103        7.177      871.421
01/24/2014  10:07:00       98.734       75.559      108.045      112.243       66.685       68.417    12598.540     4446.873     4680.927        2.442        1.086      124.329       58.645        0.222      336.415        7.699      871.417
01/24/2014  10:08:00      217.724      125.770       91.024      155.964      101.319       95.987    24324.774    10265.473     9213.438        5.765        2.190      251.440       83.096        0.109      336.224        7.380      871.421
01/24/2014  10:09:00      167.837      150.786      146.863      104.650       97.300       75.685    10951.686     9467.365     5728.233        4.931        1.307      225.623       61.659        0.075      336.055        7.096      871.412
01/24/2014  10:10:00      119.635       70.559       67.526       93.723       82.919       76.699     8784.065     6875.624     5882.758        2.269        1.077      138.893       50.394        0.132      336.303        7.513      871.403
01/24/2014  10:11:00      264.166      145.038       52.134      119.954       89.793       68.170    14388.989     8062.812     4647.164        6.031        1.355      301.363       59.340        0.039      336.265        7.447      871.392
01/24/2014  10:12:00      261.803      153.088       75.520      131.163       95.194       90.965    17203.810     9061.895     8274.690        6.610        1.727      303.277       82.623        0.074      336.326        7.548      871.402
01/24/2014  10:13:00      146.248       56.291       40.198       89.221       75.269       63.537     7960.392     5665.391     4036.948        2.191        0.883      156.707       54.041        0.119      336.411        7.692      871.406
01/24/2014  10:14:00      141.060      108.751       54.655      141.212      115.343       75.576    19940.728    13303.928     5711.745        3.683        1.948      178.115       73.859        0.172      336.627        8.053      871.398
01/24/2014  10:15:00      133.625       95.139       84.383      133.321       98.790       85.189    17774.393     9759.413     7257.136        3.440        1.740      164.034       70.762        0.186      336.567        7.953      871.395
01/24/2014  10:16:00      144.059      134.318      124.403      107.064       74.565       78.222    11462.645     5559.991     6118.730        3.870        1.157      196.963       66.846        0.115      336.498        7.837      871.410
01/24/2014  10:17:00      179.272      116.839       94.801      120.868       87.154       75.375    14609.113     7595.826     5681.328        4.133        1.394      213.985       77.922        0.133      336.458        7.769      871.422
01/24/2014  10:18:00       60.113       21.768       68.868       63.023      118.945       62.225     3971.897    14148.024     3871.900        1.541        1.100       63.933       60.467        0.895      336.740        8.244      871.411
01/24/2014  10:19:00       58.178       68.340       52.799       70.716       47.090       51.199     5000.717     2217.492     2621.336        1.034        0.492       89.750       32.263        0.129      336.974        8.635      871.406
01/24/2014  10:20:00      145.506      101.671       48.597      119.048       81.088       74.689    14172.465     6575.219     5578.493        3.009        1.316      177.507       57.901        0.106      336.776        8.302      871.411
01/24/2014  10:21:00      216.414      117.295       65.094      124.797       92.038       79.015    15574.416     8470.937     6243.352        4.755        1.514      246.157       68.007        0.076      336.513        7.862      871.392
01/24/2014  10:22:00      186.861      100.098       50.264       88.801       76.360       67.311     7885.677     5830.787     4530.784        3.285        0.912      211.983       30.987        0.021      336.601        8.009      871.398
01/24/2014  10:23:00      106.377      119.262      109.817      104.175       74.034       70.055    10852.340     5481.055     4907.737        2.942        1.062      159.811       62.377        0.152      336.940        8.575      871.402
01/24/2014  10:24:00      109.930      120.378       73.813       98.325       80.205       77.283     9667.892     6432.854     5972.700        2.704        1.104      163.020       74.602        0.209      336.838        8.406      871.409
01/24/2014  10:25:00      178.636       68.368       77.648      120.031      111.723       91.608    14407.336    12481.984     8392.031        3.894        1.764      191.272       73.102        0.146      336.580        7.975      871.420
01/24/2014  10:26:00      251.497      109.787       82.551      131.775      107.641       92.998    17364.668    11586.524     8648.648        5.985        1.880      274.415       90.617        0.109      336.609        8.022      871.424
01/24/2014  10:27:00      162.118       83.358      122.208      116.707      107.141       70.146    13620.599    11479.240     4920.497        3.909        1.501      182.293       74.177        0.166      336.782        8.312      871.415
01/24/2014  10:28:00      109.593       66.322       39.543      119.417       96.966       65.009    14260.364     9402.402     4226.176        2.293        1.394      128.099       42.937        0.112      336.972        8.629      871.412
01/24/2014  10:29:00       97.819       -7.975       60.487       83.580      122.599       80.729     6985.689    15030.413     6517.185        2.091        1.427       98.143       86.937        0.785      337.066        8.788      871.426
01/24/2014  10:30:00       27.077       42.342       93.107       61.518       81.590       52.174     3784.513     6656.887     2722.111        1.218        0.658       50.260       46.181        0.844      337.260        9.114      871.427
01/24/2014  10:31:00      125.689       52.542       95.918      119.167      145.598       81.518    14200.698    21198.672     6645.239        3.489        2.102      136.229       66.583        0.239      337.187        8.988      871.424
01/24/2014  10:32:00      275.727      144.978       69.189      170.884      139.920      105.596    29201.292    19577.623    11150.539        8.087        2.996      311.519       63.209        0.041      336.776        8.302      871.414
01/24/2014  10:33:00      262.869      148.510      122.587      167.254      128.404      107.339    27973.981    16487.712    11521.624        8.107        2.799      301.919       90.988        0.091      336.617        8.036      871.406
01/24/2014  10:34:00      128.549      152.996      163.749      143.162      119.087      107.774    20495.253    14181.719    11615.341        5.651        2.315      199.832      106.872        0.286      336.775        8.301      871.399
01/24/2014  10:35:00       70.809       13.899       61.286      104.648      105.109       62.815    10951.193    11047.812     3945.745        1.745        1.297       72.160       62.931        0.761      337.063        8.783      871.388
01/24/2014  10:36:00      189.864      124.419      123.285      142.702      125.609      110.196    20363.744    15777.608    12143.065        5.750        2.414      226.999      104.992        0.214      336.700        8.176      871.389
01/24/2014  10:37:00      187.986      177.031      181.494      112.366      112.875       82.866    12626.032    12740.802     6866.724        6.592        1.612      258.222       72.135        0.078      336.636        8.068      871.385
01/24/2014  10:38:00      124.000       18.300       86.144      113.500      104.881       90.210    12882.323    10999.982     8137.901        2.757        1.601      125.343       43.088        0.118      336.871        8.463      871.356
01/24/2014  10:39:00      177.636       97.500       79.559      130.470      145.172       77.838    17022.502    21074.765     6058.716        4.576        2.208      202.635       44.513        0.048      336.962        8.613      871.358
01/24/2014  10:40:00      135.861      121.759      112.380      106.825      108.079       82.824    11411.509    11681.029     6859.745        3.793        1.498      182.438       46.263        0.064      336.888        8.491      871.382
01/24/2014  10:41:00      167.429      124.985       78.501      121.473       74.750       71.676    14755.680     5587.524     5137.427        3.764        1.274      208.935       65.815        0.099      337.004        8.683      871.405
01/24/2014  10:42:00      185.587      165.565      152.328       90.536      104.008       80.253     8196.757    10817.573     6440.580        5.525        1.273      248.705       65.734        0.070      336.749        8.258      871.410
01/24/2014  10:43:00      200.029      195.308      135.583       96.427       79.383       85.239     9298.224     6301.613     7265.739        5.970        1.143      279.566       68.598        0.060      336.710        8.192      871.400
01/24/2014  10:44:00      115.139      125.669       89.830      117.269       65.236       65.808    13751.958     4255.734     4330.752        2.972        1.117      170.440       63.290        0.138      336.925        8.553      871.396
01/24/2014  10:45:00      186.510      157.636       99.972      108.132       68.752       63.764    11692.617     4726.861     4065.885        4.505        1.024      244.203       54.615        0.050      337.180        8.976      871.383
01/24/2014  10:46:00      228.941      143.819      106.872      164.319      106.672       91.690    27000.602    11378.922     8407.015        6.564        2.339      270.366       92.632        0.117      336.919        8.540      871.366
01/24/2014  10:47:00      121.081      156.189      180.765      139.237      108.597       87.030    19387.015    11793.255     7574.289        5.524        1.938      197.625       93.524        0.224      336.857        8.437      871.356
01/24/2014  10:48:00      236.382       84.256       47.418      196.386      114.726      104.738    38567.483    13161.967    10970.003        6.395        3.135      250.949      110.845        0.195      336.770        8.292      871.339
01/24/2014  10:49:00      171.682       84.228       67.404      126.226       90.101       83.978    15932.945     8118.233     7052.368        3.610        1.555      191.231       70.375        0.135      336.867        8.455      871.338
01/24/2014  10:50:00      176.958      156.982       98.103      124.216       83.464       90.159    15429.507     6966.317     8128.566        4.805        1.526      236.553       76.233        0.104      336.910        8.525      871.345
01/24/2014  10:51:00      141.117      123.105      104.878      113.001       78.854       86.585    12769.223     6217.988     7496.948        3.627        1.324      187.267       76.565        0.167      336.995        8.667      871.365
01/24/2014  10:52:00      270.118      162.003       57.661      113.746       92.429       87.714    12938.180     8543.132     7693.676        6.585        1.459      314.974       43.877        0.019      336.751        8.258      871.362
01/24/2014  10:53:00      168.068      131.408      102.263      105.595       82.290       66.812    11150.239     6771.713     4463.859        3.917        1.119      213.342       55.697        0.068      337.019        8.707      871.363
01/24/2014  10:54:00      201.819       54.992       40.378      112.800       84.542       57.792    12723.773     7147.359     3339.919        3.429        1.161      209.177       56.716        0.074      336.953        8.598      871.354
01/24/2014  10:55:00      137.522       97.530       29.146       78.802       60.882       56.738     6209.821     3706.588     3219.148        2.120        0.657      168.595       39.257        0.054      337.115        8.870      871.357
01/24/2014  10:56:00      133.898      126.941       67.991       95.690       57.063       56.126     9156.491     3256.180     3150.112        2.711        0.778      184.506       25.471        0.019      337.331        9.232      871.357
01/24/2014  10:57:00      150.081      111.678       78.720      126.264       72.280       77.392    15942.522     5224.453     5989.571        3.417        1.358      187.073       79.926        0.183      337.025        8.718      871.344
01/24/2014  10:58:00      100.241      101.802       65.749      100.615       47.027       61.419    10123.415     2211.556     3772.302        2.042        0.805      142.870       65.458        0.210      337.166        8.956      871.324
01/24/2014  10:59:00      225.631      133.029       32.378      123.965       85.615       60.435    15367.384     7329.968     3652.354        4.800        1.317      261.928       44.372        0.029      336.955        8.600      871.296
01/24/2014  11:00:00      210.616      159.054       50.722       99.919       94.129       71.439     9983.787     8860.257     5103.540        4.808        1.197      263.927       50.578        0.037      337.102        8.847      871.273
01/24/2014  11:01:00      121.953       92.885       92.146       91.223       73.854       69.887     8321.588     5454.408     4884.253        2.532        0.933      153.297       50.422        0.108      337.157        8.940      871.240
01/24/2014  11:02:00      185.622      103.854      100.539      157.038      100.645       66.977    24660.798    10129.433     4485.973        4.730        1.964      212.699       55.061        0.067      337.292        9.165      871.205
01/24/2014  11:03:00      146.139       87.508       93.270      139.314      105.874       87.471    19408.443    11209.346     7651.207        3.798        1.913      170.336       85.799        0.254      337.345        9.255      871.199
01/24/2014  11:04:00      225.686      151.437       53.345      107.801       87.763       88.342    11621.007     7702.267     7804.314        5.191        1.356      271.786       60.276        0.049      337.289        9.160      871.177
01/24/2014  11:05:00      172.459      163.855      142.502      136.380      111.536      102.253    18599.456    12440.289    10455.763        5.919        2.075      237.888      101.255        0.181      337.144        8.917      871.152
01/24/2014  11:06:00      131.712      212.574      192.943      135.102      135.898       84.171    18252.632    18468.276     7084.766        7.178        2.190      250.072       79.112        0.100      337.264        9.118      871.143
01/24/2014  11:07:00      171.674      196.854      138.250      124.515       96.258      102.562    15503.981     9265.522    10518.937        6.131        1.764      261.196       70.482        0.073      337.126        8.887      871.157
01/24/2014  11:08:00      141.614       66.669       87.769      129.135      147.527       91.665    16675.792    21764.075     8402.452        3.951        2.342      156.522       80.470        0.264      337.314        9.203      871.136
01/24/2014  11:09:00       57.617      108.411      127.127       80.515       91.854       66.846     6482.737     8437.130     4468.442        2.531        0.969      122.771       55.303        0.203      337.391        9.332      871.133
01/24/2014  11:10:00      126.234       62.194       88.567      158.911      111.835       85.128    25252.797    12507.091     7246.832        3.632        2.250      140.724       78.671        0.313      337.274        9.136      871.141
01/24/2014  11:11:00      146.238      147.466      136.364      137.387      100.446       94.621    18875.129    10089.416     8953.164        4.981        1.896      207.682       85.524        0.170      337.239        9.077      871.120
01/24/2014  11:12:00      244.737      147.621       91.966      123.147       97.286       94.077    15165.193     9464.607     8850.475        6.181        1.674      285.811       79.923        0.078      337.110        8.859      871.124
01/24/2014  11:13:00      101.648      149.342      141.084      129.995      105.002       91.799    16898.749    11025.425     8427.038        4.444        1.818      180.653       88.241        0.239      337.359        9.277      871.147
01/24/2014  11:14:00      120.267       96.606      125.296      103.411      106.799       88.046    10693.741    11406.133     7752.112        3.467        1.493      154.262       86.430        0.314      337.187        8.990      871.160
01/24/2014  11:15:00      146.013       87.103       84.743       85.667       91.946       72.022     7338.751     8454.137     5187.098        2.853        1.049      170.020       54.495        0.103      337.123        8.883      871.162
01/24/2014  11:16:00      206.034      103.183       80.663       97.346       85.810       65.900     9476.324     7363.408     4342.762        4.039        1.059      230.427       53.816        0.055      337.412        9.365      871.156
01/24/2014  11:17:00      106.905       76.766       63.797      119.404       90.459       88.898    14257.321     8182.898     7902.816        2.586        1.517      131.612       74.081        0.317      337.530        9.563      871.163
01/24/2014  11:18:00      190.939      106.371       81.506      110.380       85.625       89.383    12183.808     7331.691     7989.344        4.095        1.375      218.569       56.197        0.066      337.515        9.538      871.157
01/24/2014  11:19:00      250.566       91.854       59.949      154.216      117.490       94.313    23782.700    13803.885     8894.963        6.064        2.324      266.872       71.477        0.072      337.459        9.445      871.152
01/24/2014  11:20:00       99.039      141.190      148.927      111.053       87.203       68.975    12332.872     7604.440     4757.497        3.830        1.235      172.462       70.414        0.167      337.219        9.042      871.177
01/24/2014  11:21:00      117.795       76.849       46.668       66.696       51.099       61.407     4448.354     2611.057     3770.806        1.639        0.542      140.647       48.453        0.119      337.272        9.134      871.178
01/24/2014  11:22:00      206.787      144.149       42.183       77.941       74.979       64.749     6074.856     5621.797     4192.383        4.060        0.794      252.071       25.437        0.010      337.433        9.402      871.164
01/24/2014  11:23:00      331.875      190.505       54.722      124.181      106.501       81.228    15421.007    11342.558     6597.983        9.139        1.668      382.666       56.107        0.021      337.230        9.060      871.143
01/24/2014  11:24:00      382.006      242.983       52.353       95.259       85.059       78.844     9074.228     7235.081     6216.443       11.511        1.126      452.735       39.033        0.007      337.069        8.791      871.139
01/24/2014  11:25:00      232.717       78.850       33.772      143.794      103.859       66.777    20676.842    10786.659     4459.218        4.871        1.796      245.712       45.508        0.034      337.333        9.234      871.149
01/24/2014  11:26:00      142.077      135.571       91.587       90.626       67.433       68.619     8213.155     4547.142     4708.549        3.221        0.873      196.381       45.812        0.054      337.535        9.573      871.139
01/24/2014  11:27:00       92.181       61.465      114.544       83.406      125.431       83.571     6956.522    15732.987     6984.186        2.753        1.484      110.794       89.388        0.651      337.649        9.763      871.129
01/24/2014  11:28:00      149.750       63.682      101.782      121.028      131.895       83.898    14647.851    17396.316     7038.812        3.795        1.954      162.729       96.868        0.354      337.525        9.555      871.105
01/24/2014  11:29:00      167.881      121.686       94.892       97.960       80.773       87.790     9596.173     6524.248     7707.142        3.791        1.191      207.344       64.179        0.096      337.405        9.354      871.081
01/24/2014  11:30:00      139.412      100.597       84.547       60.304       53.914       43.250     3636.521     2906.722     1870.605        2.256        0.421      171.917       28.075        0.027      337.808       10.029      871.077
01/24/2014  11:31:00       89.004       88.486       88.250      116.209       93.970       53.173    13504.575     8830.304     2827.377        2.435        1.258      125.505       44.340        0.125      338.009       10.368      871.065
01/24/2014  11:32:00      101.748      155.691      118.987       93.001       62.791       61.776     8649.241     3942.674     3816.249        3.258        0.820      185.990       43.575        0.055      338.008       10.365      871.051
01/24/2014  11:33:00      147.591      103.840      108.051      104.141      106.720       68.500    10845.381    11389.148     4692.230        3.558        1.346      180.460       60.151        0.111      338.048       10.429      871.040
01/24/2014  11:34:00      121.965      114.672      119.634      106.150      113.605       81.823    11267.911    12906.020     6695.061        3.660        1.543      167.407       60.484        0.131      337.834       10.073      871.036
01/24/2014  11:35:00      116.972       87.252       78.157       89.621       60.530       59.798     8031.936     3663.854     3575.829        2.133        0.764      145.929       44.286        0.092      338.014       10.378      871.037
01/24/2014  11:36:00      188.551      187.821      157.926      144.808      117.148      129.908    20969.373    13723.697    16876.199        7.366        2.578      266.136      112.275        0.178      337.596        9.673      871.004
01/24/2014  11:37:00      149.368      118.669      126.446      154.691      122.637      100.085    23929.319    15039.899    10017.038        5.067        2.449      190.770       93.840        0.242      337.605        9.690      871.011
01/24/2014  11:38:00      231.474      168.222       48.233      135.977       90.303       90.218    18489.814     8154.682     8139.308        5.949        1.739      286.145       73.971        0.067      337.576        9.640      871.020
01/24/2014  11:39:00      116.222       81.934       54.276       88.843       96.987       76.824     7893.054     9406.560     5901.882        2.318        1.160      142.199       63.716        0.201      338.071       10.471      871.004
01/24/2014  11:40:00      136.149       93.847      138.501      107.889       96.706       75.658    11639.988     9352.050     5724.202        3.662        1.336      165.360       69.995        0.179      337.679        9.814      871.023
01/24/2014  11:41:00      113.183       82.825       92.390       91.915       81.905       57.217     8448.395     6708.448     3273.750        2.331        0.922      140.252       51.096        0.133      337.836       10.078      871.018
01/24/2014  11:42:00       60.367      103.456      115.429      105.331       86.059       62.760    11094.656     7406.102     3938.825        2.505        1.122      119.780       55.392        0.214      337.988       10.332      871.005
01/24/2014  11:43:00       79.195       87.833       88.175      101.424       91.402       55.854    10286.732     8354.301     3119.686        2.176        1.088      118.265       39.288        0.110      337.818       10.048      870.987
01/24/2014  11:44:00       76.016       62.172       92.572       74.140       66.698       47.015     5496.791     4448.635     2210.454        1.518        0.608       98.203       41.898        0.182      338.015       10.378      870.989
01/24/2014  11:45:00       58.378       82.297       98.296       75.239      100.464       66.299     5660.933    10092.993     4395.509        1.999        1.007      100.900       57.599        0.326      338.101       10.523      870.964
01/24/2014  11:46:00      209.181      188.046      152.581      139.159      113.104      114.739    19365.093    12792.457    13165.128        7.385        2.266      281.279       95.245        0.115      337.857       10.110      870.932
01/24/2014  11:47:00       96.117      112.754      131.264      144.708      104.868       68.251    20940.349    10997.239     4658.193        3.788        1.830      148.162       64.476        0.189      337.927       10.229      870.954
01/24/2014  11:48:00      239.821      148.911       77.050      108.212       71.039       82.928    11709.895     5046.490     6877.101        5.462        1.182      282.291       62.455        0.049      337.750        9.931      870.949
01/24/2014  11:49:00      208.922      107.279       76.128      144.981       90.471       79.330    21019.602     8185.042     6293.287        4.822        1.775      234.856       77.031        0.108      337.831       10.068      870.939
01/24/2014  11:50:00      176.430      113.462      101.018      121.443       78.824       72.951    14748.399     6213.217     5321.801        4.024        1.314      209.764       60.491        0.083      337.542        9.582      870.949
01/24/2014  11:51:00      163.189      118.104       95.171      106.782       80.441       71.409    11402.376     6470.710     5099.297        3.630        1.149      201.443       60.674        0.091      337.702        9.852      870.973
01/24/2014  11:52:00       82.493       73.932       98.524       98.402      101.560       56.109     9683.012    10314.469     3148.265        2.256        1.157      110.775       62.293        0.316      337.861       10.120      870.954
01/24/2014  11:53:00      150.203      106.588       47.711      106.319       87.775       51.157    11303.788     7704.376     2616.998        2.891        1.081      184.179       30.858        0.028      337.773        9.972      870.943
01/24/2014  11:54:00      139.717       83.937       47.986      124.212       77.233       49.289    15428.602     5965.010     2429.396        2.634        1.191      162.991       41.039        0.063      337.771        9.968      870.947
01/24/2014  11:55:00      257.068      162.916       68.081       86.211       67.188       51.721     7432.395     4514.222     2675.039        5.594        0.731      304.344       40.580        0.018      337.498        9.507      870.952
01/24/2014  11:56:00      144.219       85.840       68.990       85.070       64.976       55.029     7236.972     4221.844     3028.198        2.370        0.724      167.832       36.160        0.046      337.623        9.721      870.941
01/24/2014  11:57:00      125.656       71.011       70.710       86.593       91.037       69.023     7498.294     8287.748     4764.148        2.319        1.028      144.333       59.675        0.171      337.651        9.767      870.921
01/24/2014  11:58:00      265.760      142.768       45.464       98.753       88.894       79.581     9752.058     7902.206     6333.157        5.853        1.199      301.680       54.179        0.032      337.445        9.421      870.895
01/24/2014  11:59:00      231.766      141.188       46.908       93.573       74.593       69.994     8755.849     5564.167     4899.193        4.753        0.961      271.385       55.551        0.042      337.493        9.501      870.881
01/24/2014  12:00:00      310.101      154.140       45.316       95.166       82.986       69.272     9056.523     6886.647     4798.624        7.135        1.037      346.297       57.177        0.027      337.381        9.313      870.860
01/24/2014  12:01:00      267.130      167.257       17.731       85.646       88.440       68.727     7335.298     7821.571     4723.435        5.976        0.994      315.172       41.457        0.017      337.378        9.308      870.864
01/24/2014  12:02:00       87.579      122.413      139.243       99.055       93.378       87.617     9811.909     8719.396     7676.682        3.412        1.310      150.516       87.629        0.339      337.666        9.790      870.848
01/24/2014  12:03:00      218.873      103.434       13.223       73.307       81.787       70.420     5373.893     6689.171     4959.030        3.790        0.851      242.083       25.452        0.011      337.712        9.868      870.844
01/24/2014  12:04:00      151.352       67.383       41.300       72.459       57.990       58.946     5250.262     3362.872     3474.652        2.062        0.604      165.674       38.599        0.054      337.768        9.964      870.845
01/24/2014  12:05:00       82.521       35.273      125.304      115.739      185.079      100.009    13395.433    34254.194    10001.815        4.069        2.883       89.744      128.048        2.036      337.768        9.963      870.826
01/24/2014  12:06:00      174.512      104.968       24.767       98.361       94.119       64.018     9674.945     8858.438     4098.251        3.235        1.132      203.649       21.928        0.012      337.899       10.183      870.807
01/24/2014  12:07:00      125.699       89.465       65.645       58.108       53.374       57.648     3376.542     2848.752     3323.318        1.883        0.477      154.286       28.238        0.033      337.939       10.250      870.814
01/24/2014  12:08:00      108.073       75.375       49.532      104.817       86.512       82.146    10986.650     7484.269     6747.917        2.251        1.261      131.761       67.054        0.259      338.055       10.445      870.797
01/24/2014  12:09:00       91.654      142.485      130.172      103.643       80.574       69.011    10741.922     6492.092     4762.527        3.382        1.100      169.418       60.044        0.126      338.031       10.403      870.781
01/24/2014  12:10:00      152.992      144.377      118.250       94.592       58.877       63.477     8947.603     3466.468     4029.367        3.734        0.822      210.360       51.855        0.061      337.863       10.122      870.786
01/24/2014  12:11:00      129.221      154.843      127.891       94.310       83.890       74.474     8894.414     7037.581     5546.433        3.925        1.074      201.679       61.861        0.094      337.714        9.871      870.771
01/24/2014  12:12:00       73.184       -6.173       39.749      118.967      132.563       57.138    14153.144    17572.968     3264.753        2.098        1.750       73.444       58.815        0.641      337.860       10.117      870.766
01/24/2014  12:13:00       49.132      -27.313       47.300       54.863      113.143       64.914     3009.909    12801.304     4213.874        1.271        1.001       56.214       79.141        1.982      337.908       10.200      870.762
01/24/2014  12:14:00       47.822       33.055       89.032       97.448      148.344       66.479     9496.030    22005.858     4419.401        2.361        1.796       58.134       92.716        2.544      337.980       10.318      870.765
01/24/2014  12:15:00       90.464       -7.606       62.591       89.061      115.557       66.960     7931.779    13353.306     4483.673        1.896        1.288       90.783       51.648        0.324      338.221       10.725      870.762
01/24/2014  12:16:00      177.919      122.820       98.146      103.223       71.830       70.002    10654.979     5159.491     4900.329        3.854        1.036      216.194       53.261        0.061      337.884       10.156      870.737
01/24/2014  12:17:00      205.651      120.805       46.011      104.640       67.066       61.382    10949.518     4497.814     3767.778        3.911        0.961      238.508       58.912        0.061      337.690        9.832      870.743
01/24/2014  12:18:00      109.443       43.722       25.561       55.911       61.871       34.709     3125.992     3827.974     1204.699        1.135        0.408      117.853       25.139        0.045      337.732        9.905      870.737
01/24/2014  12:19:00      110.429       83.721      106.727      101.065       69.400       61.389    10214.191     4816.294     3768.569        2.469        0.940      138.577       50.746        0.134      337.934       10.242      870.724
01/24/2014  12:20:00       96.814       62.029       66.012       83.623       70.447       62.258     6992.806     4962.805     3876.094        1.670        0.792      114.980       43.738        0.145      337.959       10.285      870.692
01/24/2014  12:21:00      150.120      135.372       11.157       88.374       63.242       59.943     7810.031     3999.584     3593.206        2.819        0.770      202.142       36.833        0.033      338.030       10.403      870.672
01/24/2014  12:22:00      267.393      183.096       39.243      110.277       87.111       78.656    12160.925     7588.385     6186.741        6.624        1.297      324.073       37.168        0.013      337.683        9.819      870.657
01/24/2014  12:23:00      265.695      132.250       28.133      103.577      114.044       70.828    10728.132    13005.986     5016.596        5.881        1.438      296.789       68.046        0.053      337.700        9.848      870.656
01/24/2014  12:24:00      174.901      123.265       55.117       96.355       71.920       65.149     9284.260     5172.547     4244.387        3.376        0.935      213.974       64.520        0.091      337.707        9.859      870.639
01/24/2014  12:25:00      145.648       48.212       29.903      118.279       63.039       55.410    13990.038     3973.964     3070.304        2.273        1.052      153.420       25.798        0.028      337.785        9.994      870.626
01/24/2014  12:26:00      252.427      154.491       40.774      139.090      105.816       54.565    19346.061    11196.955     2977.320        6.138        1.676      295.950       48.360        0.027      337.702        9.852      870.613
01/24/2014  12:27:00       55.693       80.854       86.189       70.882       69.024       48.439     5024.268     4764.263     2346.332        1.460        0.607       98.179       44.836        0.209      338.071       10.472      870.613
01/24/2014  12:28:00       65.604      -42.906       35.821       57.969      111.194       68.705     3360.360    12364.132     4720.396        1.393        1.022       78.388       74.016        0.892      338.243       10.762      870.606
01/24/2014  12:29:00       96.806      -73.033       29.899       92.820      116.613       98.215     8615.628    13598.583     9646.262        2.372        1.593      121.265       93.636        0.596      338.084       10.493      870.606
01/24/2014  12:30:00      154.544     -173.315      -27.939       75.742       78.982       46.716     5736.876     6238.145     2182.364        3.443        0.708      232.211       54.680        0.055      337.694        9.839      870.614
01/24/2014  12:31:00       98.497      -65.820       26.106       84.816       85.247       55.075     7193.744     7267.096     3033.231        1.610        0.875      118.465       65.293        0.304      337.896       10.179      870.617
01/24/2014  12:32:00      109.385       -2.512       66.075      114.914      129.337       79.720    13205.223    16727.958     6355.236        2.631        1.814      109.414       85.453        0.610      337.999       10.352      870.606
01/24/2014  12:33:00      205.642     -154.071      -10.400       96.899      151.297       60.535     9389.348    22890.681     3664.438        5.103        1.797      256.956       73.569        0.082      337.778        9.979      870.577
01/24/2014  12:34:00      117.066       30.974       68.397       97.002      134.329       70.655     9409.440    18044.312     4992.192        2.589        1.622      121.094       55.657        0.211      337.927       10.230      870.581
01/24/2014  12:35:00      205.412      134.688      108.468      102.391      110.336       87.634    10483.825    12174.120     7679.660        5.121        1.517      245.632       71.396        0.084      337.802       10.019      870.576
01/24/2014  12:36:00      148.989      127.083      121.792      107.417       90.389       65.761    11538.465     8170.157     4324.481        3.860        1.202      195.826       53.098        0.074      337.768        9.962      870.568
01/24/2014  12:37:00      148.178       89.084      111.802      101.646       87.136       69.445    10331.917     7592.758     4822.594        3.257        1.137      172.895       59.037        0.117      337.803       10.019      870.550
01/24/2014  12:38:00       68.106       53.780       88.642       95.474       94.374       53.017     9115.352     8906.419     2810.839        1.811        1.042       86.779       46.524        0.287      338.026       10.396      870.537
01/24/2014  12:39:00      127.636      110.753       91.961       85.266       57.911       52.776     7270.272     3353.650     2785.342        2.521        0.670      168.989       42.514        0.063      337.826       10.060      870.512
01/24/2014  12:40:00       55.516      122.140      145.537       67.792       63.747       34.614     4595.728     4063.619     1198.157        2.452        0.493      134.165       24.884        0.034      337.859       10.115      870.484
01/24/2014  12:41:00      149.229      128.531      138.022      115.811       85.383       85.984    13412.146     7290.294     7393.220        4.296        1.405      196.951       69.522        0.125      337.956       10.277      870.464
01/24/2014  12:42:00      192.398      156.480      148.047      152.162      100.521      115.599    23153.347    10104.436    13363.057        6.501        2.331      247.998       93.367        0.142      337.683        9.820      870.441
01/24/2014  12:43:00      175.402      168.052      175.118      140.249      126.518       86.572    19669.679    16006.924     7494.655        6.641        2.159      242.914       81.150        0.112      337.927       10.228      870.421
01/24/2014  12:44:00      177.641      -33.146       52.309       90.810      165.692       90.586     8246.451    27453.770     8205.881        3.964        2.195      180.707      100.527        0.309      337.882       10.154      870.429
01/24/2014  12:45:00      144.869     -121.063        2.568       93.081      114.106       51.861     8664.027    13020.166     2689.554        3.001        1.219      188.794       58.164        0.095      337.901       10.186      870.426
01/24/2014  12:46:00       71.135       39.239       51.015       71.012       86.610       63.099     5042.697     7501.329     3981.470        1.286        0.826       81.240       56.131        0.477      337.917       10.214      870.427
01/24/2014  12:47:00       68.755       27.134       32.417       52.536       36.429       30.112     2760.014     1327.086      906.706        0.575        0.250       73.916       25.851        0.122      337.843       10.090      870.423
01/24/2014  12:48:00       78.373        7.845       16.116       45.214       57.334       36.690     2044.350     3287.181     1346.190        0.657        0.334       78.765       38.525        0.239      337.781        9.988      870.421
01/24/2014  12:49:00       64.847       25.036       16.929       58.877       46.404       37.330     3466.522     2153.375     1393.503        0.606        0.351       69.512       31.043        0.199      337.756        9.944      870.408
01/24/2014  12:50:00      133.716       79.323       33.606       72.001       65.126       45.980     5184.210     4241.344     2114.115        1.842        0.577      155.473       28.989        0.035      337.829       10.066      870.395
01/24/2014  12:51:00       80.362       52.519       53.381       50.968       52.083       40.624     2597.782     2712.651     1650.316        0.951        0.348       96.002       16.359        0.029      337.944       10.261      870.392
01/24/2014  12:52:00      116.836       77.194       42.533       90.311       52.508       49.029     8156.119     2757.107     2403.858        1.737        0.666      140.035       40.297        0.083      338.002       10.357      870.381
01/24/2014  12:53:00       17.900       31.647       30.703       52.737       44.778       42.102     2781.198     2005.113     1772.553        0.441        0.328       36.358       33.852        0.867      338.295       10.849      870.362
01/24/2014  12:54:00      180.361      120.577       52.067      108.400       53.783       52.735    11750.575     2892.558     2780.959        3.360        0.871      216.954       43.192        0.040      337.906       10.195      870.340
01/24/2014  12:55:00      156.390       34.645       10.533       94.678       72.970       49.981     8963.838     5324.645     2498.096        2.127        0.839      160.182       40.130        0.063      337.837       10.080      870.327
01/24/2014  12:56:00       36.114       54.665       46.414       57.779       43.475       46.303     3338.389     1890.103     2143.942        0.691        0.369       65.517       34.877        0.283      338.428       11.075      870.313
01/24/2014  12:57:00       67.729       51.537       77.444       72.711       62.237       58.180     5286.908     3873.482     3384.906        1.289        0.627       85.108       50.844        0.357      338.334       10.915      870.301
01/24/2014  12:58:00       92.108     -115.603       10.690       86.168       85.476       65.101     7424.937     7306.185     4238.079        2.046        0.948      147.811       51.189        0.120      338.232       10.742      870.279
01/24/2014  12:59:00      129.335     -153.933        8.713      107.213      156.753       67.148    11494.526    24571.609     4508.871        4.053        2.029      201.055       85.647        0.181      338.216       10.715      870.286
01/24/2014  13:00:00       86.600       47.916       95.670      116.438       85.139       85.413    13557.773     7248.642     7295.453        2.352        1.405       98.972       75.114        0.576      338.371       10.974      870.259
01/24/2014  13:01:00      154.947      -68.100       49.278      112.054      137.224       86.724    12556.007    18830.539     7521.012        3.498        1.945      169.252       94.505        0.312      338.471       11.143      870.252
01/24/2014  13:02:00       73.412       21.502      109.496      112.166      179.023      128.335    12581.265    32049.407    16469.919        3.946        3.055       76.496      139.627        3.332      338.362       10.960      870.238
01/24/2014  13:03:00       96.511      159.825      206.793      128.733      140.973      117.875    16572.060    19873.264    13894.476        6.397        2.517      186.704      126.111        0.456      338.239       10.752      870.216
01/24/2014  13:04:00      177.023       22.399       91.968      121.932      182.465      116.994    14867.414    33293.533    13687.555        5.106        3.092      178.434      132.009        0.547      338.259       10.785      870.206
01/24/2014  13:05:00      151.598      136.665      130.606       83.824       58.065       53.219     7026.449     3371.487     2832.283        3.597        0.662      204.106       37.122        0.033      338.201       10.689      870.223
01/24/2014  13:06:00       93.318      108.395       73.732       58.156       55.435       63.288     3382.111     3073.083     4005.411        1.818        0.523      143.030       39.181        0.075      338.144       10.594      870.219
01/24/2014  13:07:00       50.559      -58.549        5.370       87.878      150.445       43.073     7722.462    22633.796     1855.263        1.911        1.611       77.358       69.735        0.813      338.316       10.885      870.192
01/24/2014  13:08:00       96.342      -54.517       38.271       92.268      162.410       80.021     8513.329    26377.160     6403.352        2.750        2.065      110.697       91.766        0.687      338.466       11.136      870.157
01/24/2014  13:09:00      227.966     -224.052      -31.350      119.309      204.114       89.521    14234.695    41662.554     8013.974        8.352        3.196      319.637      131.351        0.169      338.114       10.542      870.150
01/24/2014  13:10:00      199.023     -199.245      -49.914       83.163      106.790       57.062     6916.164    11404.061     3256.068        5.168        1.079      281.618       58.353        0.043      337.921       10.219      870.156
01/24/2014  13:11:00      151.679     -216.689      -27.369       69.520       91.234       47.013     4833.076     8323.642     2210.185        4.304        0.768      264.501       38.422        0.021      338.064       10.460      870.169
01/24/2014  13:12:00       40.594      -46.951       30.657       30.872       61.703       40.549      953.076     3807.275     1644.240        0.560        0.320       62.067       44.557        0.515      338.374       10.983      870.153
01/24/2014  13:13:00       64.973      -26.537        8.556       37.142       73.180       30.036     1379.498     5355.329      902.137        0.632        0.382       70.183       26.105        0.138      338.325       10.900      870.136
01/24/2014  13:14:00       38.387       35.730       78.691       57.091       75.593       48.236     3259.421     5714.262     2326.664        1.012        0.565       52.442       34.139        0.424      338.636       11.423      870.123
01/24/2014  13:15:00       27.621       42.812       92.818       64.450       91.151       60.866     4153.739     8308.515     3704.675        1.369        0.808       50.949       63.956        1.576      338.493       11.181      870.106
01/24/2014  13:16:00      -22.880       67.682      103.922       27.391       45.773       30.613      750.241     2095.211      937.135        0.984        0.189       71.445       26.688        0.140      338.546       11.271      870.102
01/24/2014  13:17:00       -3.308       70.682       94.468       34.205       51.403       26.407     1169.955     2642.274      697.324        0.922        0.225       70.759       27.805        0.154      338.760       11.631      870.108
01/24/2014  13:18:00       46.798       19.461        9.158       59.329       39.188       30.873     3519.973     1535.675      953.160        0.433        0.300       50.684       27.232        0.289      338.624       11.402      870.103
01/24/2014  13:19:00      110.300       63.835       76.515       85.407       83.624       70.875     7294.291     6993.047     5023.238        2.070        0.966      127.441       66.879        0.275      338.302       10.861      870.078
01/24/2014  13:20:00      111.556       79.113       60.581       94.842       70.074       64.312     8994.984     4910.380     4136.087        2.020        0.902      136.761       55.083        0.162      338.205       10.698      870.065
01/24/2014  13:21:00      117.171      -55.936       11.842       98.331      148.168       59.192     9668.921    21953.743     3503.708        2.606        1.756      129.837       78.112        0.362      338.128       10.567      870.063
01/24/2014  13:22:00      118.311      -57.037       31.717       83.110      110.974       75.829     6907.234    12315.276     5750.074        2.161        1.249      131.342       81.480        0.385      338.159       10.618      870.037
01/24/2014  13:23:00      128.790      -49.832       26.590       70.806      101.863       58.262     5013.433    10376.125     3394.454        1.928        0.939      138.094       66.089        0.229      338.136       10.581      870.028
01/24/2014  13:24:00       75.125       56.048       14.711       44.617       37.488       40.542     1990.714     1405.354     1643.651        0.702        0.252       93.729       25.206        0.072      338.337       10.919      870.027
01/24/2014  13:25:00       88.010       30.899       24.444       59.963       46.344       35.673     3595.516     2147.740     1272.540        0.816        0.351       93.276       33.953        0.132      338.399       11.023      870.017
01/24/2014  13:26:00      104.388       73.770       47.435       95.675       52.780       45.691     9153.779     2785.728     2087.705        1.631        0.701      127.823       17.126        0.018      338.381       10.991      870.005
01/24/2014  13:27:00      126.656       82.985       48.712       97.767       57.137       57.796     9558.399     3264.692     3340.420        2.073        0.808      151.421       54.907        0.131      338.512       11.211      870.017
01/24/2014  13:28:00       46.806       45.043       23.283       75.413       43.184       47.903     5687.081     1864.826     2294.719        0.730        0.492       64.959       33.782        0.270      338.375       10.984      870.021
01/24/2014  13:29:00      142.245      112.071       85.614      133.591       84.723       73.230    17846.608     7178.031     5362.632        3.525        1.519      181.090       69.972        0.149      338.195       10.680      870.017
01/24/2014  13:30:00      250.952      157.240       11.264       95.034       74.598       66.631     9031.478     5564.913     4439.724        5.343        0.952      296.144       45.444        0.024      338.153       10.610      870.009
01/24/2014  13:31:00      144.584      100.926       14.125      106.700       90.144       70.340    11384.948     8126.025     4947.671        2.787        1.223      176.325       43.967        0.062      338.083       10.491      869.996
01/24/2014  13:32:00       93.164       65.516       35.606       72.674       77.880       53.501     5281.453     6065.354     2862.321        1.422        0.710      113.894       31.425        0.076      338.412       11.046      870.010
01/24/2014  13:33:00      100.874       69.282       -0.122       86.350       75.961       43.606     7456.400     5770.005     1901.456        1.505        0.756      122.374       18.868        0.024      338.391       11.010      869.995
01/24/2014  13:34:00      202.326      129.329       48.388       78.573       77.055       61.876     6173.755     5937.477     3828.700        3.797        0.797      240.129       41.977        0.031      338.281       10.822      869.992
01/24/2014  13:35:00       96.594       78.141       71.109       96.417       92.997       67.332     9296.332     8648.516     4533.590        2.148        1.124      124.243       60.742        0.239      338.617       11.388      870.010
01/24/2014  13:36:00      130.241      130.756      155.955      123.190      104.320       86.966    15175.801    10882.734     7563.170        4.600        1.681      184.553       78.349        0.180      338.067       10.463      870.005
01/24/2014  13:37:00       13.275       50.135       80.693       50.560       62.001       47.057     2556.322     3844.104     2214.339        0.891        0.431       51.863       41.922        0.653      338.254       10.780      870.015
01/24/2014  13:38:00      106.151       76.616       12.244       84.867       72.583       47.700     7202.398     5268.333     2275.247        1.601        0.737      130.912       33.907        0.067      338.310       10.874      869.988
01/24/2014  13:39:00      233.382      149.475       21.717       60.935       69.589       50.573     3713.037     4842.599     2557.658        4.420        0.556      277.146       31.521        0.013      338.267       10.799      869.986
01/24/2014  13:40:00      303.811      138.872       16.952      119.412      110.011       81.645    14259.158    12102.319     6665.936        7.244        1.651      334.046       51.089        0.023      338.274       10.811      869.990
01/24/2014  13:41:00      211.006      111.745       65.228      109.726       78.606       76.293    12039.736     6178.927     5820.619        4.265        1.202      238.768       31.617        0.018      338.268       10.801      869.991
01/24/2014  13:42:00      142.939      103.874       52.097      112.133       82.394       43.377    12573.826     6788.809     1881.543        2.759        1.062      176.696       20.191        0.013      338.258       10.786      869.999
01/24/2014  13:43:00      122.718       92.259       47.328       95.883       64.882       56.215     9193.612     4209.667     3160.100        2.118        0.828      153.530       46.992        0.094      338.468       11.138      869.994
01/24/2014  13:44:00      120.635      125.056      118.203      117.621       87.167       82.060    13834.649     7598.008     6733.794        3.616        1.408      173.758       71.208        0.168      338.411       11.042      870.006
01/24/2014  13:45:00      158.776       61.697       32.874       75.960       66.860       65.126     5769.921     4470.296     4241.346        2.229        0.724      170.341       53.591        0.099      338.088       10.500      870.002
01/24/2014  13:46:00       99.460      106.500       76.310       63.102       57.612       67.085     3981.834     3319.138     4500.346        1.943        0.590      145.720       51.652        0.126      338.105       10.529      869.982
01/24/2014  13:47:00      145.940      103.580       44.474       57.394       74.614       78.917     3294.051     5567.316     6227.935        2.454        0.754      178.962       53.258        0.089      338.266       10.800      869.982
01/24/2014  13:48:00       90.362       77.439       96.391      104.158       74.986       61.320    10848.907     5622.845     3760.180        2.184        1.012      119.004       54.290        0.208      338.289       10.839      869.940
01/24/2014  13:49:00      270.472      186.175       46.447      138.915       86.925       60.645    19297.257     7556.033     3677.859        7.025        1.527      328.354       46.102        0.020      338.201       10.690      869.927
01/24/2014  13:50:00      197.449      106.407       17.147       85.921       88.453       50.055     7382.422     7823.872     2505.508        3.415        0.886      224.296       16.290        0.005      338.272       10.808      869.920
01/24/2014  13:51:00      149.161       83.568       22.718      105.692       78.997       56.989    11170.716     6240.534     3247.712        2.520        1.033      170.975       33.563        0.039      338.324       10.896      869.927
01/24/2014  13:52:00      143.391       95.051       20.614      122.733       78.512       55.309    15063.370     6164.137     3059.109        2.715        1.214      172.034       35.648        0.043      338.213       10.710      869.943
01/24/2014  13:53:00      165.694       72.439       34.600      133.202       91.038       68.315    17742.650     8287.827     4666.949        3.229        1.535      180.837       39.302        0.047      338.441       11.094      869.963
01/24/2014  13:54:00      111.123      -47.580       36.771       78.969       89.647       64.199     6236.129     8036.648     4121.534        1.718        0.920      120.881       63.537        0.276      338.631       11.412      869.985
01/24/2014  13:55:00       68.501      -27.082       39.917       64.315      112.782       68.956     4136.387    12719.834     4754.923        1.431        1.081       73.660       79.104        1.153      338.426       11.067      869.984
01/24/2014  13:56:00       89.309      -23.187       82.218       94.478      155.228       78.695     8926.087    24095.818     6192.825        2.724        1.961       92.270       82.082        0.791      338.529       11.241      869.975
01/24/2014  13:57:00      126.431      114.318       12.869       78.510       47.288       46.002     6163.797     2236.188     2116.172        1.987        0.526      170.451       24.411        0.021      338.483       11.164      869.989
01/24/2014  13:58:00      193.267      109.924       32.074      102.339       76.448       57.499    10473.208     5844.298     3306.185        3.504        0.981      222.341       48.014        0.047      338.329       10.905      869.985
01/24/2014  13:59:00      134.350       98.437       85.218       99.458       63.215       58.727     9891.884     3996.096     3448.918        2.617        0.867      166.553       60.714        0.133      338.436       11.085      869.961
01/24/2014  14:00:00      176.210       93.726       52.829       99.856       79.645       76.579     9971.133     6343.403     5864.294        3.240        1.109      199.586       54.276        0.074      338.578       11.321      869.946
01/24/2014  14:01:00      131.725      135.526      156.270      129.605      121.815       87.296    16797.383    14838.914     7620.612        4.969        1.963      188.994       92.925        0.242      338.385       10.998      869.938
01/24/2014  14:02:00      123.811      108.829       84.564      103.158       90.032       86.918    10641.612     8105.790     7554.781        3.031        1.315      164.843       68.990        0.175      338.323       10.896      869.915
01/24/2014  14:03:00      108.627       41.114       64.203       66.155       61.512       63.019     4376.433     3783.666     3971.389        1.487        0.607      116.147       57.239        0.243      338.356       10.951      869.909
01/24/2014  14:04:00       98.651       85.536       91.735       75.497       66.287       49.720     5699.730     4394.011     2472.087        1.901        0.628      130.570       47.666        0.133      338.612       11.382      869.890
01/24/2014  14:05:00      200.626      251.050      202.853      131.825      112.145      105.698    17377.755    12576.509    11172.039        9.277        2.056      321.368       81.235        0.064      338.235       10.746      869.871
01/24/2014  14:06:00      165.288      111.606      113.350       99.767       97.078       77.677     9953.408     9424.228     6033.680        3.901        1.271      199.439       59.911        0.090      338.250       10.771      869.906
01/24/2014  14:07:00       86.782       94.247       95.508       73.785       65.892       32.100     5444.198     4341.772     1030.440        1.817        0.541      128.116       17.935        0.020      338.488       11.173      869.917
01/24/2014  14:08:00      125.800        7.256       28.218       68.461       77.397       53.746     4686.886     5990.321     2888.595        1.512        0.678      126.009       54.399        0.186      338.501       11.196      869.917
01/24/2014  14:09:00      115.650       89.040       92.177       95.091       74.001       71.675     9042.261     5476.083     5137.364        2.472        0.983      145.956       62.202        0.182      338.590       11.343      869.893
01/24/2014  14:10:00       40.822       67.400       76.751       59.550       70.551       68.304     3546.259     4977.510     4665.448        1.264        0.659       78.798       63.777        0.655      338.704       11.536      869.902
01/24/2014  14:11:00       80.223       80.086       51.479       87.895       87.288       63.679     7725.613     7619.282     4054.993        1.745        0.970      113.356       38.719        0.117      338.820       11.732      869.899
01/24/2014  14:12:00       77.932       44.276       51.143       65.374       53.119       49.313     4273.797     2821.577     2431.763        1.009        0.476       89.631       31.579        0.124      338.791       11.682      869.903
01/24/2014  14:13:00       90.014       76.333       80.875       94.807       77.330       63.577     8988.451     5979.875     4041.974        1.974        0.951      118.022       52.674        0.199      338.906       11.875      869.889
01/24/2014  14:14:00      211.012      121.293       92.888      141.514      121.808       93.449    20026.179    14837.163     8732.713        5.572        2.180      243.388       77.033        0.100      338.491       11.175      869.874
01/24/2014  14:15:00      250.476      134.962       44.246      141.548      122.429       81.636    20035.776    14988.859     6664.466        6.229        2.084      284.522       52.845        0.034      338.421       11.058      869.861
01/24/2014  14:16:00      198.207       63.983       66.730      122.526       93.169       77.377    15012.691     8680.370     5987.248        3.875        1.484      208.278       53.037        0.065      338.611       11.378      869.855
01/24/2014  14:17:00       71.631       98.449      101.902       98.728       76.335       94.248     9747.127     5827.018     8882.727        2.483        1.223      121.751       71.313        0.343      338.594       11.350      869.848
01/24/2014  14:18:00      118.931       66.400       52.002      132.258       89.942       70.934    17492.206     8089.483     5031.582        2.593        1.531      136.211       67.398        0.245      338.751       11.613      869.838
01/24/2014  14:19:00      190.029      130.646       84.150      145.613      116.239       85.245    21203.157    13511.410     7266.724        5.111        2.099      230.607       63.770        0.076      338.694       11.517      869.821
01/24/2014  14:20:00      199.540      102.740       78.706      123.138       97.055       76.171    15162.877     9419.714     5801.976        4.347        1.519      224.436       46.631        0.043      338.483       11.163      869.847
01/24/2014  14:21:00      231.580      116.834       63.836      143.804      110.830      101.867    20679.518    12283.298    10376.914        5.734        2.167      259.383       75.083        0.084      338.410       11.039      869.857
01/24/2014  14:22:00      196.449       50.356       35.200       98.327       70.242       48.873     9668.141     4933.967     2388.556        2.968        0.850      202.801       36.080        0.032      338.485       11.166      869.870
01/24/2014  14:23:00      132.613       61.542       72.593       93.583       66.231       61.623     8757.859     4386.600     3797.369        2.179        0.847      146.197       42.473        0.084      338.688       11.507      869.875
01/24/2014  14:24:00      132.732      121.762      103.931      107.715       91.324       74.778    11602.488     8340.079     5591.688        3.438        1.277      180.121       57.555        0.102      338.673       11.482      869.872
01/24/2014  14:25:00       79.252       96.718      118.621       87.599       82.101       60.026     7673.667     6740.648     3603.077        2.386        0.901      125.041       57.038        0.208      338.615       11.386      869.874
01/24/2014  14:26:00      123.549      119.754       83.503      105.657       63.516       73.735    11163.357     4034.320     5436.837        2.860        1.032      172.062       69.441        0.163      338.587       11.337      869.858
01/24/2014  14:27:00      149.207      126.450      119.467      121.029      118.069       92.471    14647.933    13940.282     8550.807        4.482        1.857      195.582       81.971        0.176      338.640       11.426      869.835
01/24/2014  14:28:00      196.290      137.889      130.859      111.982      105.526       80.254    12540.015    11135.631     6440.734        5.239        1.506      239.881       72.658        0.092      338.579       11.322      869.821
01/24/2014  14:29:00      127.994      106.603      122.772      149.106      108.202      109.566    22232.688    11707.769    12004.690        4.437        2.297      166.573      102.745        0.380      338.535       11.251      869.817
01/24/2014  14:30:00      177.966      136.039      143.079      131.049       95.844       89.339    17173.718     9186.036     7981.474        5.249        1.717      224.006       73.725        0.108      338.484       11.163      869.837
01/24/2014  14:31:00      209.311      139.123      136.159      147.395      133.234       96.172    21725.410    17751.412     9249.090        6.521        2.436      251.328       75.165        0.089      338.368       10.969      869.844
01/24/2014  14:32:00      137.458       74.337       66.019      115.237      113.562       81.653    13279.646    12896.233     6667.257        3.080        1.642      156.271       79.803        0.261      338.596       11.353      869.857
01/24/2014  14:33:00      237.809      106.832       87.362      138.842      109.774       80.445    19277.158    12050.337     6471.466        5.669        1.890      260.703       50.523        0.038      338.451       11.109      869.842
01/24/2014  14:34:00      112.900       97.149      100.175      121.914       92.245       74.936    14863.080     8509.196     5615.420        3.060        1.449      148.944       46.021        0.095      338.679       11.493      869.833
01/24/2014  14:35:00       90.059       86.502       76.034       62.987       66.116       54.445     3967.301     4371.322     2964.267        1.634        0.565      124.873       39.381        0.099      338.632       11.414      869.855
01/24/2014  14:36:00       77.272       32.523       35.605       80.709       66.883       47.568     6513.984     4473.313     2262.670        1.077        0.662       83.838       31.068        0.137      338.606       11.370      869.849
01/24/2014  14:37:00      177.823       88.251      117.209      145.760      105.510       80.266    21245.875    11132.305     6442.588        4.598        1.941      198.518       89.292        0.202      338.527       11.236      869.832
01/24/2014  14:38:00      208.114      138.163       58.922      105.119       94.435      109.161    11050.087     8917.926    11916.031        4.887        1.594      249.801       78.031        0.098      338.621       11.394      869.834
01/24/2014  14:39:00      125.549      -47.175       44.039      127.334      123.350       85.894    16214.065    15215.303     7377.853        2.936        1.940      134.120       89.943        0.450      338.837       11.758      869.856
01/24/2014  14:40:00      143.902       -2.479       61.144      111.110      109.637       68.932    12345.471    12020.222     4751.621        2.678        1.456      143.924       61.071        0.180      338.692       11.513      869.857
01/24/2014  14:41:00       66.432       84.061       97.557       81.391       83.150       53.978     6624.435     6913.890     2913.598        1.872        0.823      107.142       41.154        0.148      338.806       11.707      869.864
01/24/2014  14:42:00       46.680       62.283      100.271       95.168       97.953       72.740     9056.921     9594.760     5291.041        2.002        1.197       77.834       74.604        0.919      338.539       11.257      869.874
01/24/2014  14:43:00      132.517      -32.065       43.109       78.792       62.923       45.774     6208.156     3959.275     2095.250        1.635        0.613      136.341       41.915        0.095      338.621       11.396      869.856
01/24/2014  14:44:00       87.301      -33.673       40.005       69.930       83.464       58.380     4890.274     6966.205     3408.217        1.281        0.763       93.570       50.786        0.295      338.826       11.742      869.826
01/24/2014  14:45:00      205.502      124.437      103.122      152.619      116.201      102.066    23292.503    13502.781    10417.543        5.777        2.361      240.241       90.135        0.141      338.622       11.395      869.802
01/24/2014  14:46:00       74.159       77.869       83.444      119.118       90.789       68.524    14189.078     8242.733     4695.578        2.282        1.356      107.532       56.384        0.275      338.857       11.794      869.803
01/24/2014  14:47:00       97.635       35.796       85.962       97.355       95.808       70.923     9477.949     9179.204     5030.072        2.094        1.184      103.990       60.960        0.344      338.749       11.611      869.815
01/24/2014  14:48:00      123.109       98.398      116.218      105.327       87.448       72.414    11093.718     7647.165     5243.760        3.116        1.199      157.601       64.689        0.168      338.684       11.500      869.809
01/24/2014  14:49:00      199.179      150.971      133.878      151.200      135.754      108.758    22861.460    18429.193    11828.321        6.674        2.656      249.929      111.677        0.200      338.508       11.203      869.815
01/24/2014  14:50:00      151.620      169.561      156.474      132.622      121.272       93.697    17588.607    14706.876     8779.062        5.864        2.054      227.464       80.716        0.126      338.473       11.146      869.821
01/24/2014  14:51:00      236.834      199.433      137.777      126.285      145.388       96.761    15947.818    21137.553     9362.686        8.064        2.322      309.618       88.205        0.081      338.319       10.887      869.819
01/24/2014  14:52:00      141.348      144.035      100.057      132.660       84.019       90.366    17598.561     7059.169     8166.074        4.177        1.641      201.805       94.409        0.219      338.517       11.219      869.821
01/24/2014  14:53:00      168.973      101.441       98.220      102.431       91.555       73.612    10492.111     8382.254     5418.679        3.639        1.215      197.084       55.881        0.080      338.482       11.161      869.814
01/24/2014  14:54:00      216.770       95.503       35.618      114.144       77.468       81.964    13028.793     6001.260     6718.088        4.156        1.287      236.875       57.701        0.059      338.434       11.081      869.809
01/24/2014  14:55:00       98.973       97.109       43.178      109.054       89.343       78.749    11892.808     7982.084     6201.433        2.358        1.304      138.657       55.288        0.159      338.712       11.547      869.798
01/24/2014  14:56:00      160.599      172.876      103.505      121.143      113.925       98.798    14675.587    12978.934     9760.959        5.190        1.871      235.963       82.217        0.121      338.575       11.315      869.803
01/24/2014  14:57:00      165.257       89.874       82.726      151.105       86.869       71.179    22832.637     7546.160     5066.402        3.883        1.772      188.115       57.091        0.092      338.550       11.275      869.808
01/24/2014  14:58:00      145.365      116.064       96.865       99.476       80.191       68.154     9895.399     6430.605     4644.935        3.247        1.049      186.016       44.487        0.057      338.599       11.358      869.821
01/24/2014  14:59:00      277.633      158.247       48.491      142.054      110.085       71.578    20179.453    12118.698     5123.451        7.094        1.871      319.566       22.776        0.005      338.470       11.140      869.817
01/24/2014  15:00:00      234.660      143.170       74.708      112.576       90.928       68.043    12673.319     8267.845     4629.864        5.335        1.279      274.887       29.421        0.011      338.480       11.158      869.824
01/24/2014  15:01:00      206.909      128.840       48.328      117.773       86.752       80.566    13870.526     7525.880     6490.865        4.481        1.394      243.744       19.097        0.006      338.547       11.271      869.822
01/24/2014  15:02:00      194.976      118.051       32.477      140.764      121.571       76.827    19814.551    14779.569     5902.348        4.674        2.025      227.929       53.650        0.055      338.592       11.346      869.820
01/24/2014  15:03:00      331.556      181.261       55.334      141.581      119.553       90.172    20045.075    14293.030     8130.916        9.415        2.123      377.869       53.517        0.020      338.386       10.999      869.825
01/24/2014  15:04:00      124.839       92.121       42.133      113.312       76.668       74.648    12839.635     5878.014     5572.257        2.506        1.214      155.148       54.053        0.121      338.492       11.178      869.828
01/24/2014  15:05:00      239.732      167.507       77.081      150.038      101.119       90.474    22511.261    10225.101     8185.625        6.619        2.046      292.455       69.808        0.057      338.406       11.034      869.826
01/24/2014  15:06:00      192.478      113.842       40.207       79.985       61.273       58.684     6397.615     3754.426     3443.847        3.261        0.680      223.624       42.223        0.036      338.594       11.349      869.844
01/24/2014  15:07:00      224.435      114.326       48.204      110.478       84.779       70.154    12205.340     7187.559     4921.553        4.504        1.216      251.876       59.252        0.055      338.559       11.289      869.849
01/24/2014  15:08:00      238.144       85.261       72.594      129.153      130.850       81.850    16680.487    17121.668     6699.369        5.487        2.025      252.946       74.736        0.087      338.490       11.172      869.847
01/24/2014  15:09:00      189.398       57.471       54.332      133.982       90.652       76.499    17951.127     8217.821     5852.173        3.707        1.601      197.926       31.889        0.026      338.484       11.166      869.858
01/24/2014  15:10:00      149.231       80.373       91.906      140.094       97.552       71.885    19626.311     9516.340     5167.523        3.574        1.716      169.498       72.968        0.185      338.539       11.258      869.862
01/24/2014  15:11:00      178.197      118.158      106.947      137.248       98.052      105.439    18836.919     9614.246    11117.392        4.835        1.978      213.812       96.379        0.203      338.456       11.116      869.848
01/24/2014  15:12:00      175.382       87.610       46.892      136.238       81.161       81.053    18560.787     6587.151     6569.617        3.617        1.586      196.047       80.226        0.167      338.523       11.229      869.857
01/24/2014  15:13:00      120.965      122.611       93.063       89.441       69.982       62.920     7999.689     4897.539     3958.908        2.759        0.843      172.238       44.318        0.066      338.654       11.449      869.872
01/24/2014  15:14:00      197.157      118.950      110.542      115.022      114.253       79.349    13230.071    13053.738     6296.305        4.890        1.629      230.261       63.364        0.076      338.564       11.298      869.879
01/24/2014  15:15:00      195.481      145.848      142.383      122.501      107.232       96.993    15006.420    11498.805     9407.732        5.783        1.796      243.895       78.623        0.104      338.416       11.049      869.881
01/24/2014  15:16:00      155.277      130.719      141.089      110.398      100.109       88.628    12187.686    10021.883     7854.890        4.558        1.503      202.974       78.912        0.151      338.383       10.994      869.887
01/24/2014  15:17:00      196.962       95.377       97.836      127.665       84.175       97.735    16298.334     7085.490     9552.156        4.519        1.647      218.839       73.612        0.113      338.442       11.093      869.903
01/24/2014  15:18:00      137.833      149.210      148.950       99.787       90.264       76.087     9957.480     8147.645     5789.213        4.367        1.195      203.129       72.733        0.128      338.478       11.153      869.901
01/24/2014  15:19:00       58.004      124.287      135.772      106.140      105.979       88.165    11265.727    11231.499     7773.020        3.375        1.514      137.156       89.209        0.423      338.629       11.409      869.921
01/24/2014  15:20:00       80.649      171.889      183.817      106.206      112.351       63.916    11279.697    12622.721     4085.203        4.891        1.399      189.869       77.811        0.168      338.529       11.239      869.943
01/24/2014  15:21:00       49.814       81.907      105.819       89.890       70.105       65.550     8080.193     4914.695     4296.851        1.884        0.865       95.865       61.737        0.415      338.590       11.345      869.959
01/24/2014  15:22:00      231.709      163.906       59.334      182.786      106.612       84.410    33410.864    11366.169     7125.060        6.798        2.595      283.820       89.786        0.100      338.524       11.231      869.981
01/24/2014  15:23:00      170.476      108.152       50.242      131.710       97.391       82.465    17347.510     9484.939     6800.536        3.845        1.682      201.889       56.760        0.079      338.390       11.007      869.993
01/24/2014  15:24:00      315.374      177.323       54.824      108.316       77.709       73.655    11732.386     6038.730     5425.002        7.855        1.160      361.807       39.959        0.012      338.369       10.970      870.004
01/24/2014  15:25:00      104.711      122.807      123.135      110.767       86.351       63.202    12269.301     7456.447     3994.507        3.246        1.186      161.387       57.907        0.129      338.489       11.174      870.007
01/24/2014  15:26:00       91.272       84.629       98.890      113.440       79.375       66.599    12868.681     6300.408     4435.467        2.443        1.180      124.470       71.369        0.329      338.687       11.507      870.008
01/24/2014  15:27:00      187.399       82.774       36.266       99.047       79.183       62.144     9810.266     6269.902     3861.816        3.161        0.997      204.865       40.833        0.040      338.498       11.188      870.018
01/24/2014  15:28:00      260.013      148.187       71.349      138.607      108.230       90.550    19211.772    11713.805     8199.247        6.688        1.956      299.276       57.769        0.037      338.388       11.002      870.009
01/24/2014  15:29:00      197.013      108.569       69.084      130.321       93.064       83.549    16983.513     8660.911     6980.410        4.399        1.631      224.947       66.335        0.087      338.409       11.037      869.997
01/24/2014  15:30:00      247.415      137.799       94.346      124.373      106.673       83.255    15468.702    11379.134     6931.388        6.143        1.689      283.201       69.220        0.060      338.433       11.075      869.966
01/24/2014  15:31:00       89.886       56.326       76.752       91.581       80.706       77.534     8387.135     6513.448     6011.465        1.902        1.046      106.076       44.266        0.174      338.558       11.290      869.965
01/24/2014  15:32:00       95.901       62.332       42.561       73.736       58.308       46.396     5437.034     3399.872     2152.599        1.294        0.549      114.378       42.244        0.136      338.598       11.357      869.969
01/24/2014  15:33:00       88.506      111.943      110.685       76.657       69.848       77.019     5876.294     4878.712     5931.983        2.465        0.834      142.705       59.959        0.177      338.613       11.382      869.952
01/24/2014  15:34:00      149.941       36.331       84.619      139.612       95.950       73.268    19491.479     9206.472     5368.234        3.251        1.703      154.280       77.653        0.253      338.589       11.341      869.932
01/24/2014  15:35:00      159.466       73.614       61.739      104.205       96.377       68.780    10858.692     9288.518     4730.655        2.976        1.244      175.637       55.150        0.099      338.513       11.213      869.942
01/24/2014  15:36:00       79.664       61.123       50.252      106.469       76.019       43.274    11335.638     5778.874     1872.620        1.579        0.949      100.411       31.685        0.100      338.600       11.362      869.947
01/24/2014  15:37:00      172.735      134.545       83.623      106.901       66.468       73.204    11427.743     4417.981     5358.778        3.806        1.060      218.951       56.526        0.067      338.548       11.272      869.961
01/24/2014  15:38:00      126.004       60.143       37.583       79.244       86.647       63.278     6279.650     7507.785     4004.091        1.935        0.890      139.622       39.008        0.078      338.582       11.330      869.964
01/24/2014  15:39:00      142.742      115.792       73.177       93.625       73.645       74.075     8765.726     5423.537     5487.054        2.940        0.984      183.802       36.214        0.039      338.533       11.246      869.970
01/24/2014  15:40:00      175.421      172.581      168.734       98.167      112.848       86.351     9636.700    12734.578     7456.491        5.942        1.491      246.083       71.675        0.085      338.387       11.000      869.967
01/24/2014  15:41:00      138.929       43.426       76.647      101.215       69.734       52.365    10244.388     4862.829     2742.087        2.245        0.892      145.557       50.791        0.122      338.425       11.066      869.988
01/24/2014  15:42:00      197.813      115.613       86.101      107.179       93.020       76.799    11487.395     8652.780     5898.099        4.297        1.302      229.121       46.559        0.041      338.446       11.099      869.983
01/24/2014  15:43:00      127.736      138.509      116.549       90.782       75.861       71.407     8241.445     5754.917     5098.991        3.409        0.955      188.418       60.360        0.103      338.471       11.143      869.993
01/24/2014  15:44:00      184.644      132.773       72.154      116.579       94.324       69.526    13590.735     8896.950     4833.916        4.212        1.366      227.425       59.653        0.069      338.404       11.029      870.000
01/24/2014  15:45:00      202.789      106.448       20.803      130.974       97.231       67.642    17154.250     9453.890     4575.452        4.203        1.559      229.030       49.354        0.046      338.360       10.955      870.002
01/24/2014  15:46:00      139.697       78.532       36.715       86.813       61.252       61.935     7536.512     3751.749     3835.960        2.107        0.756      160.258       48.083        0.090      338.469       11.139      870.001
01/24/2014  15:47:00      200.060      135.892       33.837       89.766       67.429       63.592     8057.982     4546.727     4043.962        3.814        0.832      241.848       51.392        0.045      338.426       11.066      870.005
01/24/2014  15:48:00      180.688      121.224       47.647       95.474       67.837       70.773     9115.191     4601.925     5008.853        3.417        0.936      217.585       31.673        0.021      338.445       11.098      870.012
01/24/2014  15:49:00      149.143      111.927       50.893       76.468       55.925       50.361     5847.411     3127.651     2536.203        2.443        0.576      186.470       37.472        0.040      338.453       11.113      870.004
01/24/2014  15:50:00      105.691       55.317       22.899       53.186       54.466       42.249     2828.753     2966.539     1784.937        1.117        0.379      119.292       23.097        0.037      338.483       11.165      870.010
01/24/2014  15:51:00      123.711       87.038       31.592       74.067       47.086       43.054     5485.909     2217.061     1853.673        1.672        0.478      151.262       39.722        0.069      338.564       11.300      870.013
01/24/2014  15:52:00      228.504      110.588       47.713       83.307       68.240       73.202     6940.036     4656.755     5358.460        4.183        0.848      253.858       30.483        0.014      338.472       11.143      870.021
01/24/2014  15:53:00      286.554      195.965       70.542      169.967      115.061      101.274    28888.896    13238.993    10256.395        8.893        2.619      347.154       46.860        0.018      338.386       11.000      870.017
01/24/2014  15:54:00      309.083      182.472       43.369       90.021       80.739       65.510     8103.769     6518.843     4291.605        7.481        0.946      358.927       45.821        0.016      338.371       10.973      870.014
01/24/2014  15:55:00      274.067      168.579       30.244       78.370       83.936       68.852     6141.874     7045.336     4740.616        6.118        0.896      321.763       27.392        0.007      338.408       11.035      870.014
01/24/2014  15:56:00      217.152      137.572       52.280       77.797       83.320       64.200     6052.323     6942.169     4121.579        4.296        0.856      257.062       34.022        0.018      338.447       11.100      870.002
01/24/2014  15:57:00      249.109      147.475       47.336      102.974       81.677       77.374    10603.592     6671.161     5986.757        5.465        1.163      289.489       41.840        0.021      338.424       11.061      869.996
01/24/2014  15:58:00      208.005       83.865       42.064      115.617       79.011       75.272    13367.231     6242.758     5665.840        3.867        1.264      224.275       49.286        0.048      338.440       11.090      869.986
01/24/2014  15:59:00      141.753       71.734       36.473       94.350       63.102       56.802     8901.989     3981.837     3226.433        2.134        0.806      158.870       46.444        0.085      338.491       11.178      869.977
01/24/2014  16:00:00      196.454      112.936       44.494       83.375       68.249       54.334     6951.353     4657.991     2952.173        3.394        0.728      226.603       34.554        0.023      338.507       11.201      869.976
01/24/2014  16:01:00      104.840       64.819       46.884       61.486       70.800       49.474     3780.484     5012.631     2447.668        1.431        0.562      123.260       37.974        0.095      338.530       11.244      869.962
01/24/2014  16:02:00      155.620       58.867       81.536       97.620      111.067       85.791     9529.576    12335.811     7360.037        3.177        1.461      166.382       69.708        0.176      338.492       11.176      869.947
01/24/2014  16:03:00      185.985      197.749      165.183      118.651      125.930       94.937    14078.005    15858.304     9013.067        6.996        1.947      271.468       76.422        0.079      338.393       11.008      869.952
01/24/2014  16:04:00      181.658       93.473      131.405      130.040      107.788       94.779    16910.293    11618.154     8983.014        4.825        1.876      204.296       79.262        0.151      338.337       10.917      869.957
01/24/2014  16:05:00      130.302      144.547      170.020      108.883       98.508       77.139    11855.520     9703.852     5950.410        4.714        1.375      194.608       74.546        0.147      338.397       11.015      869.951
01/24/2014  16:06:00      147.890      110.412       74.134       80.418       80.215       69.257     6467.108     6434.468     4796.512        2.863        0.885      184.559       61.172        0.110      338.472       11.143      869.960
01/24/2014  16:07:00      125.078      101.146       48.733       96.801       61.565       47.340     9370.397     3790.306     2241.095        2.182        0.770      160.858       31.741        0.039      338.450       11.109      869.965
01/24/2014  16:08:00      156.497       89.533       70.031      104.042       71.021       62.154    10824.650     5043.972     3863.089        2.857        0.987      180.299       35.395        0.039      338.451       11.109      869.950
01/24/2014  16:09:00       81.075      147.481      148.961       95.685       81.692       64.921     9155.686     6673.579     4214.788        3.528        1.002      168.297       61.671        0.134      338.436       11.082      869.948
01/24/2014  16:10:00      108.483       68.624       79.176      109.239       76.764       59.196    11933.140     5892.703     3504.155        2.203        1.066      128.366       50.992        0.158      338.467       11.136      869.964
01/24/2014  16:11:00      133.560      117.874       66.034      101.641       58.723       49.147    10330.814     3448.425     2415.446        2.614        0.810      178.137       43.338        0.059      338.445       11.099      869.966
01/24/2014  16:12:00      193.459      129.365       71.199       87.690       69.048       66.426     7689.475     4767.638     4412.456        3.805        0.843      232.726       40.156        0.030      338.366       10.965      869.972
01/24/2014  16:13:00      200.442      104.631       43.195       93.389       86.081       61.199     8721.429     7409.864     3745.295        3.643        0.994      226.107       42.626        0.036      338.371       10.973      869.981
01/24/2014  16:14:00      170.831      102.406       26.367       90.208       76.784       66.877     8137.405     5895.721     4472.586        2.943        0.925      199.174       50.337        0.064      338.369       10.969      869.985
01/24/2014  16:15:00      147.970       69.901       73.348       86.283       73.434       67.158     7444.765     5392.599     4510.204        2.475        0.867      163.649       44.400        0.074      338.374       10.981      869.982
01/24/2014  16:16:00      140.496      166.436      140.076      126.285      102.215      102.141    15947.998    10447.849    10432.811        5.194        1.841      217.807       75.192        0.119      338.332       10.909      869.961
01/24/2014  16:17:00      229.036      148.609       98.912      131.130      105.019       94.625    17195.130    11029.029     8953.854        6.075        1.859      273.024       80.503        0.087      338.308       10.869      869.967
01/24/2014  16:18:00      239.920      132.964       86.019      156.445      106.715       99.933    24475.182    11388.049     9986.518        6.424        2.292      274.301       92.527        0.114      338.274       10.812      869.968
01/24/2014  16:19:00      231.508      138.290       75.030      121.620       83.049       67.683    14791.382     6897.090     4580.933        5.231        1.313      269.667       65.540        0.059      338.322       10.892      869.972
01/24/2014  16:20:00      198.843      113.884       31.191       90.134       81.246       68.880     8124.161     6600.892     4744.491        3.647        0.973      229.147       41.629        0.033      338.295       10.848      869.982
01/24/2014  16:21:00       91.248       52.008       34.003       55.823       52.512       39.081     3116.157     2757.473     1527.295        0.979        0.370      105.029       16.236        0.024      338.314       10.881      869.988
01/24/2014  16:22:00      244.425      152.070       66.284       92.073       57.551       70.877     8477.377     3312.146     5023.532        5.203        0.841      287.869       44.257        0.024      338.285       10.831      869.992
01/24/2014  16:23:00      284.424      168.917       50.821       91.686       73.285       67.541     8406.276     5370.622     4561.835        6.517        0.917      330.801       44.143        0.018      338.281       10.823      869.983
01/24/2014  16:24:00      186.494       68.387       23.363      109.495       81.100       62.178    11989.111     6577.193     3866.057        3.121        1.122      198.637       27.615        0.019      338.306       10.866      869.998
01/24/2014  16:25:00      148.228       71.084       21.877       95.947       56.797       54.052     9205.905     3225.917     2921.638        2.143        0.768      164.391       43.969        0.072      338.289       10.837      869.994
01/24/2014  16:26:00      208.458      125.874       31.324      108.035       72.309       61.763    11671.465     5228.644     3814.715        4.049        1.036      243.514       35.437        0.021      338.300       10.856      870.000
01/24/2014  16:27:00      153.997      104.649       38.522       99.541       58.897       82.152     9908.340     3468.841     6748.977        2.813        1.006      186.189       52.389        0.079      338.300       10.855      870.019
01/24/2014  16:28:00       66.786       64.016       59.744       57.880       51.816       40.350     3350.126     2684.869     1628.086        0.989        0.383       92.512       28.497        0.095      338.319       10.890      870.041
01/24/2014  16:29:00      125.977       92.311       62.632      101.744       63.020       66.626    10351.767     3971.512     4438.984        2.354        0.938      156.178       40.139        0.066      338.302       10.858      870.041
01/24/2014  16:30:00      153.230      110.165       66.379      103.101       79.644       59.948    10629.788     6343.143     3593.727        3.029        1.028      188.722       43.733        0.054      338.270       10.805      870.050
01/24/2014  16:31:00       86.923       84.611      106.889       93.260       67.692       59.617     8697.402     4582.184     3554.144        2.148        0.842      121.304       51.028        0.177      338.278       10.821      870.054
01/24/2014  16:32:00      153.938      125.661      110.093       98.165       83.516       81.820     9636.321     6974.987     6694.560        3.745        1.165      198.715       67.902        0.117      338.270       10.804      870.051
01/24/2014  16:33:00      116.141       64.676       71.701       91.145       69.659       52.323     8307.390     4852.444     2737.712        1.935        0.795      132.935       40.025        0.091      338.282       10.827      870.058
01/24/2014  16:34:00      117.951       57.681       82.576       90.128       74.760       61.284     8123.075     5589.071     3755.766        2.076        0.873      131.299       46.247        0.124      338.240       10.755      870.069
01/24/2014  16:35:00      149.777      102.896       58.592      137.752       88.980       75.594    18975.665     7917.447     5714.459        3.453        1.630      181.716       78.180        0.185      338.201       10.689      870.055
01/24/2014  16:36:00      183.761      102.989       77.662      111.798       84.007       63.900    12498.894     7057.175     4083.267        3.702        1.182      210.653       51.507        0.060      338.161       10.622      870.073
01/24/2014  16:37:00      161.698       74.509       70.061      115.341       88.160       73.595    13303.590     7772.145     5416.210        3.154        1.325      178.039       47.981        0.073      338.150       10.601      870.079
01/24/2014  16:38:00      167.302       52.984       72.064      139.206       94.428       84.357    19378.235     8916.635     7116.138        3.569        1.771      175.492       76.571        0.190      338.163       10.624      870.076
01/24/2014  16:39:00      140.117       90.247       65.633       94.253       86.865       76.625     8883.575     7545.531     5871.363        2.719        1.115      166.665       49.031        0.087      338.128       10.567      870.102
01/24/2014  16:40:00      190.224       89.170       53.095       96.264       77.158       66.065     9266.854     5953.355     4364.536        3.327        0.979      210.086       46.538        0.049      338.112       10.539      870.111
01/24/2014  16:41:00      161.417       93.075       84.677       98.439       82.376       75.618     9690.290     6785.737     5718.121        3.204        1.110      186.328       53.474        0.082      338.033       10.407      870.137
01/24/2014  16:42:00      163.066       85.733       63.546      126.045       76.961       68.248    15887.350     5922.992     4657.752        3.222        1.323      184.230       57.307        0.097      338.006       10.364      870.147
01/24/2014  16:43:00      170.267       82.986       83.725      110.304       85.426       79.366    12166.900     7297.663     6298.989        3.432        1.288      189.414       65.121        0.118      337.986       10.329      870.154
01/24/2014  16:44:00      285.022      159.552       51.102      157.261      118.083       72.602    24730.886    13943.487     5271.078        7.662        2.197      326.641       70.447        0.047      337.989       10.333      870.160
01/24/2014  16:45:00      232.514      114.705       33.780      123.544       84.441       78.333    15263.224     7130.228     6136.095        4.844        1.426      259.268       51.202        0.039      337.962       10.287      870.177
01/24/2014  16:46:00      120.867       52.597       39.319       98.838       69.262       55.569     9768.905     4797.156     3087.963        1.828        0.883      131.815       43.904        0.111      337.958       10.283      870.200
01/24/2014  16:47:00      173.776       95.725       55.959       94.195       58.409       56.012     8872.627     3411.633     3137.289        2.895        0.771      198.397       41.252        0.043      337.910       10.201      870.218
01/24/2014  16:48:00      238.370      106.347       38.682       89.824       86.467       57.672     8068.438     7476.583     3326.047        4.425        0.944      261.017       42.548        0.027      337.915       10.206      870.223
01/24/2014  16:49:00      195.886       78.083       42.912      100.816       74.605       60.192    10163.796     5565.895     3623.036        3.283        0.968      210.875       57.083        0.073      337.913       10.204      870.239
01/24/2014  16:50:00      215.998       89.979       29.875      123.179       83.470       73.922    15172.973     6967.219     5464.467        4.162        1.380      233.990       54.846        0.055      337.944       10.258      870.240
01/24/2014  16:51:00      156.011       82.268       68.834      127.902       81.935       77.908    16358.836     6713.340     6069.672        3.249        1.457      176.373       67.015        0.144      337.938       10.248      870.254
01/24/2014  16:52:00      175.665       79.275       56.760      123.212       87.362       79.654    15181.229     7632.071     6344.822        3.476        1.458      192.725       73.593        0.146      337.949       10.267      870.256
01/24/2014  16:53:00      142.823       88.563       21.668       96.601       81.589       52.300     9331.724     6656.846     2735.341        2.371        0.936      168.053       44.637        0.071      337.898       10.181      870.281
01/24/2014  16:54:00      161.694       51.402       39.776       86.345       63.698       58.510     7455.468     4057.403     3423.414        2.265        0.747      169.668       35.756        0.044      337.892       10.172      870.277
01/24/2014  16:55:00      147.749       67.335       39.822      115.061       83.850       55.127    13238.924     7030.846     3039.037        2.563        1.165      162.369       55.192        0.116      337.901       10.185      870.280
01/24/2014  16:56:00      145.008       97.254       64.131       54.624       53.852       42.535     2983.738     2900.014     1809.213        2.114        0.385      174.601       22.457        0.017      337.867       10.130      870.289
01/24/2014  16:57:00      127.769       71.670       40.811      106.506       70.320       71.417    11343.629     4944.918     5100.322        2.225        1.069      146.498       64.857        0.196      337.870       10.135      870.288
01/24/2014  16:58:00      151.639       74.125       42.524       83.930       54.918       43.608     7044.322     3016.039     1901.689        2.113        0.598      168.787       31.755        0.035      337.848       10.097      870.295
01/24/2014  16:59:00      179.075       79.928       35.494       60.272       64.652       43.281     3632.689     4179.854     1873.258        2.470        0.484      196.103       25.366        0.017      337.835       10.074      870.307
01/24/2014  17:00:00      104.803       67.708       34.125       95.963       74.368       56.460     9208.854     5530.651     3187.678        1.733        0.896      124.772       46.113        0.137      337.798       10.015      870.308
01/24/2014  17:01:00      201.095      122.003       27.120       54.370       48.688       39.081     2956.079     2370.521     1527.359        3.146        0.343      235.210       10.012        0.002      337.771        9.966      870.329
01/24/2014  17:02:00      190.680      119.273       30.370       73.521       47.218       41.216     5405.289     2229.536     1698.739        3.042        0.467      224.911       20.803        0.009      337.753        9.937      870.334
01/24/2014  17:03:00      166.058       97.488       28.628       87.459       61.896       59.225     7649.119     3831.165     3507.604        2.644        0.749      192.559       45.067        0.055      337.740        9.915      870.347
01/24/2014  17:04:00      149.710       89.934       57.530       56.024       44.371       45.831     3138.699     1968.777     2100.481        2.051        0.360      174.646       38.017        0.047      337.691        9.834      870.369
01/24/2014  17:05:00      155.783       63.955       42.588       75.086       49.195       50.485     5637.956     2420.168     2548.780        2.039        0.530      168.400       42.915        0.065      337.735        9.909      870.370
01/24/2014  17:06:00      144.571       89.654       15.564      104.840       75.222       50.587    10991.515     5658.363     2559.067        2.419        0.960      170.113       26.503        0.024      337.747        9.929      870.379
01/24/2014  17:07:00      133.816       67.725       26.960       66.540       49.722       46.621     4427.605     2472.310     2173.525        1.615        0.454      149.978       29.492        0.039      337.703        9.856      870.383
01/24/2014  17:08:00       93.375       22.716       40.153       72.285       50.360       36.790     5225.149     2536.102     1353.476        0.998        0.456       96.099       27.095        0.079      337.696        9.844      870.394
01/24/2014  17:09:00       84.431       50.485       36.453       56.728       46.640       33.063     3218.086     2175.327     1093.187        0.875        0.324       98.374       26.312        0.072      337.630        9.734      870.401
01/24/2014  17:10:00      140.972       53.585       34.526       97.267       67.542       52.963     9460.815     4561.856     2805.077        2.038        0.841      150.813       40.059        0.071      337.671        9.801      870.408
01/24/2014  17:11:00      113.154       68.020       38.495       85.518       58.680       57.421     7313.276     3443.321     3297.223        1.648        0.703      132.024       32.687        0.061      337.685        9.826      870.416
01/24/2014  17:12:00      196.705       96.838       32.763       71.394       54.059       51.281     5097.055     2922.367     2629.734        2.989        0.532      219.250       34.576        0.025      337.642        9.753      870.440
01/24/2014  17:13:00      130.344       92.722       60.250       82.167       81.010       57.781     6751.339     6562.593     3338.645        2.293        0.833      159.960       40.202        0.063      337.616        9.708      870.446
01/24/2014  17:14:00      105.579       91.003       65.261       84.965       54.293       55.249     7218.985     2947.763     3052.416        1.845        0.661      139.386       42.245        0.092      337.651        9.767      870.444
01/24/2014  17:15:00      127.196       69.670       26.757       54.494       50.507       36.923     2969.632     2551.002     1363.330        1.432        0.344      145.027       18.264        0.016      337.595        9.674      870.459
01/24/2014  17:16:00      114.910       79.035       27.138       78.227       69.214       37.123     6119.452     4790.579     1378.085        1.624        0.614      139.467       23.803        0.029      337.586        9.660      870.468
01/24/2014  17:17:00      144.597       91.841       54.233       68.726       48.929       46.921     4723.318     2394.021     2201.597        2.080        0.466      171.299       43.606        0.065      337.597        9.677      870.470
01/24/2014  17:18:00      168.866      108.644       20.261       40.345       47.100       31.669     1627.696     2218.441     1002.934        2.279        0.242      200.796       22.569        0.013      337.577        9.644      870.481
01/24/2014  17:19:00      146.093       84.373       25.819       45.317       42.851       37.334     2053.592     1836.174     1393.825        1.721        0.264      168.707       20.874        0.015      337.507        9.526      870.484
01/24/2014  17:20:00      157.888       88.629       25.143       52.070       63.353       37.912     2711.271     4013.585     1437.348        2.079        0.408      181.063       17.193        0.009      337.488        9.494      870.495
01/24/2014  17:21:00      102.155       45.269       27.420       55.239       46.054       35.811     3051.292     2120.926     1282.458        0.984        0.323      111.736       28.618        0.066      337.430        9.398      870.505
01/24/2014  17:22:00      131.171       58.233       22.545       53.693       42.176       33.689     2882.987     1778.808     1134.917        1.345        0.290      143.516       25.140        0.031      337.478        9.479      870.517
01/24/2014  17:23:00       87.017       48.492       14.459       40.133       43.141       26.835     1610.686     1861.135      720.143        0.716        0.210       99.617       18.067        0.033      337.408        9.362      870.538
01/24/2014  17:24:00       81.610       49.391       20.537       35.219       33.783       31.588     1240.406     1141.284      997.779        0.645        0.169       95.392       13.330        0.020      337.324        9.221      870.557
01/24/2014  17:25:00      135.664       89.804       31.407       55.896       35.327       29.081     3124.321     1247.998      845.678        1.634        0.261      162.694       20.068        0.015      337.376        9.307      870.577
01/24/2014  17:26:00      103.015       80.657       24.181       55.899       38.684       33.698     3124.745     1496.443     1135.532        1.173        0.288      130.834       24.121        0.034      337.294        9.170      870.592
01/24/2014  17:27:00      141.651       50.886       10.378       58.455       48.975       35.583     3416.955     2398.577     1266.123        1.492        0.354      150.513       30.518        0.041      337.332        9.236      870.608
01/24/2014  17:28:00      152.128       94.080       30.687       49.015       40.722       35.861     2402.483     1658.294     1286.045        1.914        0.267      178.868       13.581        0.006      337.293        9.169      870.606
01/24/2014  17:29:00      153.768       76.375       12.226       38.954       30.625       24.534     1517.419      937.893      601.899        1.634        0.153      171.691       16.985        0.010      337.272        9.135      870.608
01/24/2014  17:30:00      132.242       88.998       20.254       40.042       25.077       23.193     1603.336      628.855      537.913        1.429        0.139      159.401       17.761        0.012      337.265        9.123      870.610
01/24/2014  17:31:00      105.907       69.616       13.330       39.150       31.515       27.317     1532.709      993.184      746.224        0.976        0.164      126.739       18.422        0.021      337.211        9.033      870.611
01/24/2014  17:32:00      105.452       75.161       27.110       44.461       35.075       28.778     1976.744     1230.264      828.165        1.077        0.202      129.496       26.538        0.042      337.210        9.031      870.619
01/24/2014  17:33:00       93.601       49.184       23.005       44.883       27.756       30.660     2014.482      770.423      940.017        0.772        0.186      105.736       30.503        0.083      337.133        8.900      870.627
01/24/2014  17:34:00       62.065       16.179       23.176       53.249       35.653       35.448     2835.453     1271.118     1256.586        0.501        0.268       64.140       22.145        0.119      337.136        8.907      870.628
01/24/2014  17:35:00       92.058       50.717       19.520       38.139       31.001       24.855     1454.619      961.071      617.785        0.723        0.152      105.104       22.055        0.044      337.116        8.873      870.629
01/24/2014  17:36:00      109.827       60.464       24.716       49.626       27.880       30.307     2462.751      777.314      918.512        1.024        0.208      125.371       22.886        0.033      337.094        8.837      870.631
01/24/2014  17:37:00       85.430       35.798       22.358       51.317       31.377       32.382     2633.398      984.499     1048.573        0.687        0.233       92.627       21.146        0.052      337.151        8.931      870.640
01/24/2014  17:38:00       63.971       57.914       46.354       34.054       31.741       33.479     1159.650     1007.520     1120.838        0.644        0.164       86.292       24.765        0.082      337.098        8.841      870.652
01/24/2014  17:39:00       90.621       37.147       30.440       53.561       32.188       30.242     2868.825     1036.051      914.573        0.767        0.241       97.939       23.503        0.058      337.130        8.897      870.664
01/24/2014  17:40:00      147.498      101.028       48.972       42.447       37.869       36.172     1801.747     1434.035     1308.423        1.945        0.227      178.780       24.760        0.019      337.250        9.096      870.670
01/24/2014  17:41:00      140.088       87.236       36.287       38.466       21.271       24.751     1479.605      452.472      612.633        1.555        0.127      165.030       23.456        0.020      337.186        8.990      870.683
01/24/2014  17:42:00      143.525       63.911       10.574       54.458       50.861       33.814     2965.651     2586.886     1143.357        1.574        0.335      157.112       23.449        0.022      337.132        8.899      870.683
01/24/2014  17:43:00      156.856      100.210       58.913       68.409       53.864       50.580     4679.739     2901.344     2558.371        2.413        0.507      186.135       27.883        0.022      337.136        8.901      870.693
01/24/2014  17:44:00      116.950       82.154       37.242       43.218       38.416       47.488     1867.773     1475.817     2255.118        1.371        0.280      142.921       24.603        0.030      337.053        8.767      870.700
01/24/2014  17:45:00      125.810       42.070       31.891       79.058       60.802       49.045     6250.231     3696.900     2405.414        1.548        0.618      132.658       27.925        0.044      337.079        8.810      870.709
01/24/2014  17:46:00      150.483       67.472       41.855       77.359       58.745       46.571     5984.367     3450.946     2168.895        2.027        0.580      164.917       32.148        0.038      337.083        8.814      870.719
01/24/2014  17:47:00      140.406       76.068       17.550       44.315       41.379       36.298     1963.842     1712.202     1317.554        1.540        0.250      159.688       23.351        0.021      336.996        8.670      870.746
01/24/2014  17:48:00      135.492       75.873       37.383       52.205       44.037       40.275     2725.408     1939.244     1622.071        1.590        0.314      155.290       15.351        0.010      337.021        8.713      870.748
01/24/2014  17:49:00      115.853       92.108       23.987       41.820       33.771       30.779     1748.933     1140.452      947.367        1.316        0.192      148.006       24.499        0.027      336.920        8.544      870.759
01/24/2014  17:50:00      124.122       92.707       19.301       47.121       36.092       38.345     2220.394     1302.600     1470.321        1.468        0.250      154.922       26.228        0.029      337.038        8.740      870.769
01/24/2014  17:51:00      127.115       92.748       22.762       36.254       22.932       24.242     1314.366      525.857      587.693        1.385        0.121      157.354       13.039        0.007      336.974        8.634      870.776
01/24/2014  17:52:00      144.009       94.188       23.636       51.904       41.824       40.056     2694.031     1749.224     1604.518        1.811        0.302      172.076       33.946        0.039      337.002        8.679      870.787
01/24/2014  17:53:00      114.037       83.396       18.750       65.119       45.922       35.041     4240.435     2108.806     1227.885        1.394        0.379      141.278       22.804        0.026      337.036        8.737      870.794
01/24/2014  17:54:00      125.300       59.402       19.934       57.033       50.972       34.540     3252.746     2598.122     1193.040        1.333        0.352      138.667       10.383        0.006      336.924        8.551      870.814
01/24/2014  17:55:00      130.223       86.170       31.026       60.648       45.734       31.697     3678.167     2091.588     1004.673        1.606        0.339      156.152       24.944        0.026      336.885        8.484      870.822
01/24/2014  17:56:00       92.915       53.669       18.055       33.836       29.942       23.416     1144.849      896.545      548.327        0.721        0.129      107.301       10.102        0.009      336.844        8.418      870.830
01/24/2014  17:57:00       87.086       32.407        7.255       48.058       38.515       24.269     2309.567     1483.384      588.977        0.653        0.219       92.920        6.832        0.005      336.816        8.372      870.839
01/24/2014  17:58:00       76.442       55.407       40.428       43.789       29.988       25.873     1917.458      899.263      669.427        0.702        0.174       94.411       21.001        0.049      336.825        8.387      870.860
01/24/2014  17:59:00      106.131       62.175       25.454       56.838       45.566       34.844     3230.519     2076.275     1214.108        1.115        0.326      123.002        9.352        0.006      336.840        8.412      870.866
01/24/2014  18:00:00      117.225       51.455       17.982       42.288       42.812       34.178     1788.294     1832.874     1168.139        1.075        0.239      128.020       20.292        0.025      336.825        8.387      870.882
01/24/2014  18:01:00       74.229       46.604       24.334       49.689       46.212       31.462     2468.974     2135.592      989.869        0.693        0.280       87.646       21.476        0.060      336.847        8.423      870.880
01/24/2014  18:02:00       94.787       57.506       14.474       58.508       40.218       37.487     3423.168     1617.449     1405.294        0.947        0.322      110.867       25.939        0.055      336.894        8.502      870.884
01/24/2014  18:03:00      112.310       72.944       16.778       46.453       35.423       29.173     2157.861     1254.814      851.052        1.124        0.213      133.919       19.682        0.022      336.803        8.350      870.886
01/24/2014  18:04:00       84.516       50.818        9.677       44.004       32.322       29.753     1936.355     1044.709      885.214        0.684        0.193       98.618       12.440        0.016      336.768        8.292      870.883
01/24/2014  18:05:00      124.994       61.274       23.384       50.021       40.900       27.685     2502.131     1672.791      766.461        1.243        0.247      139.205       21.710        0.024      336.809        8.359      870.889
01/24/2014  18:06:00      107.107       83.078       12.108       40.910       27.643       25.560     1673.593      764.112      653.332        1.081        0.155      135.550       15.196        0.013      336.810        8.362      870.901
01/24/2014  18:07:00      102.525       71.271       20.916       46.622       27.816       32.768     2173.621      773.755     1073.740        1.002        0.201      124.864       21.823        0.031      336.805        8.353      870.906
01/24/2014  18:08:00      103.688       72.088       14.351       43.349       30.749       24.768     1879.112      945.481      613.448        0.980        0.172      126.285       14.993        0.014      336.890        8.493      870.917
01/24/2014  18:09:00       35.333       59.668        0.983       31.986       33.818       24.816     1023.074     1143.681      615.819        0.380        0.139       69.345       23.686        0.117      336.816        8.374      870.924
01/24/2014  18:10:00       15.059      130.840      -21.649       20.839       30.044       11.442      434.262      902.644      130.925        0.964        0.073      131.704        9.549        0.005      336.834        8.403      870.921
01/24/2014  18:11:00       39.688      132.540      -16.572       33.598       56.191       25.745     1128.807     3157.484      662.795        1.218        0.247      138.355       29.295        0.045      336.745        8.254      870.924
01/24/2014  18:12:00       37.232       71.106      -10.345       34.832       45.198       27.894     1213.277     2042.875      778.095        0.529        0.202       80.264       27.085        0.114      336.640        8.078      870.916
01/24/2014  18:13:00        5.823      134.087      -10.332       38.871       60.008       27.414     1510.967     3600.988      751.515        1.199        0.293      134.213       34.351        0.066      336.608        8.025      870.923
01/24/2014  18:14:00       44.063       85.850        1.888       40.414       43.649       35.107     1633.319     1905.271     1232.490        0.704        0.239       96.498       27.938        0.084      336.631        8.062      870.916
01/24/2014  18:15:00       28.141       58.431        3.952       27.326       39.313       30.058      746.724     1545.548      903.483        0.371        0.160       64.854       26.681        0.169      336.600        8.011      870.917
01/24/2014  18:16:00       24.636      104.932       -8.826       38.511       51.520       33.501     1483.120     2654.347     1122.305        0.848        0.263      107.785       31.418        0.085      336.618        8.042      870.924
01/24/2014  18:17:00       20.524       97.036      -12.023       19.153       25.766       12.827      366.847      663.870      164.530        0.559        0.060       99.183       11.270        0.013      336.600        8.011      870.920
01/24/2014  18:18:00       30.974      114.892      -11.665       29.568       43.386       24.523      874.257     1882.329      601.354        0.883        0.168      118.994       23.248        0.038      336.638        8.076      870.939
01/24/2014  18:19:00       40.391       86.455       -2.802       46.275       45.500       29.246     2141.400     2070.282      855.335        0.709        0.253       95.425       21.932        0.053      336.576        7.972      870.947
01/24/2014  18:20:00       96.817       68.016       23.142       50.328       32.208       31.705     2532.927     1037.329     1005.231        0.955        0.229      118.320       18.755        0.025      336.685        8.154      870.944
01/24/2014  18:21:00       36.118       56.955        5.280       35.146       37.521       25.510     1235.222     1407.790      650.746        0.393        0.165       67.442       23.055        0.117      336.577        7.974      870.960
01/24/2014  18:22:00       79.252       51.365       13.757       52.301       33.639       21.584     2735.379     1131.601      465.854        0.672        0.217       94.441       15.041        0.025      336.555        7.937      870.964
01/24/2014  18:23:00       50.473       65.291      -10.243       30.201       38.448       24.089      912.086     1478.222      580.257        0.494        0.149       82.526       17.865        0.047      336.568        7.958      870.970
01/24/2014  18:24:00       36.646       79.295      -10.171       25.580       41.540       23.010      654.316     1725.610      529.477        0.532        0.145       87.353       21.870        0.063      336.595        8.004      870.983
01/24/2014  18:25:00       32.632       62.892        7.420       38.353       60.650       32.274     1470.989     3678.414     1041.629        0.563        0.310       70.854       34.861        0.242      336.562        7.947      870.979
01/24/2014  18:26:00       37.399       60.528        3.033       35.485       42.049       34.317     1259.208     1768.157     1177.664        0.464        0.210       71.149       29.811        0.176      336.542        7.914      870.980
01/24/2014  18:27:00      103.870       72.122       19.316       47.227       36.581       36.188     2230.369     1338.186     1309.594        1.062        0.244      126.453       26.290        0.043      336.674        8.135      870.983
01/24/2014  18:28:00       85.863       67.530       13.538       45.876       35.239       29.692     2104.601     1241.820      881.600        0.817        0.211      109.237       21.610        0.039      336.670        8.128      870.976
01/24/2014  18:29:00       76.567       50.637       13.844       37.440       25.117       27.294     1401.740      630.843      744.973        0.570        0.139       91.797       17.056        0.035      336.643        8.082      870.980
01/24/2014  18:30:00       86.470       53.441       20.053       32.665       23.906       23.506     1067.026      571.485      552.552        0.646        0.110      101.651        7.755        0.006      336.614        8.035      870.989
01/24/2014  18:31:00       78.081       65.739       10.174       30.215       20.041       24.171      912.917      401.650      584.214        0.621        0.095      102.070       12.932        0.016      336.576        7.971      870.989
01/24/2014  18:32:00       80.929       65.443        1.744       34.875       27.422       25.808     1216.241      751.991      666.054        0.673        0.132      104.078       15.013        0.021      336.594        8.002      870.994
01/24/2014  18:33:00       50.222       41.627        8.998       34.560       31.513       33.174     1194.381      993.093     1100.534        0.381        0.164       65.231       25.275        0.150      336.534        7.902      870.984
01/24/2014  18:34:00       38.606       62.631        3.161       34.711       40.085       30.401     1204.852     1606.778      924.203        0.458        0.187       73.574       28.496        0.150      336.551        7.930      870.976
01/24/2014  18:35:00       48.179       65.329      -13.443       36.562       42.872       29.323     1336.795     1837.980      859.844        0.540        0.202       81.173       22.706        0.078      336.567        7.956      870.976
01/24/2014  18:36:00       45.438       58.981       -2.635       41.677       36.698       29.418     1736.992     1346.759      865.415        0.475        0.197       74.453       22.061        0.088      336.563        7.951      870.992
01/24/2014  18:37:00       52.876       67.703       -8.287       36.156       36.383       31.266     1307.236     1323.740      977.559        0.553        0.180       85.905       26.524        0.095      336.526        7.888      870.989
01/24/2014  18:38:00       65.476       65.217        5.459       40.831       27.836       29.898     1667.186      774.828      893.912        0.595        0.167       92.414       20.893        0.051      336.530        7.893      870.990
01/24/2014  18:39:00       58.923       57.264        0.173       42.161       33.754       32.458     1777.510     1139.362     1053.532        0.536        0.199       82.165       23.296        0.080      336.563        7.949      870.997
01/24/2014  18:40:00       48.130       58.747        4.492       39.902       33.287       30.350     1592.169     1108.033      921.149        0.470        0.181       75.945       25.446        0.112      336.544        7.917      870.995
01/24/2014  18:41:00       52.792       70.153       -7.594       27.189       38.391       24.996      739.236     1473.887      624.824        0.530        0.142       87.798       22.075        0.063      336.481        7.812      871.001
01/24/2014  18:42:00       76.015       54.447        1.589       31.998       32.550       21.178     1023.894     1059.502      448.519        0.564        0.127       93.503       15.735        0.028      336.488        7.823      871.007
01/24/2014  18:43:00       67.922       46.629        8.238       22.885       13.478       15.583      523.729      181.665      242.829        0.390        0.047       82.387       10.956        0.018      336.417        7.704      871.026
01/24/2014  18:44:00       80.384       52.053        6.491       21.780       20.264       21.699      474.354      410.624      470.862        0.528        0.068       95.766       11.385        0.014      336.431        7.729      871.037
01/24/2014  18:45:00       54.264       36.415       11.156       16.883       19.937       15.695      285.025      397.470      246.334        0.266        0.046       65.350        8.371        0.016      336.427        7.721      871.042
01/24/2014  18:46:00       51.503       25.774        4.710       20.778       12.982       11.795      431.741      168.521      139.133        0.204        0.037       57.592        4.489        0.006      336.457        7.772      871.054
01/24/2014  18:47:00       53.812       42.400       11.264       29.246       25.875       18.404      855.300      669.540      338.710        0.334        0.093       68.509       14.146        0.043      336.459        7.775      871.059
01/24/2014  18:48:00       57.405       45.878        0.396       20.626       16.534       19.795      425.423      273.357      391.860        0.325        0.055       73.486       11.978        0.027      336.487        7.822      871.051
01/24/2014  18:49:00       45.722       21.475        0.880       13.179       12.488        8.647      173.685      155.957       74.776        0.148        0.020       50.514        2.280        0.002      336.516        7.870      871.043
01/24/2014  18:50:00       31.224       29.467       -3.212       12.715       11.310       10.504      161.669      127.918      110.335        0.113        0.020       42.933        6.089        0.020      336.487        7.823      871.037
01/24/2014  18:51:00       18.970       36.867       -6.975       12.681        5.996        8.415      160.817       35.947       70.813        0.102        0.013       41.461        4.643        0.013      336.523        7.883      871.047
01/24/2014  18:52:00       13.382       38.912        0.389       15.853       21.165       14.040      251.315      447.947      197.114        0.129        0.045       41.149        4.720        0.013      336.465        7.784      871.047
01/24/2014  18:53:00       43.860       23.429        3.447       19.860       18.708       15.072      394.426      349.972      227.153        0.173        0.049       49.726        8.395        0.028      336.484        7.815      871.041
01/24/2014  18:54:00       28.243       26.410        7.064       22.691       17.344       14.229      514.884      300.805      202.468        0.128        0.051       38.667       10.088        0.068      336.448        7.756      871.038
01/24/2014  18:55:00       45.827       27.962        2.952       24.214       20.719       13.735      586.304      429.270      188.659        0.205        0.060       53.684       10.810        0.041      336.445        7.749      871.039
01/24/2014  18:56:00       49.554       24.405        5.110       19.458       13.702       11.705      378.601      187.741      136.998        0.189        0.035       55.238        5.571        0.010      336.345        7.584      871.043
01/24/2014  18:57:00       48.783       27.282        7.911       12.041       10.266        9.340      144.974      105.392       87.243        0.176        0.017       55.894        5.182        0.009      336.347        7.588      871.036
01/24/2014  18:58:00       62.141       37.527       13.152       17.337       17.003       13.871      300.563      289.107      192.400        0.311        0.039       72.593        8.348        0.013      336.326        7.552      871.034
01/24/2014  18:59:00       59.249       31.760       10.820       12.986        8.813       12.227      168.646       77.671      149.499        0.252        0.020       67.225        6.690        0.010      336.381        7.644      871.039
01/24/2014  19:00:00       48.411       41.688        7.412       16.573       15.238       10.429      274.663      232.185      108.763        0.238        0.031       63.887        8.483        0.018      336.329        7.557      871.040
01/24/2014  19:01:00       49.568       34.535       11.237       28.151       17.450       19.086      792.491      304.518      364.275        0.262        0.073       60.413       13.702        0.051      336.288        7.489      871.042
01/24/2014  19:02:00       56.391       28.818        7.023       29.670       10.488       11.445      880.332      109.992      130.977        0.259        0.056       63.328        8.906        0.020      336.308        7.523      871.043
01/24/2014  19:03:00       34.455       24.706        1.365       11.646       10.028        9.621      135.620      100.552       92.564        0.106        0.016       42.398        7.429        0.031      336.289        7.490      871.040
01/24/2014  19:04:00       18.715       23.029       -1.882       11.722       15.760        8.251      137.404      248.371       68.073        0.067        0.023       29.674        8.652        0.085      336.271        7.462      871.037
01/24/2014  19:05:00       15.527       34.030       -7.038       15.428       18.326        9.625      238.019      335.852       92.641        0.106        0.033       37.405       10.103        0.073      336.376        7.634      871.036
01/24/2014  19:06:00        6.200       29.246       -6.853        9.927        8.976        6.760       98.546       80.576       45.704        0.058        0.011       29.896        4.815        0.026      336.390        7.658      871.037
01/24/2014  19:07:00        7.104       28.248       -4.997       13.474       17.227        6.365      181.557      296.768       40.517        0.070        0.026       29.128        7.450        0.065      336.386        7.652      871.028
01/24/2014  19:08:00       27.633       40.069       -5.934       14.034       13.498       13.533      196.942      182.186      183.150        0.148        0.028       48.674       11.479        0.056      336.378        7.637      871.027
01/24/2014  19:09:00       -5.013       38.474       -7.317       20.320       18.461       10.592      412.896      340.791      112.199        0.121        0.043       38.800        3.867        0.010      336.308        7.522      871.030
01/24/2014  19:10:00       -4.154       44.540       -9.379       13.885       18.722        7.858      192.795      350.495       61.747        0.135        0.030       44.734       10.284        0.053      336.388        7.656      871.040
01/24/2014  19:11:00      -13.801       17.849       -2.624       25.998       26.527       13.895      675.878      703.705      193.077        0.104        0.079       22.563        9.866        0.191      336.064        7.116      871.044
01/24/2014  19:12:00      -40.530      -27.144       -5.303       19.986       11.296        9.139      399.442      127.595       83.529        0.151        0.031       48.780        5.907        0.015      335.865        6.783      871.044
01/24/2014  19:13:00      -55.172      -21.759      -14.999       16.032       14.476        8.224      257.041      209.569       67.627        0.214        0.027       59.308        3.842        0.004      335.577        6.304      871.036
01/24/2014  19:14:00      -68.224      -12.697      -12.116       13.413       18.613        8.341      179.897      346.430       69.574        0.278        0.030       69.395        3.748        0.003      335.506        6.184      871.029
01/24/2014  19:15:00      -92.159       -1.990      -13.714       21.999       13.504       11.513      483.937      182.352      132.538        0.474        0.040       92.180        9.138        0.010      335.401        6.008      871.023
01/24/2014  19:16:00      -57.651       -9.092      -10.793       13.812       13.050        9.652      190.758      170.292       93.152        0.199        0.023       58.363        5.893        0.010      335.348        5.920      871.029
01/24/2014  19:17:00      -63.981       -0.938      -13.982       11.776        9.690        8.506      138.672       93.892       72.347        0.230        0.015       63.988        1.450        0.001      335.457        6.103      871.019
01/24/2014  19:18:00      -50.983        0.330      -13.705        9.882        9.060        7.471       97.661       82.089       55.819        0.151        0.012       50.984        5.857        0.013      335.599        6.341      871.017
01/24/2014  19:19:00      -26.650      -16.203      -11.203       13.561       13.287        5.665      183.908      176.532       32.088        0.075        0.020       31.189        4.406        0.020      335.615        6.367      871.017
01/24/2014  19:20:00      -30.790      -17.519       -2.996       15.424       12.807       13.691      237.891      164.016      187.445        0.093        0.029       35.425       11.549        0.106      335.724        6.548      871.028
01/24/2014  19:21:00      -10.676        9.520        1.568        9.658       11.266        9.236       93.284      126.926       85.303        0.026        0.015       14.304        3.209        0.050      335.972        6.963      871.031
01/24/2014  19:22:00      -30.851      -11.845       -7.136        9.280       10.479        5.968       86.116      109.817       35.621        0.069        0.012       33.047        3.720        0.013      335.569        6.290      871.029
01/24/2014  19:23:00      -33.833      -14.420       -9.545       10.293       10.625        6.686      105.950      112.897       44.708        0.085        0.013       36.778        5.797        0.025      335.529        6.223      871.032
01/24/2014  19:24:00      -28.135      -12.712       -9.483       21.433       19.293       11.159      459.365      372.226      124.528        0.100        0.048       30.874        8.255        0.071      335.723        6.546      871.037
01/24/2014  19:25:00      -31.723      -18.220       -3.699       11.984       14.250        9.593      143.612      203.057       92.027        0.090        0.022       36.583        5.658        0.024      335.615        6.366      871.056
01/24/2014  19:26:00      -39.569      -25.313      -11.585       14.424        8.816       12.146      208.057       77.719      147.525        0.139        0.022       46.973        4.883        0.011      335.296        5.834      871.081
01/24/2014  19:27:00      -11.711       -2.480       -9.163       21.898       12.002        7.030      479.514      144.042       49.427        0.045        0.034       11.970        4.874        0.166      335.797        6.668      871.099
01/24/2014  19:28:00       -3.155       12.787       -3.903       21.398       24.734       12.376      457.890      611.757      153.173        0.071        0.061       13.170       10.807        0.673      335.996        7.002      871.116
01/24/2014  19:29:00        3.330       41.632       -0.890       11.747        6.376        5.344      137.991       40.650       28.563        0.098        0.010       41.765        1.581        0.001      336.319        7.540      871.130
01/24/2014  19:30:00        3.263       37.437       -2.523       10.555       11.862        5.908      111.418      140.711       34.900        0.085        0.014       37.579        4.100        0.012      336.321        7.545      871.153
01/24/2014  19:31:00       -7.079       38.011       -5.026       16.043       11.612        8.719      257.378      134.850       76.024        0.099        0.023       38.665        9.248        0.057      336.299        7.508      871.160
01/24/2014  19:32:00        6.194       38.907       -0.448       10.061       24.494        8.685      101.220      599.947       75.427        0.116        0.039       39.396       11.190        0.081      336.298        7.505      871.165
01/24/2014  19:33:00       -9.797       11.713        5.306       14.611       12.418        8.621      213.467      154.203       74.315        0.035        0.022       15.270        7.981        0.273      336.085        7.149      871.167
01/24/2014  19:34:00       -2.173       39.739       -4.096       27.701       24.780       13.838      767.348      614.064      191.487        0.159        0.079       39.798       13.080        0.108      336.124        7.216      871.185
01/24/2014  19:35:00      -25.049      -22.617       -1.901       14.447       13.348       11.109      208.703      178.157      123.415        0.083        0.026       33.748        8.423        0.062      335.421        6.044      871.195
01/24/2014  19:36:00      -19.834      -40.285      -12.606       17.032       18.683       10.213      290.075      349.065      104.308        0.146        0.037       44.903        5.486        0.015      335.090        5.493      871.200
01/24/2014  19:37:00      -75.681      -22.863      -15.543       12.844       14.168       10.220      164.967      200.722      104.458        0.348        0.024       79.059        6.946        0.008      334.778        4.977      871.199
01/24/2014  19:38:00      -74.494      -25.972      -18.387       22.173       15.841        9.455      491.629      250.947       89.397        0.370        0.042       78.892        9.953        0.016      334.784        4.986      871.193
01/24/2014  19:39:00     -106.666      -17.141      -17.031       22.098       15.993       12.125      488.306      255.760      147.018        0.643        0.045      108.034       11.250        0.011      334.750        4.928      871.197
01/24/2014  19:40:00     -115.031        0.903      -25.144       18.080       20.697       14.970      326.871      428.381      224.099        0.742        0.049      115.035       11.123        0.009      334.748        4.925      871.190
01/24/2014  19:41:00      -94.755      -11.785      -12.931       21.189       18.424       12.221      448.957      339.446      149.361        0.511        0.047       95.485       11.165        0.014      334.738        4.909      871.177
01/24/2014  19:42:00      -82.224      -11.674      -17.303        7.652        8.750        8.213       58.549       76.557       67.454        0.370        0.010       83.049        1.470        0.000      334.809        5.028      871.177
01/24/2014  19:43:00      -78.722      -17.504      -14.674       11.238        9.097        8.084      126.303       82.747       65.351        0.350        0.014       80.645        5.082        0.004      334.862        5.114      871.181
01/24/2014  19:44:00      -82.807      -14.696      -14.644        9.931       13.184       10.263       98.625      173.821      105.332        0.383        0.019       84.101        5.410        0.004      334.840        5.078      871.187
01/24/2014  19:45:00      -82.274      -13.959      -10.465       15.582       13.909       12.132      242.798      193.448      147.184        0.383        0.029       83.450        6.055        0.005      334.740        4.913      871.189
01/24/2014  19:46:00      -47.799      -17.112      -16.479       20.800       15.919        8.029      432.621      253.416       64.465        0.180        0.038       50.770        6.117        0.015      334.858        5.107      871.199
01/24/2014  19:47:00      -36.371      -28.216       -9.047       17.830       12.833       11.445      317.894      164.698      130.988        0.141        0.031       46.032       10.028        0.047      334.909        5.194      871.206
01/24/2014  19:48:00      -27.153      -40.665       -6.007       16.990       14.946       13.952      288.658      223.393      194.657        0.157        0.035       48.897        8.198        0.028      335.111        5.527      871.201
01/24/2014  19:49:00      -35.782      -29.733       -3.458       22.955       16.009       17.096      526.932      256.298      292.263        0.163        0.054       46.523        8.529        0.034      335.124        5.551      871.197
01/24/2014  19:50:00      -43.209      -14.671       -4.051       24.859       13.232       14.510      617.977      175.091      210.550        0.155        0.050       45.631       12.517        0.075      335.212        5.697      871.195
01/24/2014  19:51:00      -78.234      -12.481      -19.801        9.037       10.893        7.899       81.661      118.651       62.398        0.347        0.013       79.224        3.815        0.002      334.685        4.820      871.187
01/24/2014  19:52:00      -82.672      -15.780      -16.868       22.128       17.898       16.899      489.639      320.336      285.583        0.423        0.055       84.164       17.446        0.043      334.600        4.679      871.193
01/24/2014  19:53:00      -93.906      -12.969      -12.660       16.854       17.252       12.181      284.045      297.636      148.368        0.494        0.037       94.797        8.939        0.009      334.573        4.634      871.199
01/24/2014  19:54:00      -69.897      -40.775      -17.558       24.671       18.084       13.388      608.659      327.031      179.228        0.399        0.056       80.921        7.763        0.009      334.567        4.624      871.207
01/24/2014  19:55:00      -94.800      -28.906      -16.265       21.417       16.214       12.230      458.690      262.885      149.563        0.548        0.044       99.109       11.249        0.013      334.560        4.612      871.221
01/24/2014  19:56:00      -93.572       -4.977      -14.667       22.302       29.861       13.613      497.384      891.689      185.321        0.528        0.079       93.704       12.954        0.019      334.549        4.594      871.220
01/24/2014  19:57:00      -87.818       31.172      -12.848       16.103       12.484        9.349      259.311      155.845       87.405        0.468        0.025       93.186        6.050        0.004      334.922        5.214      871.207
01/24/2014  19:58:00      -69.138       33.941      -12.270       13.264       14.617       10.640      175.944      213.664      113.213        0.329        0.025       77.019        7.049        0.008      334.955        5.269      871.206
01/24/2014  19:59:00      -89.846      -26.151      -17.919       28.387       16.451       10.266      805.825      270.622      105.399        0.513        0.059       93.575        8.186        0.008      334.690        4.829      871.210
01/24/2014  20:00:00     -102.552      -12.563      -14.212       31.656       30.076       17.792     1002.110      904.557      316.559        0.655        0.111      103.318        9.593        0.009      334.597        4.674      871.205
01/24/2014  20:01:00      -87.448       -0.258       -9.855       31.488       18.684       18.243      991.506      349.082      332.807        0.471        0.084       87.449       17.855        0.042      334.459        4.446      871.201
01/24/2014  20:02:00     -113.260      -11.294      -13.249       25.020       22.101       15.061      625.994      488.448      226.842        0.724        0.067      113.822        8.018        0.005      334.412        4.368      871.196
01/24/2014  20:03:00     -121.798      -15.816      -14.527       26.302       27.714       19.126      691.787      768.085      365.812        0.856        0.091      122.820       14.887        0.015      334.422        4.385      871.184
01/24/2014  20:04:00      -76.743      -33.085       -9.874       18.996       26.563       16.498      360.838      705.581      272.198        0.421        0.067       83.571       10.907        0.017      334.405        4.357      871.191
01/24/2014  20:05:00      -77.238      -56.326      -13.250       17.033       25.681       12.724      290.127      659.517      161.906        0.521        0.056       95.595        8.407        0.008      334.430        4.398      871.178
01/24/2014  20:06:00      -24.348      -27.001        8.814       27.745       30.226       20.601      769.766      913.611      424.392        0.175        0.105       36.358       19.174        0.278      334.414        4.371      871.175
01/24/2014  20:07:00      -35.654      -36.106        8.902       37.688       31.636       19.524     1420.362     1000.859      381.202        0.273        0.140       50.743       21.880        0.186      334.347        4.261      871.184
01/24/2014  20:08:00      -92.058      -58.202      -15.422       22.623       24.076       14.344      511.816      579.665      205.764        0.670        0.065      108.913       13.032        0.014      334.404        4.355      871.190
01/24/2014  20:09:00      -97.782      -35.929      -14.220       21.119       24.062       20.396      446.020      578.956      415.991        0.625        0.072      104.174       18.483        0.031      334.394        4.337      871.203
01/24/2014  20:10:00     -119.332      -33.935       -9.217       33.862       19.497       15.074     1146.602      380.140      227.228        0.862        0.088      124.064       16.384        0.017      334.453        4.436      871.214
01/24/2014  20:11:00     -116.976      -23.591      -11.047       24.507       16.577       16.140      600.610      274.803      260.509        0.775        0.057      119.331       12.500        0.011      334.453        4.435      871.208
01/24/2014  20:12:00     -138.214      -21.920      -12.060       24.902       17.094       14.758      620.127      292.205      217.790        1.043        0.057      139.942       15.242        0.012      334.475        4.471      871.214
01/24/2014  20:13:00     -127.558      -28.582      -11.172       24.564       19.110       13.463      603.414      365.184      181.265        0.918        0.057      130.722       12.818        0.010      334.453        4.436      871.220
01/24/2014  20:14:00     -110.565      -37.142       -5.120       29.337       19.188       16.327      860.650      368.176      266.564        0.756        0.075      116.637       15.622        0.018      334.461        4.450      871.238
01/24/2014  20:15:00     -100.663      -31.476      -10.225       19.896       20.368       12.149      395.837      414.852      147.587        0.609        0.048      105.470        9.598        0.008      334.467        4.460      871.247
01/24/2014  20:16:00      -93.971      -37.946      -14.213       19.661       28.282       17.047      386.572      799.879      290.588        0.597        0.074      101.343       14.884        0.022      334.422        4.385      871.250
01/24/2014  20:17:00      -92.719      -19.151      -12.060       21.045       22.842       12.618      442.886      521.759      159.203        0.512        0.056       94.676        9.276        0.010      334.408        4.363      871.251
01/24/2014  20:18:00     -110.691       -7.348       -9.622       24.300       29.832       15.516      590.478      889.921      240.749        0.706        0.086      110.935       12.546        0.013      334.286        4.160      871.242
01/24/2014  20:19:00     -115.425      -24.643      -16.117       32.533       18.751       19.049     1058.422      351.588      362.846        0.798        0.089      118.026       19.215        0.027      334.278        4.145      871.234
01/24/2014  20:20:00      -80.569      -40.195       -5.679       24.861       26.051       20.106      618.048      678.639      404.236        0.492        0.085       90.039       15.832        0.031      334.265        4.124      871.246
01/24/2014  20:21:00     -111.562      -30.717      -14.903       29.784       20.210       12.913      887.079      408.456      166.743        0.754        0.073      115.714        6.656        0.003      334.245        4.091      871.248
01/24/2014  20:22:00     -107.794      -33.481      -14.464       38.894       30.581       16.044     1512.753      935.198      257.416        0.783        0.135      112.874        8.761        0.006      334.145        3.924      871.264
01/24/2014  20:23:00      -80.767      -20.331       -6.235       31.534       31.570       21.497      994.376      996.671      462.107        0.471        0.123       83.287       15.210        0.033      334.077        3.812      871.270
01/24/2014  20:24:00     -107.208      -20.538       -6.530       31.981       21.596       17.110     1022.757      466.373      292.741        0.687        0.089      109.157       15.342        0.020      334.070        3.801      871.271
01/24/2014  20:25:00      -90.794      -12.166      -11.990       22.024       19.982       18.019      485.076      399.294      324.678        0.487        0.060       91.605       14.158        0.024      334.023        3.722      871.267
01/24/2014  20:26:00      -97.425      -32.124      -20.051       19.168       20.473       11.973      367.423      419.128      143.342        0.593        0.046      102.585        5.130        0.003      334.102        3.853      871.268
01/24/2014  20:27:00      -95.305      -34.104      -11.929       23.511       23.119       15.494      552.782      534.503      240.052        0.586        0.066      101.223       11.694        0.013      334.091        3.834      871.248
01/24/2014  20:28:00      -92.014      -53.879      -17.087       32.282       32.795       19.534     1042.145     1075.501      381.567        0.708        0.125      106.628       12.275        0.013      334.142        3.919      871.237
01/24/2014  20:29:00      -68.200      -61.055       -1.242       32.138       29.069       28.136     1032.838      844.981      791.621        0.552        0.133       91.537       24.536        0.072      334.082        3.819      871.239
01/24/2014  20:30:00      -66.901      -20.181       -1.485       42.651       31.345       20.326     1819.069      982.503      413.157        0.405        0.161       69.878       22.594        0.105      334.063        3.787      871.242
01/24/2014  20:31:00     -112.235      -10.722      -16.864       22.074       20.607       12.831      487.268      424.638      164.644        0.704        0.054      112.746        8.809        0.006      334.106        3.860      871.256
01/24/2014  20:32:00      -97.529      -15.850      -18.340       15.898       16.613       13.391      252.747      275.996      179.313        0.540        0.035       98.809        7.128        0.005      334.180        3.983      871.273
01/24/2014  20:33:00     -106.776      -18.203      -23.711       20.212       20.186       16.302      408.505      407.486      265.745        0.669        0.054      108.316       13.399        0.015      334.113        3.870      871.279
01/24/2014  20:34:00     -113.223      -19.172      -15.581       18.490       22.235       12.700      341.870      494.381      161.278        0.721        0.050      114.835       11.684        0.010      334.003        3.689      871.287
01/24/2014  20:35:00     -108.210      -23.807      -19.657       37.514       20.225       17.596     1407.290      409.061      309.628        0.739        0.106      110.798       16.887        0.023      334.018        3.713      871.284
01/24/2014  20:36:00     -103.851      -36.065      -17.599       26.633       20.835       20.545      709.335      434.084      422.088        0.698        0.078      109.935       16.167        0.022      333.968        3.632      871.266
01/24/2014  20:37:00     -117.257      -13.477      -19.949       26.261       21.189       15.949      689.623      448.959      254.383        0.786        0.070      118.029       10.347        0.008      333.899        3.517      871.260
01/24/2014  20:38:00      -93.871      -12.465      -15.619       20.367       19.365       11.781      414.818      375.014      138.799        0.507        0.046       94.695       12.185        0.017      333.933        3.573      871.250
01/24/2014  20:39:00      -96.765      -17.825      -17.336       15.087       17.641       11.573      227.618      311.204      133.927        0.533        0.034       98.393        8.327        0.007      333.944        3.592      871.230
01/24/2014  20:40:00      -97.069      -12.190      -17.404       12.538       10.248       10.742      157.205      105.029      115.396        0.513        0.019       97.831        6.594        0.005      333.966        3.628      871.225
01/24/2014  20:41:00      -95.708      -16.018      -21.114       10.417       10.348        9.942      108.508      107.085       98.840        0.509        0.016       97.039        5.411        0.003      333.974        3.643      871.219
01/24/2014  20:42:00      -87.599      -12.844      -15.772       10.481       13.482        9.805      109.849      181.752       96.133        0.424        0.019       88.535        6.855        0.006      334.050        3.766      871.212
01/24/2014  20:43:00      -72.571      -30.060      -10.898       11.916       16.295       11.466      141.994      265.514      131.464        0.341        0.027       78.551        8.086        0.011      334.074        3.806      871.213
01/24/2014  20:44:00      -65.590      -31.582      -14.716       13.538        9.369        9.081      183.279       87.769       82.470        0.293        0.018       72.798        4.198        0.003      334.096        3.844      871.223
01/24/2014  20:45:00      -79.096      -33.814      -20.055       10.074       14.081       11.224      101.480      198.260      125.971        0.411        0.021       86.020        4.206        0.002      334.047        3.761      871.219
01/24/2014  20:46:00      -96.200      -14.654      -19.081       15.746       17.769       12.628      247.935      315.725      159.454        0.528        0.036       97.309       10.673        0.012      333.978        3.648      871.223
01/24/2014  20:47:00      -93.753      -23.359      -21.894       19.906       20.782       14.692      396.242      431.892      215.846        0.543        0.052       96.619       11.008        0.013      333.938        3.580      871.229
01/24/2014  20:48:00      -95.932      -18.266      -18.546       22.844       18.541       15.541      521.836      343.759      241.512        0.549        0.055       97.655       11.897        0.015      333.944        3.591      871.234
01/24/2014  20:49:00     -105.313       -0.458      -19.654       18.837       18.866       15.103      354.839      355.932      228.099        0.621        0.047      105.314        9.567        0.008      333.933        3.573      871.243
01/24/2014  20:50:00     -100.509      -17.295      -17.830       12.632       15.895       13.020      159.570      252.665      169.533        0.565        0.029      101.986        9.011        0.008      333.958        3.614      871.242
01/24/2014  20:51:00      -81.398      -33.002      -11.426       19.046       23.321       15.475      362.743      543.863      239.463        0.450        0.057       87.833       11.855        0.018      333.918        3.548      871.241
01/24/2014  20:52:00      -93.477      -33.170      -19.811       19.731       26.325       17.216      389.309      693.023      296.400        0.580        0.069       99.188       16.749        0.029      333.994        3.674      871.254
01/24/2014  20:53:00      -97.864      -32.581      -22.556       17.766       20.733       16.061      315.618      429.843      257.942        0.608        0.050      103.145        6.466        0.004      333.978        3.648      871.248
01/24/2014  20:54:00     -114.404      -29.397      -23.943       36.099       22.407       18.565     1303.119      502.052      344.660        0.834        0.107      118.120       11.263        0.009      333.966        3.628      871.244
01/24/2014  20:55:00     -102.738      -42.480      -27.826       31.341       28.425       17.083      982.277      807.954      291.814        0.761        0.104      111.174       10.735        0.009      333.957        3.613      871.247
01/24/2014  20:56:00      -79.573      -66.491      -28.728       30.005       22.794       22.811      900.312      519.571      520.340        0.676        0.097      103.697       10.903        0.011      333.948        3.598      871.241
01/24/2014  20:57:00      -94.712      -37.939      -14.702       27.882       29.473       17.483      777.424      868.679      305.653        0.629        0.098      102.028       13.458        0.017      333.898        3.516      871.235
01/24/2014  20:58:00     -113.432      -19.380      -16.797       25.452       28.040       19.003      647.797      786.237      361.113        0.766        0.090      115.076        4.036        0.001      333.898        3.514      871.247
01/24/2014  20:59:00      -99.457        1.817      -23.836       16.342       21.839       19.752      267.066      476.939      390.123        0.580        0.057       99.474       10.809        0.012      333.905        3.526      871.250
01/24/2014  21:00:00      -85.458      -30.849      -14.243       17.990       20.193       14.999      323.623      407.774      224.959        0.471        0.048       90.856        7.555        0.007      333.947        3.597      871.247
01/24/2014  21:01:00     -127.639       -6.940      -18.706       31.518       25.471       21.518      993.399      648.754      463.023        0.940        0.105      127.828       12.435        0.009      333.889        3.499      871.255
01/24/2014  21:02:00     -107.356      -41.024       -9.348       28.774       28.167       19.606      827.936      793.405      384.411        0.765        0.100      114.927       17.534        0.023      333.848        3.433      871.259
01/24/2014  21:03:00      -95.283      -37.196      -10.145       33.106       30.200       24.902     1095.989      912.059      620.126        0.660        0.131      102.286       17.642        0.030      333.810        3.369      871.262
01/24/2014  21:04:00     -105.198      -25.878      -16.794       40.317       22.348       19.609     1625.422      499.411      384.514        0.726        0.125      108.334       17.688        0.027      333.806        3.363      871.259
01/24/2014  21:05:00     -128.534      -22.303      -20.902       49.672       30.553       21.423     2467.318      933.466      458.954        1.066        0.193      130.455       16.361        0.016      333.782        3.322      871.268
01/24/2014  21:06:00     -123.081      -29.968      -20.341       33.903       36.719       20.234     1149.394     1348.311      409.400        0.968        0.145      126.677       10.995        0.008      333.794        3.342      871.269
01/24/2014  21:07:00      -96.280      -49.395      -17.844       40.393       26.465       24.684     1631.629      700.416      609.323        0.748        0.147      108.211       22.544        0.043      333.821        3.388      871.261
01/24/2014  21:08:00      -33.429      -18.855        1.426       36.765       23.583       27.561     1351.698      556.162      759.621        0.207        0.133       38.380       25.103        0.428      333.832        3.406      871.266
01/24/2014  21:09:00      -86.781      -49.751       -7.660       34.183       21.139       18.028     1168.478      446.838      325.020        0.600        0.097      100.031       15.690        0.025      333.789        3.335      871.274
01/24/2014  21:10:00     -106.318      -38.874      -10.468       21.332       20.800       14.651      455.074      432.620      214.641        0.701        0.055      113.202       11.474        0.010      333.768        3.299      871.267
01/24/2014  21:11:00      -95.922      -43.702      -13.735       14.857       15.491       10.866      220.721      239.958      118.068        0.594        0.029      105.408       10.666        0.010      333.798        3.348      871.267
01/24/2014  21:12:00     -120.376      -45.697      -14.031       22.460       14.804       13.642      504.431      219.165      186.104        0.884        0.045      128.758       11.685        0.008      333.820        3.385      871.277
01/24/2014  21:13:00     -136.218      -40.601      -17.137       19.349       11.198        8.925      374.377      125.388       79.661        1.054        0.029      142.140        5.249        0.001      333.853        3.441      871.276
01/24/2014  21:14:00     -133.038      -45.102       -8.797       20.778       20.538       13.503      431.740      421.803      182.341        1.042        0.052      140.475       11.694        0.007      333.860        3.451      871.276
01/24/2014  21:15:00     -141.190      -35.322      -19.900       14.410       13.627        9.549      207.641      185.684       91.179        1.103        0.024      145.542        6.813        0.002      333.817        3.379      871.273
01/24/2014  21:16:00     -135.219      -34.214      -15.155       18.832       17.624       14.254      354.640      310.617      203.188        1.028        0.043      139.480       10.952        0.006      333.817        3.381      871.274
01/24/2014  21:17:00     -146.103      -42.445      -19.314       13.393        8.550        9.919      179.378       73.099       98.387        1.194        0.018      152.144        5.891        0.001      333.828        3.398      871.281
01/24/2014  21:18:00     -141.070      -27.606      -17.496       19.143       17.913       15.232      366.453      320.859      232.008        1.094        0.046      143.746        8.313        0.003      333.819        3.384      871.284
01/24/2014  21:19:00     -137.795      -43.710      -15.127       16.757       23.907       15.346      280.807      571.532      235.505        1.111        0.054      144.561       10.686        0.005      333.809        3.367      871.278
01/24/2014  21:20:00     -134.455      -32.779      -16.536       20.194       18.749       13.416      407.806      351.525      179.997        1.018        0.047      138.393        8.103        0.003      333.788        3.332      871.280
01/24/2014  21:21:00     -139.698      -43.048      -14.353       15.740       12.847       10.771      247.757      165.042      116.015        1.105        0.026      146.180        6.335        0.002      333.767        3.298      871.300
01/24/2014  21:22:00     -124.604      -26.346      -14.004       29.637       19.358       16.920      878.323      374.732      286.290        0.898        0.077      127.359       14.762        0.013      333.760        3.285      871.308
01/24/2014  21:23:00     -144.509      -23.045      -18.388       20.562       13.942       12.605      422.816      194.390      158.886        1.126        0.039      146.335        9.813        0.004      333.719        3.218      871.313
01/24/2014  21:24:00      -97.268      -39.435      -11.837       16.059       19.676       14.697      257.903      387.133      216.008        0.601        0.043      104.958        9.433        0.008      333.723        3.225      871.317
01/24/2014  21:25:00      -68.089      -39.782      -14.201       40.451       26.139       16.354     1636.302      683.244      267.468        0.450        0.129       78.859       10.283        0.017      333.719        3.219      871.322
01/24/2014  21:26:00      -59.961      -26.294        4.242       39.665       34.048       19.761     1573.343     1159.249      390.482        0.371        0.156       65.472       20.279        0.096      333.747        3.265      871.332
01/24/2014  21:27:00      -44.586      -60.984       -5.311       34.114       33.789       17.924     1163.745     1141.717      321.278        0.418        0.131       75.544        9.733        0.017      333.722        3.223      871.344
01/24/2014  21:28:00      -96.012      -71.406      -17.560       23.114       24.912       15.453      534.234      620.631      238.796        0.801        0.070      119.654       12.568        0.011      333.674        3.143      871.348
01/24/2014  21:29:00     -130.924      -51.117      -20.884       15.873       10.483        9.936      251.958      109.888       98.728        1.033        0.023      140.549        6.943        0.002      333.708        3.200      871.352
01/24/2014  21:30:00     -133.205      -44.785      -14.635       15.148       12.769       10.467      229.472      163.059      109.558        1.023        0.025      140.532        6.850        0.002      333.716        3.213      871.353
01/24/2014  21:31:00     -114.905      -35.312       -7.225       22.115       23.657       11.921      489.052      559.668      142.103        0.785        0.060      120.209        8.859        0.005      333.745        3.261      871.356
01/24/2014  21:32:00     -122.277      -46.181      -19.080       21.306       11.089       11.502      453.956      122.975      132.294        0.908        0.035      130.707        6.543        0.003      333.748        3.264      871.371
01/24/2014  21:33:00     -109.153      -53.728      -17.154       20.747       15.790       15.404      430.428      249.309      237.286        0.801        0.046      121.660       10.581        0.008      333.775        3.312      871.384
01/24/2014  21:34:00     -118.685      -62.297       -9.199       18.694       18.096       10.427      349.470      327.457      108.718        0.942        0.039      134.042        8.389        0.004      333.763        3.290      871.384
01/24/2014  21:35:00      -98.734      -66.101      -12.712       25.328       20.809       16.933      641.512      433.007      286.722        0.782        0.068      118.818        5.416        0.002      333.795        3.343      871.391
01/24/2014  21:36:00     -111.597      -62.759       -7.495       37.634       21.831       17.541     1416.350      476.599      307.689        0.932        0.110      128.034       15.471        0.015      333.692        3.173      871.401
01/24/2014  21:37:00      -96.839      -62.921       -3.791       35.816       21.038       18.289     1282.800      442.582      334.471        0.771        0.103      115.485       19.344        0.028      333.644        3.094      871.413
01/24/2014  21:38:00     -104.092      -47.783       -6.841       22.137       17.345       16.206      490.034      300.836      262.636        0.711        0.053      114.536       11.751        0.011      333.649        3.102      871.430
01/24/2014  21:39:00     -128.559      -68.030      -17.444       19.457       15.791       12.996      378.592      249.356      168.902        1.113        0.040      145.449        9.730        0.004      333.631        3.072      871.428
01/24/2014  21:40:00     -116.047      -82.654      -12.701       27.243       25.257       19.963      742.158      637.907      398.525        1.112        0.089      142.473        7.657        0.003      333.590        3.005      871.414
01/24/2014  21:41:00     -128.379      -62.034       -7.929       28.178       18.462       18.461      794.008      340.840      340.824        1.093        0.074      142.582       13.474        0.009      333.522        2.889      871.402
01/24/2014  21:42:00     -113.359      -54.459        0.557       22.639       23.073       18.274      512.538      532.384      333.924        0.860        0.069      125.762       13.298        0.011      333.522        2.892      871.404
01/24/2014  21:43:00     -117.962      -55.100      -11.435       20.678       13.661       15.876      427.564      186.611      252.052        0.897        0.043      130.196       12.533        0.009      333.582        2.991      871.419
01/24/2014  21:44:00      -95.913      -57.703       -2.633       48.574       28.073       21.146     2359.460      788.070      447.163        0.806        0.180      111.933       24.936        0.050      333.585        2.997      871.426
01/24/2014  21:45:00     -103.284      -75.390       -9.190       31.521       33.117       19.179      993.597     1096.709      367.852        0.945        0.123      127.872       13.497        0.011      333.595        3.012      871.429
01/24/2014  21:46:00     -105.293      -60.460       -3.308       35.274       25.134       19.651     1244.285      631.739      386.163        0.851        0.113      121.417       18.644        0.024      333.545        2.930      871.434
01/24/2014  21:47:00     -126.135      -59.565       -4.250       30.094       31.167       18.782      905.636      971.361      352.773        1.085        0.111      139.492       17.939        0.017      333.493        2.844      871.440
01/24/2014  21:48:00     -145.865      -53.843       -2.178       35.456       24.786       19.898     1257.128      614.362      395.926        1.322        0.113      155.485       18.411        0.014      333.520        2.888      871.463
01/24/2014  21:49:00     -133.851      -48.876        0.814       35.832       26.380       22.469     1283.944      695.914      504.836        1.139        0.124      142.496       24.002        0.028      333.506        2.864      871.476
01/24/2014  21:50:00     -116.574      -76.267        0.411       44.599       33.738       22.196     1989.100     1138.240      492.648        1.151        0.181      139.306       21.005        0.023      333.503        2.861      871.481
01/24/2014  21:51:00     -109.577      -78.711       -3.329       33.353       34.464       21.010     1112.397     1187.765      441.435        1.048        0.137      134.917       15.022        0.012      333.597        3.016      871.482
01/24/2014  21:52:00     -107.445      -66.025       -3.602       39.259       27.390       21.434     1541.289      750.196      459.420        0.933        0.138      126.110       19.675        0.024      333.580        2.989      871.491
01/24/2014  21:53:00     -119.577      -71.330       -1.973       40.533       28.075       23.383     1642.924      788.217      546.749        1.118        0.149      139.236       21.298        0.023      333.539        2.919      871.507
01/24/2014  21:54:00      -90.589      -65.470       -8.722       39.839       29.987       26.301     1587.157      899.202      691.751        0.787        0.159      111.770       25.067        0.050      333.615        3.046      871.521
01/24/2014  21:55:00     -118.952      -84.087       -1.733       32.095       27.761       22.655     1030.066      770.700      513.229        1.177        0.116      145.672       12.415        0.007      333.553        2.944      871.525
01/24/2014  21:56:00     -144.417      -64.951       -7.137       25.455       25.866       19.124      647.969      669.056      365.716        1.340        0.084      158.351       14.327        0.008      333.523        2.893      871.531
01/24/2014  21:57:00     -150.039      -49.809       -4.085       38.285       39.664       23.256     1465.739     1573.199      540.836        1.429        0.179      158.090       18.709        0.014      333.527        2.900      871.528
01/24/2014  21:58:00     -164.170      -37.724       -7.349       27.891       26.477       17.132      777.907      701.045      293.498        1.510        0.089      168.449       12.518        0.006      333.520        2.888      871.532
01/24/2014  21:59:00     -153.391      -47.892       -2.659       32.548       28.318       19.396     1059.356      801.888      376.206        1.403        0.112      160.694       16.996        0.011      333.479        2.820      871.533
01/24/2014  22:00:00     -151.803      -53.141       -2.042       37.081       26.732       16.272     1374.996      714.613      264.785        1.411        0.118      160.836       15.111        0.009      333.507        2.866      871.535
01/24/2014  22:01:00     -118.063      -36.074        1.087       39.293       27.034       20.420     1543.956      730.831      416.975        0.897        0.135      123.451       19.582        0.025      333.504        2.861      871.540
01/24/2014  22:02:00     -119.891      -47.046        1.674       37.754       25.510       17.653     1425.378      650.779      311.615        0.949        0.119      128.791       19.790        0.024      333.468        2.800      871.548
01/24/2014  22:03:00     -122.515      -50.591       -3.939       29.898       26.099       19.772      893.896      681.176      390.924        0.978        0.098      132.550       16.238        0.015      333.440        2.754      871.557
01/24/2014  22:04:00     -136.861      -56.400       -4.101       48.028       31.883       24.522     2306.726     1016.509      601.318        1.293        0.196      148.027       23.294        0.025      333.415        2.714      871.571
01/24/2014  22:05:00     -135.888      -29.158       -3.749       44.832       35.462       25.271     2009.879     1257.522      638.634        1.162        0.195      138.981       27.133        0.038      333.385        2.664      871.568
01/24/2014  22:06:00     -129.113      -73.511       -0.879       39.174       29.039       21.390     1534.595      843.240      457.520        1.245        0.142      148.573       20.460        0.019      333.372        2.644      871.567
01/24/2014  22:07:00     -121.194      -19.337      -14.727       33.212       33.945       18.290     1103.030     1152.278      334.527        0.893        0.129      122.727       14.038        0.013      333.389        2.672      871.570
01/24/2014  22:08:00     -138.004      -41.009       -9.797       41.712       28.462       26.659     1739.884      810.075      710.709        1.204        0.163      143.969       24.370        0.029      333.278        2.487      871.570
01/24/2014  22:09:00     -137.030      -21.884       -6.141       59.301       40.953       29.630     3516.575     1677.148      877.925        1.268        0.304      138.767       23.496        0.029      333.249        2.440      871.570
01/24/2014  22:10:00      -81.877      -19.694        3.119       65.907       47.320       25.645     4343.780     2239.219      657.651        0.717        0.362       84.212       32.597        0.150      333.212        2.379      871.594
01/24/2014  22:11:00     -145.069      -16.251      -12.363       46.316       44.495       28.462     2145.215     1979.811      810.076        1.320        0.247      145.977       25.060        0.029      333.190        2.342      871.609
01/24/2014  22:12:00     -125.247        1.112       -1.026       48.619       36.975       30.028     2363.812     1367.146      901.663        1.016        0.232      125.252       28.057        0.050      333.272        2.477      871.620
01/24/2014  22:13:00     -130.065      -29.953       -9.171       73.278       61.366       32.472     5369.594     3765.738     1054.438        1.404        0.509      133.469       35.555        0.071      333.269        2.472      871.633
01/24/2014  22:14:00      -79.053      -24.244       10.553       47.048       48.371       28.346     2213.548     2339.730      803.477        0.615        0.268       82.687       24.318        0.086      333.262        2.461      871.653
01/24/2014  22:15:00     -125.525      -30.508      -14.475       73.454       48.041       25.819     5395.528     2307.907      666.600        1.263        0.419      129.179       19.490        0.023      333.261        2.459      871.672
01/24/2014  22:16:00     -110.112      -21.446       -4.008       50.125       51.509       28.082     2512.471     2653.139      788.617        0.928        0.298      112.181       27.597        0.061      333.217        2.385      871.675
01/24/2014  22:17:00     -106.957      -37.663       -5.169       52.041       46.928       24.751     2708.285     2202.277      612.627        0.920        0.276      113.395       22.909        0.041      333.145        2.267      871.670
01/24/2014  22:18:00     -150.462      -46.519       -9.618       58.245       45.880       29.443     3392.532     2104.995      866.892        1.563        0.318      157.490       28.060        0.032      333.143        2.264      871.662
01/24/2014  22:19:00     -108.634      -25.790        5.851       54.196       57.110       30.261     2937.251     3261.596      915.739        0.981        0.356      111.654       27.307        0.060      333.087        2.174      871.665
01/24/2014  22:20:00     -110.466       -5.060       -5.023       51.022       25.872       26.775     2603.267      669.339      716.900        0.812        0.199      110.582       27.074        0.060      333.170        2.310      871.658
01/24/2014  22:21:00     -124.349      -45.730      -11.161       83.241       30.395       25.964     6929.145      923.850      674.109        1.310        0.426      132.492       31.234        0.056      333.194        2.348      871.675
01/24/2014  22:22:00      -24.703      -34.037       13.974       46.601       37.585       26.456     2171.625     1412.668      699.931        0.312        0.214       42.057       26.287        0.391      333.212        2.378      871.681
01/24/2014  22:23:00      -50.863      -12.646        6.501       45.927       40.335       19.702     2109.252     1626.907      388.155        0.346        0.206       52.412       18.314        0.122      333.212        2.378      871.687
01/24/2014  22:24:00     -146.384      -56.471       -6.780       44.300       59.560       28.210     1962.483     3547.359      795.784        1.548        0.315      156.898       24.294        0.024      333.174        2.317      871.694
01/24/2014  22:25:00      -65.419      -29.777        2.713       49.453       48.994       26.881     2445.555     2400.374      722.601        0.537        0.278       71.877       24.640        0.118      333.137        2.255      871.705
01/24/2014  22:26:00      -89.101      -69.844      -13.595       54.221       29.125       23.332     2939.871      848.284      544.392        0.867        0.217      113.213       14.220        0.016      333.136        2.253      871.719
01/24/2014  22:27:00      -55.125      -18.667       -1.095       31.259       31.353       17.893      977.142      983.023      320.149        0.283        0.114       58.200       14.607        0.063      333.152        2.276      871.737
01/24/2014  22:28:00       14.512      -28.930       11.519       29.473       22.156       21.249      868.642      490.869      451.502        0.150        0.091       32.366       14.802        0.209      333.197        2.353      871.751
01/24/2014  22:29:00       -9.856      -46.560      -10.802       24.069       29.945       24.634      579.308      896.713      606.817        0.223        0.104       47.592       16.503        0.120      333.175        2.317      871.767
01/24/2014  22:30:00      -24.266      -23.178       17.409       33.773       18.916       18.494     1140.621      357.817      342.043        0.163        0.092       33.557       19.826        0.349      333.128        2.239      871.785
01/24/2014  22:31:00      -48.478      -24.335       -0.272       37.822       24.348       16.359     1430.532      592.827      267.619        0.262        0.115       54.243       15.625        0.083      333.131        2.245      871.799
01/24/2014  22:32:00      -93.139      -39.962      -12.819       14.840       13.644       12.676      220.239      186.159      160.680        0.550        0.028      101.350        8.836        0.008      333.091        2.180      871.813
01/24/2014  22:33:00      -91.716      -21.653      -10.155       19.312       14.341       10.453      372.946      205.661      109.270        0.484        0.034       94.237        8.404        0.008      333.119        2.224      871.814
01/24/2014  22:34:00      -79.751      -33.249       -2.384       17.903       22.020       11.598      320.502      484.868      134.510        0.421        0.047       86.404        6.390        0.005      333.145        2.268      871.811
01/24/2014  22:35:00      -77.653      -45.140       -4.072       41.310       22.564       20.161     1706.535      509.150      406.478        0.535        0.131       89.820       12.862        0.021      333.108        2.207      871.811
01/24/2014  22:36:00     -116.151      -56.394      -11.532       29.480       16.412       16.834      869.068      269.343      283.388        0.911        0.071      129.118       17.011        0.017      333.080        2.162      871.821
01/24/2014  22:37:00      -91.200      -51.337       -6.757       32.707       22.555       17.132     1069.730      508.737      293.507        0.643        0.094      104.656       16.889        0.026      333.090        2.177      871.814
01/24/2014  22:38:00      -99.248      -52.766       -9.235       30.733       17.346       15.725      944.491      300.875      247.268        0.711        0.075      112.403        6.299        0.003      333.126        2.237      871.813
01/24/2014  22:39:00      -74.901      -48.193        1.133       30.662       18.969       21.857      940.151      359.828      477.723        0.486        0.089       89.066       17.588        0.039      333.071        2.146      871.808
01/24/2014  22:40:00     -101.086      -47.532        0.147       31.118       19.023       12.612      968.301      361.875      159.056        0.698        0.074      111.703        5.375        0.002      333.046        2.105      871.798
01/24/2014  22:41:00     -102.383      -56.406       -4.118       18.426       17.096       12.783      339.507      292.286      163.416        0.724        0.040      116.893        9.176        0.006      333.046        2.105      871.800
01/24/2014  22:42:00      -84.511      -49.678        0.040       27.733       21.306       16.155      769.144      453.949      260.985        0.555        0.074       98.031       16.685        0.029      333.026        2.071      871.800
01/24/2014  22:43:00      -87.278      -49.424        4.413       23.136       26.234       19.216      535.256      688.201      369.259        0.584        0.080      100.301       13.381        0.018      332.998        2.025      871.796
01/24/2014  22:44:00      -77.189      -30.277        1.265       32.142       23.755       14.041     1033.091      564.280      197.139        0.434        0.090       82.915       16.195        0.038      333.031        2.080      871.796
01/24/2014  22:45:00     -107.651      -43.114       -5.304       22.309       21.402       13.004      497.699      458.066      169.109        0.730        0.056      115.963       12.633        0.012      333.089        2.176      871.789
01/24/2014  22:46:00     -125.414      -38.296      -10.856       17.955       22.849       10.845      322.365      522.086      117.613        0.914        0.048      131.131        8.324        0.004      333.040        2.096      871.784
01/24/2014  22:47:00     -128.386      -44.353       -2.729       23.957       21.266       14.846      573.956      452.245      220.400        0.985        0.062      135.831       12.228        0.008      333.002        2.032      871.770
01/24/2014  22:48:00     -131.833      -38.880        0.819       28.235       20.623       16.142      797.220      425.308      260.552        1.019        0.074      137.447       14.189        0.011      332.992        2.015      871.758
01/24/2014  22:49:00     -136.191      -47.987        3.742       37.652       25.388       17.086     1417.641      644.555      291.921        1.161        0.118      144.398       18.495        0.016      332.939        1.928      871.746
01/24/2014  22:50:00     -126.148      -54.207        6.519       38.254       32.021       21.812     1463.391     1025.318      475.748        1.093        0.148      137.301       26.980        0.039      332.951        1.949      871.748
01/24/2014  22:51:00     -129.404      -67.182       -4.931       30.709       25.614       19.319      943.058      656.075      373.243        1.163        0.099      145.804       18.251        0.016      332.907        1.875      871.759
01/24/2014  22:52:00     -106.710      -57.454       -5.033       28.181       22.805       17.340      794.159      520.051      300.677        0.816        0.081      121.194       14.978        0.015      332.840        1.765      871.785
01/24/2014  22:53:00      -90.703      -54.434      -10.430       19.376       19.367       14.364      375.411      375.081      206.336        0.613        0.048      105.783       11.116        0.011      332.833        1.753      871.810
01/24/2014  22:54:00      -64.995      -36.127       -9.761       21.797       24.110       16.379      475.114      581.310      268.260        0.347        0.066       74.361       11.993        0.026      332.804        1.706      871.828
01/24/2014  22:55:00      -86.881       -2.390      -13.140       28.925       11.769       12.750      836.638      138.515      162.566        0.443        0.057       86.914       12.942        0.022      332.770        1.649      871.839
01/24/2014  22:56:00      -96.954      -18.557      -10.379       25.846       20.138       12.153      668.029      405.534      147.707        0.554        0.061       98.714       10.816        0.012      332.773        1.654      871.845
01/24/2014  22:57:00     -103.061      -24.850      -13.362       25.245       20.832       11.873      637.322      433.966      140.971        0.631        0.061      106.015       13.638        0.017      332.760        1.632      871.847
01/24/2014  22:58:00      -58.513      -30.575       -1.490       15.875       21.911       11.477      252.025      480.076      131.731        0.261        0.043       66.020        4.152        0.004      332.798        1.697      871.842
01/24/2014  22:59:00      -26.224      -24.132        3.548       18.877       17.382       14.063      356.342      302.139      197.757        0.107        0.043       35.638        7.621        0.046      332.838        1.762      871.845
01/24/2014  23:00:00      -60.466      -33.080       -3.883       23.173       19.113       13.654      536.994      365.304      186.425        0.293        0.054       68.923        9.672        0.020      332.816        1.727      871.843
01/24/2014  23:01:00      -80.116      -23.131      -17.824       14.957       15.775       10.753      223.724      248.854      115.619        0.393        0.029       83.388        8.049        0.009      332.824        1.739      871.838
01/24/2014  23:02:00      -92.708      -30.030      -14.489       17.347       19.879       14.054      300.909      395.161      197.508        0.530        0.045       97.450       10.798        0.012      332.790        1.683      871.832
01/24/2014  23:03:00      -99.218      -42.508      -14.677       16.334       21.044       10.796      266.791      442.830      116.544        0.635        0.041      107.941        6.143        0.003      332.787        1.678      871.833
01/24/2014  23:04:00     -101.389      -28.332       -8.498       25.956       22.032       12.650      673.696      485.414      160.032        0.624        0.066      105.273       12.316        0.014      332.804        1.706      871.833
01/24/2014  23:05:00     -103.679      -40.056      -14.988        8.105        8.520        8.086       65.690       72.591       65.391        0.639        0.010      111.148        4.218        0.001      332.819        1.731      871.840
01/24/2014  23:06:00      -82.159      -52.624      -15.524       15.313       11.798       10.284      234.501      139.192      105.753        0.512        0.024       97.568        8.255        0.007      332.832        1.753      871.848
01/24/2014  23:07:00      -79.280      -43.583       -0.444       22.953       17.013       15.431      526.838      289.453      238.115        0.462        0.053       90.470       10.226        0.013      332.847        1.777      871.852
01/24/2014  23:08:00      -71.458      -30.220        0.218       26.810       16.987       12.757      718.762      288.565      162.728        0.359        0.059       77.586       14.501        0.035      332.885        1.838      871.857
01/24/2014  23:09:00      -23.776      -12.573       10.441       21.465       14.182       14.420      460.734      201.140      207.942        0.085        0.043       26.895       13.952        0.269      332.868        1.812      871.858
01/24/2014  23:10:00      -44.121      -37.199       -0.534       30.349       22.267       15.205      921.056      495.829      231.190        0.249        0.082       57.710       11.012        0.036      332.922        1.900      871.867
01/24/2014  23:11:00      -76.283      -30.687      -11.724       15.836       18.210        8.500      250.767      331.591       72.255        0.378        0.033       82.224        5.104        0.004      332.886        1.842      871.870
01/24/2014  23:12:00      -78.727      -23.528       -8.013       17.187        9.229        9.390      295.401       85.167       88.168        0.364        0.023       82.168        5.383        0.004      332.854        1.789      871.871
01/24/2014  23:13:00     -107.674      -40.820      -13.791       15.411       12.819        9.026      237.501      164.335       81.476        0.697        0.024      115.152        7.793        0.005      332.833        1.753      871.875
01/24/2014  23:14:00     -114.012      -39.250       -7.010       13.547       19.441       11.269      183.509      377.971      126.992        0.764        0.034      120.579        3.548        0.001      332.814        1.722      871.884
01/24/2014  23:15:00      -92.331      -39.419       -2.242       15.538       15.269       10.429      241.417      233.131      108.774        0.533        0.029      100.394        8.331        0.007      332.785        1.674      871.892
01/24/2014  23:16:00      -82.719      -23.157       -3.494       15.535       17.229       12.092      241.344      296.841      146.210        0.404        0.034       85.900        7.323        0.007      332.803        1.705      871.897
01/24/2014  23:17:00      -76.959      -43.635       -1.423       23.074       16.006       13.903      532.399      256.200      193.284        0.441        0.049       88.468       10.038        0.013      332.734        1.588      871.906
01/24/2014  23:18:00      -81.682      -25.552       -1.600       27.505       14.827       12.585      756.530      219.843      158.392        0.423        0.057       85.586       15.360        0.032      332.753        1.621      871.912
01/24/2014  23:19:00      -77.053      -40.198        1.478       21.131       20.698       13.358      446.515      428.390      178.440        0.430        0.053       86.909        9.941        0.013      332.708        1.546      871.908
01/24/2014  23:20:00      -99.847      -42.258        1.791       17.421       15.537       12.710      303.493      241.405      161.540        0.623        0.035      108.421        9.198        0.007      332.769        1.649      871.908
01/24/2014  23:21:00      -35.110      -22.052        6.120       26.807       17.688       15.262      718.601      312.857      232.932        0.151        0.063       41.461       12.653        0.093      332.709        1.548      871.911
01/24/2014  23:22:00      -66.168      -60.860       -8.300       28.630       20.482       16.575      819.701      419.511      274.723        0.483        0.076       89.901       18.133        0.041      332.835        1.757      871.913
01/24/2014  23:23:00      -86.784      -61.764       -7.566       17.727       17.240       11.495      314.249      297.231      132.134        0.607        0.037      106.519        8.047        0.006      332.847        1.777      871.918
01/24/2014  23:24:00      -87.727      -58.464       -2.104       26.211       19.463       16.466      687.005      378.810      271.129        0.623        0.067      105.423       15.119        0.021      332.735        1.589      871.918
01/24/2014  23:25:00     -102.622      -58.266       -0.462       39.945       23.349       18.878     1595.619      545.174      356.374        0.821        0.125      118.009       19.360        0.027      332.773        1.654      871.927
01/24/2014  23:26:00      -99.767      -26.331       -0.959       27.203       23.473       14.506      739.998      550.999      210.424        0.607        0.075      103.183       10.727        0.011      332.689        1.515      871.939
01/24/2014  23:27:00     -106.561      -32.846       -7.236       21.521       18.381       13.954      463.139      337.863      194.712        0.674        0.050      111.508       11.812        0.011      332.723        1.572      871.953
01/24/2014  23:28:00      -87.518      -46.315       -7.386       16.555       15.781       13.972      274.053      249.040      195.220        0.529        0.036       99.017        8.496        0.007      332.774        1.656      871.966
01/24/2014  23:29:00      -88.551      -24.351       -8.704       10.923       11.011       10.816      119.314      121.236      116.986        0.443        0.018       91.838        5.388        0.003      332.713        1.554      871.971
01/24/2014  23:30:00      -95.613      -29.608      -11.028       12.577       12.028       12.219      158.192      144.662      149.294        0.530        0.023      100.093        4.039        0.002      332.758        1.630      871.964
01/24/2014  23:31:00     -105.091      -32.125       -6.125       15.154       15.292       12.011      229.648      233.856      144.270        0.636        0.030      109.891        8.773        0.006      332.753        1.621      871.958
01/24/2014  23:32:00     -113.254      -21.729       -9.135       29.352       19.201       15.749      861.568      368.672      248.027        0.743        0.074      115.320       15.944        0.019      332.758        1.630      871.948
01/24/2014  23:33:00     -135.556      -27.893      -12.730       25.294       18.335       12.837      639.793      336.178      164.800        1.023        0.057      138.396       11.042        0.006      332.658        1.464      871.932
01/24/2014  23:34:00     -124.412      -26.814      -12.146       32.714       17.315       16.659     1070.200      299.817      277.531        0.900        0.082      127.269       16.922        0.018      332.545        1.276      871.936
01/24/2014  23:35:00     -115.054      -25.050       -9.883       17.537       17.574       11.721      307.551      308.836      137.390        0.736        0.038      117.749        4.221        0.001      332.491        1.185      871.944
01/24/2014  23:36:00      -95.771      -13.945      -10.404       17.798       18.402       14.712      316.758      338.626      216.443        0.517        0.044       96.781       11.087        0.013      332.447        1.116      871.948
01/24/2014  23:37:00     -105.273      -12.212      -12.672       18.013       14.240       11.278      324.478      202.789      127.185        0.602        0.033      105.979        8.134        0.006      332.524        1.242      871.943
01/24/2014  23:38:00      -98.388      -29.333       -8.931       14.030       17.900        9.196      196.844      320.396       84.563        0.561        0.030      102.667        3.025        0.001      332.535        1.259      871.939
01/24/2014  23:39:00      -92.296      -22.034      -13.489       13.737       12.913       12.152      188.696      166.754      147.679        0.484        0.025       94.890        8.503        0.008      332.496        1.196      871.940
01/24/2014  23:40:00      -89.311      -24.741      -11.193       18.364        9.953        9.549      337.253       99.058       91.177        0.462        0.026       92.674        8.742        0.009      332.536        1.262      871.934
01/24/2014  23:41:00      -94.280      -28.340      -14.191       11.334        7.644        7.537      128.453       58.427       56.807        0.507        0.012       98.447        5.728        0.003      332.561        1.303      871.945
01/24/2014  23:42:00      -76.251      -41.201      -14.706        8.268        7.976        6.007       68.356       63.623       36.085        0.395        0.008       86.671        3.520        0.002      332.573        1.322      871.962
01/24/2014  23:43:00      -67.671      -29.835      -14.330       12.166       17.635        9.830      148.002      310.987       96.622        0.312        0.028       73.956        6.435        0.008      332.583        1.340      871.983
01/24/2014  23:44:00      -93.709      -39.194      -13.014       11.932        7.454        6.802      142.377       55.556       46.267        0.537        0.012      101.575        2.856        0.001      332.577        1.329      871.996
01/24/2014  23:45:00     -111.547      -36.023       -6.597       11.639       11.245        8.687      135.470      126.439       75.472        0.706        0.017      117.219        6.005        0.003      332.598        1.363      871.994
01/24/2014  23:46:00     -108.798      -44.634       -8.466        8.628       13.832        8.599       74.446      191.337       73.950        0.712        0.017      117.597        3.470        0.001      332.556        1.296      871.989
01/24/2014  23:47:00      -99.682      -34.689       -3.447       14.615       15.926        8.822      213.612      253.632       77.826        0.585        0.027      105.546        3.146        0.001      332.526        1.244      871.990
01/24/2014  23:48:00      -90.610      -31.581       -9.165       19.221       12.413       10.790      369.460      154.092      116.430        0.497        0.032       95.956       10.162        0.011      332.531        1.253      872.006
01/24/2014  23:49:00      -78.813      -24.367       -2.668       14.597       16.511        9.956      213.084      272.625       99.119        0.370        0.029       82.494        7.025        0.007      332.540        1.270      872.016
01/24/2014  23:50:00      -71.625      -23.900       -7.687       10.374        9.601        7.763      107.621       92.179       60.260        0.301        0.013       75.507        3.734        0.002      332.596        1.363      872.025
01/24/2014  23:51:00      -70.273      -16.386       -9.695        7.475        7.802        5.897       55.871       60.869       34.780        0.273        0.008       72.158        2.189        0.001      332.555        1.293      872.030
01/24/2014  23:52:00      -84.231      -12.804      -11.166        8.591        8.432        8.280       73.801       71.101       68.562        0.380        0.011       85.199        2.552        0.001      332.559        1.301      872.016
01/24/2014  23:53:00      -82.710      -12.678       -8.636       17.587       13.072       10.543      309.318      170.872      111.156        0.383        0.030       83.676        9.299        0.012      332.543        1.273      871.997
01/24/2014  23:54:00      -91.833      -14.860      -11.136       13.221       12.820       11.065      174.790      164.344      122.429        0.462        0.023       93.027        7.898        0.007      332.491        1.188      871.981
01/24/2014  23:55:00      -57.629      -17.131      -10.812       25.491       11.556        7.360      649.808      133.533       54.170        0.228        0.042       60.122        7.589        0.016      332.449        1.118      871.975
01/24/2014  23:56:00      -23.711      -30.506       -5.009       21.743       25.255       19.586      472.765      637.817      383.595        0.151        0.075       38.638       18.048        0.218      332.498        1.199      871.960
01/24/2014  23:57:00      -47.579      -28.233       -2.198       27.924       14.304       12.295      779.763      204.618      151.174        0.210        0.057       55.325       10.030        0.033      332.536        1.261      871.946
01/24/2014  23:58:00      -93.673       -3.164      -15.673       14.940       15.561       13.849      223.207      242.136      191.787        0.484        0.033       93.726        7.156        0.006      332.594        1.358      871.933
01/24/2014  23:59:00      -78.419      -22.194      -12.666       23.337       26.175       12.923      544.628      685.118      166.998        0.410        0.070       81.499        5.965        0.005      332.399        1.036      871.920
